<?xml version="1.0" encoding="UTF-8" standalone="no" ?>
<gpx xmlns="http://www.topografix.com/GPX/1/1" xmlns:xsi="http://www.w3.org/2001/XMLSchema-instance" xsi:schemaLocation="http://www.topografix.com/GPX/1/1 http://www.topografix.com/GPX/1/1/gpx.xsd" version="1.1" creator="VisuGPX - https://www.visugpx.com">
  <metadata>
    <name>06 février 2011 - Reco Parcours Nivolet Revard</name>
    <desc><![CDATA[Petit ballade du dimanche]]></desc>
  </metadata>
  <trk>
    <name><![CDATA[2011-02-06T09:40:41Z]]></name>
    <trkseg>
      <trkpt lat="45.5881" lon="5.98269">
        <ele>545.6855469</ele>
        <time>2011-02-06T09:40:42Z</time>
      </trkpt>
      <trkpt lat="45.58812" lon="5.98266">
        <ele>552.4145508</ele>
        <time>2011-02-06T09:40:46Z</time>
      </trkpt>
      <trkpt lat="45.58812" lon="5.98259">
        <ele>558.6633301</ele>
        <time>2011-02-06T09:40:49Z</time>
      </trkpt>
      <trkpt lat="45.58811" lon="5.98253">
        <ele>564.4311523</ele>
        <time>2011-02-06T09:40:51Z</time>
      </trkpt>
      <trkpt lat="45.58806" lon="5.98247">
        <ele>574.5251465</ele>
        <time>2011-02-06T09:40:54Z</time>
      </trkpt>
      <trkpt lat="45.58802" lon="5.98246">
        <ele>576.9284668</ele>
        <time>2011-02-06T09:40:56Z</time>
      </trkpt>
      <trkpt lat="45.58796" lon="5.98246">
        <ele>578.3703613</ele>
        <time>2011-02-06T09:40:58Z</time>
      </trkpt>
      <trkpt lat="45.58791" lon="5.98246">
        <ele>579.8122559</ele>
        <time>2011-02-06T09:41:00Z</time>
      </trkpt>
      <trkpt lat="45.58786" lon="5.98247">
        <ele>580.2929688</ele>
        <time>2011-02-06T09:41:02Z</time>
      </trkpt>
      <trkpt lat="45.58786" lon="5.98243">
        <ele>586.060791</ele>
        <time>2011-02-06T09:41:04Z</time>
      </trkpt>
      <trkpt lat="45.5879" lon="5.98238">
        <ele>587.9833984</ele>
        <time>2011-02-06T09:41:06Z</time>
      </trkpt>
      <trkpt lat="45.58794" lon="5.9823">
        <ele>590.8674316</ele>
        <time>2011-02-06T09:41:08Z</time>
      </trkpt>
      <trkpt lat="45.58799" lon="5.98225">
        <ele>591.8288574</ele>
        <time>2011-02-06T09:41:10Z</time>
      </trkpt>
      <trkpt lat="45.58806" lon="5.98216">
        <ele>594.2321777</ele>
        <time>2011-02-06T09:41:13Z</time>
      </trkpt>
      <trkpt lat="45.58809" lon="5.98209">
        <ele>594.7126465</ele>
        <time>2011-02-06T09:41:15Z</time>
      </trkpt>
      <trkpt lat="45.58813" lon="5.98203">
        <ele>597.1159668</ele>
        <time>2011-02-06T09:41:17Z</time>
      </trkpt>
      <trkpt lat="45.58817" lon="5.98197">
        <ele>600</ele>
        <time>2011-02-06T09:41:19Z</time>
      </trkpt>
      <trkpt lat="45.5882" lon="5.9819">
        <ele>601.9226074</ele>
        <time>2011-02-06T09:41:21Z</time>
      </trkpt>
      <trkpt lat="45.58822" lon="5.98181">
        <ele>602.8837891</ele>
        <time>2011-02-06T09:41:23Z</time>
      </trkpt>
      <trkpt lat="45.58824" lon="5.98172">
        <ele>603.8452148</ele>
        <time>2011-02-06T09:41:25Z</time>
      </trkpt>
      <trkpt lat="45.58826" lon="5.98165">
        <ele>606.729248</ele>
        <time>2011-02-06T09:41:27Z</time>
      </trkpt>
      <trkpt lat="45.58829" lon="5.98158">
        <ele>607.6906738</ele>
        <time>2011-02-06T09:41:29Z</time>
      </trkpt>
      <trkpt lat="45.58832" lon="5.98151">
        <ele>607.6906738</ele>
        <time>2011-02-06T09:41:31Z</time>
      </trkpt>
      <trkpt lat="45.58835" lon="5.98146">
        <ele>606.729248</ele>
        <time>2011-02-06T09:41:33Z</time>
      </trkpt>
      <trkpt lat="45.5884" lon="5.9814">
        <ele>607.6906738</ele>
        <time>2011-02-06T09:41:35Z</time>
      </trkpt>
      <trkpt lat="45.58844" lon="5.98135">
        <ele>608.1713867</ele>
        <time>2011-02-06T09:41:37Z</time>
      </trkpt>
      <trkpt lat="45.58849" lon="5.98131">
        <ele>609.1325684</ele>
        <time>2011-02-06T09:41:39Z</time>
      </trkpt>
      <trkpt lat="45.58853" lon="5.98128">
        <ele>611.5358887</ele>
        <time>2011-02-06T09:41:41Z</time>
      </trkpt>
      <trkpt lat="45.58856" lon="5.98123">
        <ele>613.9389648</ele>
        <time>2011-02-06T09:41:43Z</time>
      </trkpt>
      <trkpt lat="45.58861" lon="5.98111">
        <ele>610.5744629</ele>
        <time>2011-02-06T09:41:46Z</time>
      </trkpt>
      <trkpt lat="45.58861" lon="5.98097">
        <ele>610.09375</ele>
        <time>2011-02-06T09:41:48Z</time>
      </trkpt>
      <trkpt lat="45.58863" lon="5.98088">
        <ele>615.3811035</ele>
        <time>2011-02-06T09:41:50Z</time>
      </trkpt>
      <trkpt lat="45.58865" lon="5.98082">
        <ele>612.4970703</ele>
        <time>2011-02-06T09:41:52Z</time>
      </trkpt>
      <trkpt lat="45.58861" lon="5.98074">
        <ele>610.09375</ele>
        <time>2011-02-06T09:41:55Z</time>
      </trkpt>
      <trkpt lat="45.58857" lon="5.98069">
        <ele>608.1713867</ele>
        <time>2011-02-06T09:41:57Z</time>
      </trkpt>
      <trkpt lat="45.58851" lon="5.98066">
        <ele>606.729248</ele>
        <time>2011-02-06T09:41:59Z</time>
      </trkpt>
      <trkpt lat="45.58846" lon="5.98062">
        <ele>605.7680664</ele>
        <time>2011-02-06T09:42:01Z</time>
      </trkpt>
      <trkpt lat="45.58842" lon="5.98058">
        <ele>604.3261719</ele>
        <time>2011-02-06T09:42:03Z</time>
      </trkpt>
      <trkpt lat="45.58837" lon="5.98055">
        <ele>602.8837891</ele>
        <time>2011-02-06T09:42:05Z</time>
      </trkpt>
      <trkpt lat="45.58833" lon="5.98051">
        <ele>601.4418945</ele>
        <time>2011-02-06T09:42:07Z</time>
      </trkpt>
      <trkpt lat="45.58829" lon="5.98046">
        <ele>600.4807129</ele>
        <time>2011-02-06T09:42:09Z</time>
      </trkpt>
      <trkpt lat="45.58825" lon="5.9804">
        <ele>599.0385742</ele>
        <time>2011-02-06T09:42:11Z</time>
      </trkpt>
      <trkpt lat="45.5882" lon="5.98032">
        <ele>598.0773926</ele>
        <time>2011-02-06T09:42:14Z</time>
      </trkpt>
      <trkpt lat="45.58817" lon="5.98027">
        <ele>598.0773926</ele>
        <time>2011-02-06T09:42:16Z</time>
      </trkpt>
      <trkpt lat="45.58815" lon="5.98018">
        <ele>596.635498</ele>
        <time>2011-02-06T09:42:19Z</time>
      </trkpt>
      <trkpt lat="45.58815" lon="5.98011">
        <ele>595.6740723</ele>
        <time>2011-02-06T09:42:21Z</time>
      </trkpt>
      <trkpt lat="45.58817" lon="5.98001">
        <ele>596.635498</ele>
        <time>2011-02-06T09:42:23Z</time>
      </trkpt>
      <trkpt lat="45.58818" lon="5.97992">
        <ele>598.5578613</ele>
        <time>2011-02-06T09:42:25Z</time>
      </trkpt>
      <trkpt lat="45.58819" lon="5.97981">
        <ele>599.0385742</ele>
        <time>2011-02-06T09:42:27Z</time>
      </trkpt>
      <trkpt lat="45.58822" lon="5.97973">
        <ele>598.0773926</ele>
        <time>2011-02-06T09:42:29Z</time>
      </trkpt>
      <trkpt lat="45.58824" lon="5.97964">
        <ele>597.5966797</ele>
        <time>2011-02-06T09:42:31Z</time>
      </trkpt>
      <trkpt lat="45.58829" lon="5.97955">
        <ele>590.3869629</ele>
        <time>2011-02-06T09:42:33Z</time>
      </trkpt>
      <trkpt lat="45.58831" lon="5.97947">
        <ele>590.8674316</ele>
        <time>2011-02-06T09:42:35Z</time>
      </trkpt>
      <trkpt lat="45.58834" lon="5.97939">
        <ele>591.8288574</ele>
        <time>2011-02-06T09:42:37Z</time>
      </trkpt>
      <trkpt lat="45.58838" lon="5.97932">
        <ele>591.8288574</ele>
        <time>2011-02-06T09:42:39Z</time>
      </trkpt>
      <trkpt lat="45.58841" lon="5.97926">
        <ele>591.3481445</ele>
        <time>2011-02-06T09:42:41Z</time>
      </trkpt>
      <trkpt lat="45.58847" lon="5.97921">
        <ele>590.3869629</ele>
        <time>2011-02-06T09:42:43Z</time>
      </trkpt>
      <trkpt lat="45.58851" lon="5.97915">
        <ele>589.90625</ele>
        <time>2011-02-06T09:42:45Z</time>
      </trkpt>
      <trkpt lat="45.58856" lon="5.9791">
        <ele>589.90625</ele>
        <time>2011-02-06T09:42:47Z</time>
      </trkpt>
      <trkpt lat="45.58861" lon="5.97905">
        <ele>589.90625</ele>
        <time>2011-02-06T09:42:49Z</time>
      </trkpt>
      <trkpt lat="45.58865" lon="5.97898">
        <ele>589.4255371</ele>
        <time>2011-02-06T09:42:51Z</time>
      </trkpt>
      <trkpt lat="45.58868" lon="5.9789">
        <ele>589.4255371</ele>
        <time>2011-02-06T09:42:53Z</time>
      </trkpt>
      <trkpt lat="45.58871" lon="5.97882">
        <ele>589.4255371</ele>
        <time>2011-02-06T09:42:55Z</time>
      </trkpt>
      <trkpt lat="45.58873" lon="5.97874">
        <ele>588.4643555</ele>
        <time>2011-02-06T09:42:57Z</time>
      </trkpt>
      <trkpt lat="45.58876" lon="5.97868">
        <ele>587.5026855</ele>
        <time>2011-02-06T09:42:59Z</time>
      </trkpt>
      <trkpt lat="45.58879" lon="5.97863">
        <ele>586.5415039</ele>
        <time>2011-02-06T09:43:01Z</time>
      </trkpt>
      <trkpt lat="45.58881" lon="5.97855">
        <ele>586.5415039</ele>
        <time>2011-02-06T09:43:03Z</time>
      </trkpt>
      <trkpt lat="45.58883" lon="5.97847">
        <ele>587.0219727</ele>
        <time>2011-02-06T09:43:05Z</time>
      </trkpt>
      <trkpt lat="45.58885" lon="5.97838">
        <ele>589.4255371</ele>
        <time>2011-02-06T09:43:07Z</time>
      </trkpt>
      <trkpt lat="45.58887" lon="5.9783">
        <ele>591.8288574</ele>
        <time>2011-02-06T09:43:09Z</time>
      </trkpt>
      <trkpt lat="45.58889" lon="5.97823">
        <ele>594.2321777</ele>
        <time>2011-02-06T09:43:11Z</time>
      </trkpt>
      <trkpt lat="45.58892" lon="5.97816">
        <ele>596.635498</ele>
        <time>2011-02-06T09:43:13Z</time>
      </trkpt>
      <trkpt lat="45.58893" lon="5.97809">
        <ele>598.5578613</ele>
        <time>2011-02-06T09:43:15Z</time>
      </trkpt>
      <trkpt lat="45.58894" lon="5.97801">
        <ele>598.0773926</ele>
        <time>2011-02-06T09:43:17Z</time>
      </trkpt>
      <trkpt lat="45.58897" lon="5.97794">
        <ele>597.1159668</ele>
        <time>2011-02-06T09:43:19Z</time>
      </trkpt>
      <trkpt lat="45.58901" lon="5.97789">
        <ele>596.635498</ele>
        <time>2011-02-06T09:43:21Z</time>
      </trkpt>
      <trkpt lat="45.58906" lon="5.97784">
        <ele>595.6740723</ele>
        <time>2011-02-06T09:43:23Z</time>
      </trkpt>
      <trkpt lat="45.58911" lon="5.97778">
        <ele>595.1933594</ele>
        <time>2011-02-06T09:43:25Z</time>
      </trkpt>
      <trkpt lat="45.58917" lon="5.97773">
        <ele>594.7126465</ele>
        <time>2011-02-06T09:43:27Z</time>
      </trkpt>
      <trkpt lat="45.58922" lon="5.97769">
        <ele>592.3095703</ele>
        <time>2011-02-06T09:43:29Z</time>
      </trkpt>
      <trkpt lat="45.58926" lon="5.97765">
        <ele>590.8674316</ele>
        <time>2011-02-06T09:43:31Z</time>
      </trkpt>
      <trkpt lat="45.58931" lon="5.97761">
        <ele>588.9450684</ele>
        <time>2011-02-06T09:43:33Z</time>
      </trkpt>
      <trkpt lat="45.58936" lon="5.97758">
        <ele>586.5415039</ele>
        <time>2011-02-06T09:43:35Z</time>
      </trkpt>
      <trkpt lat="45.58942" lon="5.97756">
        <ele>591.3481445</ele>
        <time>2011-02-06T09:43:37Z</time>
      </trkpt>
      <trkpt lat="45.58953" lon="5.97751">
        <ele>575.4863281</ele>
        <time>2011-02-06T09:43:41Z</time>
      </trkpt>
      <trkpt lat="45.58962" lon="5.97751">
        <ele>562.5085449</ele>
        <time>2011-02-06T09:43:44Z</time>
      </trkpt>
      <trkpt lat="45.58968" lon="5.97752">
        <ele>560.5859375</ele>
        <time>2011-02-06T09:43:47Z</time>
      </trkpt>
      <trkpt lat="45.58972" lon="5.97753">
        <ele>558.6633301</ele>
        <time>2011-02-06T09:43:49Z</time>
      </trkpt>
      <trkpt lat="45.58981" lon="5.97754">
        <ele>553.8566895</ele>
        <time>2011-02-06T09:43:53Z</time>
      </trkpt>
      <trkpt lat="45.58991" lon="5.97751">
        <ele>541.3594971</ele>
        <time>2011-02-06T09:43:56Z</time>
      </trkpt>
      <trkpt lat="45.58999" lon="5.97746">
        <ele>538.475708</ele>
        <time>2011-02-06T09:43:59Z</time>
      </trkpt>
      <trkpt lat="45.59005" lon="5.97743">
        <ele>535.1109619</ele>
        <time>2011-02-06T09:44:02Z</time>
      </trkpt>
      <trkpt lat="45.59012" lon="5.97744">
        <ele>527.4204102</ele>
        <time>2011-02-06T09:44:04Z</time>
      </trkpt>
      <trkpt lat="45.59022" lon="5.97752">
        <ele>512.5200195</ele>
        <time>2011-02-06T09:44:06Z</time>
      </trkpt>
      <trkpt lat="45.5903" lon="5.97755">
        <ele>501.9455566</ele>
        <time>2011-02-06T09:44:08Z</time>
      </trkpt>
      <trkpt lat="45.59034" lon="5.97755">
        <ele>490.8903809</ele>
        <time>2011-02-06T09:44:10Z</time>
      </trkpt>
      <trkpt lat="45.59038" lon="5.97752">
        <ele>480.7966309</ele>
        <time>2011-02-06T09:44:12Z</time>
      </trkpt>
      <trkpt lat="45.5904" lon="5.9775">
        <ele>476.9512939</ele>
        <time>2011-02-06T09:44:13Z</time>
      </trkpt>
      <trkpt lat="45.59045" lon="5.97741">
        <ele>464.4541016</ele>
        <time>2011-02-06T09:44:16Z</time>
      </trkpt>
      <trkpt lat="45.59048" lon="5.97734">
        <ele>459.647583</ele>
        <time>2011-02-06T09:44:18Z</time>
      </trkpt>
      <trkpt lat="45.59047" lon="5.97698">
        <ele>452.9182129</ele>
        <time>2011-02-06T09:44:21Z</time>
      </trkpt>
      <trkpt lat="45.59046" lon="5.97675">
        <ele>448.5924072</ele>
        <time>2011-02-06T09:44:24Z</time>
      </trkpt>
      <trkpt lat="45.59047" lon="5.9766">
        <ele>438.979126</ele>
        <time>2011-02-06T09:44:28Z</time>
      </trkpt>
      <trkpt lat="45.59051" lon="5.97648">
        <ele>435.614502</ele>
        <time>2011-02-06T09:44:31Z</time>
      </trkpt>
      <trkpt lat="45.59055" lon="5.97639">
        <ele>430.3272705</ele>
        <time>2011-02-06T09:44:34Z</time>
      </trkpt>
      <trkpt lat="45.59061" lon="5.97631">
        <ele>427.9239502</ele>
        <time>2011-02-06T09:44:37Z</time>
      </trkpt>
      <trkpt lat="45.59065" lon="5.97625">
        <ele>425.520752</ele>
        <time>2011-02-06T09:44:39Z</time>
      </trkpt>
      <trkpt lat="45.59068" lon="5.97618">
        <ele>421.675415</ele>
        <time>2011-02-06T09:44:42Z</time>
      </trkpt>
      <trkpt lat="45.59072" lon="5.97613">
        <ele>422.1560059</ele>
        <time>2011-02-06T09:44:44Z</time>
      </trkpt>
      <trkpt lat="45.59077" lon="5.97604">
        <ele>421.675415</ele>
        <time>2011-02-06T09:44:47Z</time>
      </trkpt>
      <trkpt lat="45.59079" lon="5.97601">
        <ele>422.6367188</ele>
        <time>2011-02-06T09:44:48Z</time>
      </trkpt>
      <trkpt lat="45.59084" lon="5.9759">
        <ele>417.8302002</ele>
        <time>2011-02-06T09:44:52Z</time>
      </trkpt>
      <trkpt lat="45.59087" lon="5.9758">
        <ele>415.4268799</ele>
        <time>2011-02-06T09:44:56Z</time>
      </trkpt>
      <trkpt lat="45.59091" lon="5.97578">
        <ele>410.1396484</ele>
        <time>2011-02-06T09:44:59Z</time>
      </trkpt>
      <trkpt lat="45.59095" lon="5.97573">
        <ele>412.5428467</ele>
        <time>2011-02-06T09:45:02Z</time>
      </trkpt>
      <trkpt lat="45.59101" lon="5.97568">
        <ele>414.4654541</ele>
        <time>2011-02-06T09:45:05Z</time>
      </trkpt>
      <trkpt lat="45.59102" lon="5.97565">
        <ele>414.4654541</ele>
        <time>2011-02-06T09:45:06Z</time>
      </trkpt>
      <trkpt lat="45.59109" lon="5.97561">
        <ele>416.3881836</ele>
        <time>2011-02-06T09:45:10Z</time>
      </trkpt>
      <trkpt lat="45.59114" lon="5.97561">
        <ele>416.3881836</ele>
        <time>2011-02-06T09:45:13Z</time>
      </trkpt>
      <trkpt lat="45.59128" lon="5.97563">
        <ele>417.8302002</ele>
        <time>2011-02-06T09:45:17Z</time>
      </trkpt>
      <trkpt lat="45.59141" lon="5.97563">
        <ele>421.1948242</ele>
        <time>2011-02-06T09:45:20Z</time>
      </trkpt>
      <trkpt lat="45.59153" lon="5.97563">
        <ele>423.5980225</ele>
        <time>2011-02-06T09:45:23Z</time>
      </trkpt>
      <trkpt lat="45.5916" lon="5.97561">
        <ele>425.0401611</ele>
        <time>2011-02-06T09:45:25Z</time>
      </trkpt>
      <trkpt lat="45.59165" lon="5.97554">
        <ele>426.4820557</ele>
        <time>2011-02-06T09:45:27Z</time>
      </trkpt>
      <trkpt lat="45.59173" lon="5.97545">
        <ele>426.9627686</ele>
        <time>2011-02-06T09:45:30Z</time>
      </trkpt>
      <trkpt lat="45.59181" lon="5.97539">
        <ele>425.520752</ele>
        <time>2011-02-06T09:45:33Z</time>
      </trkpt>
      <trkpt lat="45.59189" lon="5.97528">
        <ele>420.2333984</ele>
        <time>2011-02-06T09:45:37Z</time>
      </trkpt>
      <trkpt lat="45.59196" lon="5.97523">
        <ele>420.7141113</ele>
        <time>2011-02-06T09:45:40Z</time>
      </trkpt>
      <trkpt lat="45.592" lon="5.97518">
        <ele>421.675415</ele>
        <time>2011-02-06T09:45:42Z</time>
      </trkpt>
      <trkpt lat="45.59203" lon="5.97513">
        <ele>422.1560059</ele>
        <time>2011-02-06T09:45:44Z</time>
      </trkpt>
      <trkpt lat="45.59205" lon="5.97505">
        <ele>427.9239502</ele>
        <time>2011-02-06T09:45:48Z</time>
      </trkpt>
      <trkpt lat="45.59205" lon="5.97501">
        <ele>429.3659668</ele>
        <time>2011-02-06T09:45:50Z</time>
      </trkpt>
      <trkpt lat="45.59207" lon="5.9749">
        <ele>434.6533203</ele>
        <time>2011-02-06T09:45:54Z</time>
      </trkpt>
      <trkpt lat="45.59207" lon="5.97487">
        <ele>436.5759277</ele>
        <time>2011-02-06T09:45:55Z</time>
      </trkpt>
      <trkpt lat="45.59211" lon="5.97472">
        <ele>441.3824463</ele>
        <time>2011-02-06T09:45:59Z</time>
      </trkpt>
      <trkpt lat="45.59212" lon="5.97464">
        <ele>443.7857666</ele>
        <time>2011-02-06T09:46:02Z</time>
      </trkpt>
      <trkpt lat="45.5921" lon="5.97433">
        <ele>448.5924072</ele>
        <time>2011-02-06T09:46:06Z</time>
      </trkpt>
      <trkpt lat="45.59212" lon="5.97424">
        <ele>453.3989258</ele>
        <time>2011-02-06T09:46:09Z</time>
      </trkpt>
      <trkpt lat="45.59211" lon="5.97406">
        <ele>457.7249756</ele>
        <time>2011-02-06T09:46:14Z</time>
      </trkpt>
      <trkpt lat="45.59212" lon="5.97399">
        <ele>459.1668701</ele>
        <time>2011-02-06T09:46:16Z</time>
      </trkpt>
      <trkpt lat="45.59212" lon="5.97395">
        <ele>459.1668701</ele>
        <time>2011-02-06T09:46:17Z</time>
      </trkpt>
      <trkpt lat="45.59215" lon="5.97384">
        <ele>463.9733887</ele>
        <time>2011-02-06T09:46:20Z</time>
      </trkpt>
      <trkpt lat="45.59224" lon="5.97377">
        <ele>462.0507813</ele>
        <time>2011-02-06T09:46:23Z</time>
      </trkpt>
      <trkpt lat="45.59232" lon="5.9737">
        <ele>463.4927979</ele>
        <time>2011-02-06T09:46:26Z</time>
      </trkpt>
      <trkpt lat="45.5924" lon="5.97365">
        <ele>463.9733887</ele>
        <time>2011-02-06T09:46:29Z</time>
      </trkpt>
      <trkpt lat="45.59247" lon="5.97358">
        <ele>473.5866699</ele>
        <time>2011-02-06T09:46:32Z</time>
      </trkpt>
      <trkpt lat="45.59247" lon="5.97349">
        <ele>488.9677734</ele>
        <time>2011-02-06T09:46:35Z</time>
      </trkpt>
      <trkpt lat="45.59246" lon="5.97343">
        <ele>492.8129883</ele>
        <time>2011-02-06T09:46:40Z</time>
      </trkpt>
      <trkpt lat="45.59242" lon="5.97331">
        <ele>491.8516846</ele>
        <time>2011-02-06T09:46:44Z</time>
      </trkpt>
      <trkpt lat="45.59236" lon="5.97322">
        <ele>488.0064697</ele>
        <time>2011-02-06T09:46:48Z</time>
      </trkpt>
      <trkpt lat="45.59234" lon="5.97321">
        <ele>486.0837402</ele>
        <time>2011-02-06T09:46:50Z</time>
      </trkpt>
      <trkpt lat="45.59229" lon="5.97329">
        <ele>480.7966309</ele>
        <time>2011-02-06T09:46:57Z</time>
      </trkpt>
      <trkpt lat="45.59223" lon="5.97321">
        <ele>479.835083</ele>
        <time>2011-02-06T09:47:07Z</time>
      </trkpt>
      <trkpt lat="45.59232" lon="5.97323">
        <ele>473.1060791</ele>
        <time>2011-02-06T09:47:17Z</time>
      </trkpt>
      <trkpt lat="45.59235" lon="5.9732">
        <ele>471.6639404</ele>
        <time>2011-02-06T09:47:21Z</time>
      </trkpt>
      <trkpt lat="45.59235" lon="5.97318">
        <ele>472.6253662</ele>
        <time>2011-02-06T09:47:22Z</time>
      </trkpt>
      <trkpt lat="45.5924" lon="5.97312">
        <ele>475.0286865</ele>
        <time>2011-02-06T09:47:26Z</time>
      </trkpt>
      <trkpt lat="45.59244" lon="5.97309">
        <ele>474.5479736</ele>
        <time>2011-02-06T09:47:30Z</time>
      </trkpt>
      <trkpt lat="45.59247" lon="5.97305">
        <ele>474.0672607</ele>
        <time>2011-02-06T09:47:34Z</time>
      </trkpt>
      <trkpt lat="45.59254" lon="5.97308">
        <ele>474.0672607</ele>
        <time>2011-02-06T09:47:38Z</time>
      </trkpt>
      <trkpt lat="45.59259" lon="5.97308">
        <ele>475.9898682</ele>
        <time>2011-02-06T09:47:41Z</time>
      </trkpt>
      <trkpt lat="45.59267" lon="5.97305">
        <ele>481.7578125</ele>
        <time>2011-02-06T09:47:44Z</time>
      </trkpt>
      <trkpt lat="45.59271" lon="5.97294">
        <ele>484.6418457</ele>
        <time>2011-02-06T09:47:48Z</time>
      </trkpt>
      <trkpt lat="45.59275" lon="5.97287">
        <ele>486.5644531</ele>
        <time>2011-02-06T09:47:51Z</time>
      </trkpt>
      <trkpt lat="45.59278" lon="5.97285">
        <ele>482.7192383</ele>
        <time>2011-02-06T09:47:55Z</time>
      </trkpt>
      <trkpt lat="45.59287" lon="5.97285">
        <ele>481.7578125</ele>
        <time>2011-02-06T09:47:59Z</time>
      </trkpt>
      <trkpt lat="45.59291" lon="5.97283">
        <ele>486.5644531</ele>
        <time>2011-02-06T09:48:03Z</time>
      </trkpt>
      <trkpt lat="45.59294" lon="5.97274">
        <ele>487.5256348</ele>
        <time>2011-02-06T09:48:10Z</time>
      </trkpt>
      <trkpt lat="45.59297" lon="5.97273">
        <ele>476.9512939</ele>
        <time>2011-02-06T09:48:18Z</time>
      </trkpt>
      <trkpt lat="45.59301" lon="5.97273">
        <ele>474.0672607</ele>
        <time>2011-02-06T09:48:23Z</time>
      </trkpt>
      <trkpt lat="45.59297" lon="5.97269">
        <ele>472.1446533</ele>
        <time>2011-02-06T09:48:32Z</time>
      </trkpt>
      <trkpt lat="45.59289" lon="5.97268">
        <ele>477.4318848</ele>
        <time>2011-02-06T09:48:36Z</time>
      </trkpt>
      <trkpt lat="45.59283" lon="5.97268">
        <ele>478.8739014</ele>
        <time>2011-02-06T09:48:40Z</time>
      </trkpt>
      <trkpt lat="45.59276" lon="5.9727">
        <ele>479.835083</ele>
        <time>2011-02-06T09:48:44Z</time>
      </trkpt>
      <trkpt lat="45.59274" lon="5.97272">
        <ele>480.315918</ele>
        <time>2011-02-06T09:48:45Z</time>
      </trkpt>
      <trkpt lat="45.59262" lon="5.97276">
        <ele>479.835083</ele>
        <time>2011-02-06T09:48:49Z</time>
      </trkpt>
      <trkpt lat="45.59255" lon="5.9728">
        <ele>479.3544922</ele>
        <time>2011-02-06T09:48:52Z</time>
      </trkpt>
      <trkpt lat="45.59249" lon="5.97282">
        <ele>477.4318848</ele>
        <time>2011-02-06T09:48:55Z</time>
      </trkpt>
      <trkpt lat="45.59244" lon="5.97286">
        <ele>476.4705811</ele>
        <time>2011-02-06T09:48:58Z</time>
      </trkpt>
      <trkpt lat="45.59237" lon="5.97291">
        <ele>475.5092773</ele>
        <time>2011-02-06T09:49:01Z</time>
      </trkpt>
      <trkpt lat="45.5923" lon="5.97298">
        <ele>474.0672607</ele>
        <time>2011-02-06T09:49:04Z</time>
      </trkpt>
      <trkpt lat="45.59222" lon="5.97301">
        <ele>472.6253662</ele>
        <time>2011-02-06T09:49:07Z</time>
      </trkpt>
      <trkpt lat="45.59213" lon="5.97303">
        <ele>474.5479736</ele>
        <time>2011-02-06T09:49:10Z</time>
      </trkpt>
      <trkpt lat="45.59207" lon="5.97301">
        <ele>473.5866699</ele>
        <time>2011-02-06T09:49:12Z</time>
      </trkpt>
      <trkpt lat="45.59204" lon="5.97297">
        <ele>473.1060791</ele>
        <time>2011-02-06T09:49:14Z</time>
      </trkpt>
      <trkpt lat="45.59202" lon="5.97281">
        <ele>474.5479736</ele>
        <time>2011-02-06T09:49:18Z</time>
      </trkpt>
      <trkpt lat="45.59205" lon="5.97275">
        <ele>475.5092773</ele>
        <time>2011-02-06T09:49:21Z</time>
      </trkpt>
      <trkpt lat="45.59207" lon="5.97271">
        <ele>477.9124756</ele>
        <time>2011-02-06T09:49:24Z</time>
      </trkpt>
      <trkpt lat="45.59207" lon="5.97266">
        <ele>483.1998291</ele>
        <time>2011-02-06T09:49:27Z</time>
      </trkpt>
      <trkpt lat="45.59202" lon="5.97258">
        <ele>489.4483643</ele>
        <time>2011-02-06T09:49:32Z</time>
      </trkpt>
      <trkpt lat="45.59197" lon="5.97253">
        <ele>494.2550049</ele>
        <time>2011-02-06T09:49:36Z</time>
      </trkpt>
      <trkpt lat="45.5919" lon="5.97247">
        <ele>495.2161865</ele>
        <time>2011-02-06T09:49:40Z</time>
      </trkpt>
      <trkpt lat="45.59185" lon="5.97249">
        <ele>496.6583252</ele>
        <time>2011-02-06T09:49:44Z</time>
      </trkpt>
      <trkpt lat="45.59179" lon="5.97248">
        <ele>501.4648438</ele>
        <time>2011-02-06T09:49:48Z</time>
      </trkpt>
      <trkpt lat="45.59175" lon="5.97247">
        <ele>504.8294678</ele>
        <time>2011-02-06T09:49:51Z</time>
      </trkpt>
      <trkpt lat="45.59169" lon="5.9725">
        <ele>506.2714844</ele>
        <time>2011-02-06T09:49:55Z</time>
      </trkpt>
      <trkpt lat="45.59162" lon="5.9725">
        <ele>507.2327881</ele>
        <time>2011-02-06T09:49:59Z</time>
      </trkpt>
      <trkpt lat="45.59156" lon="5.97252">
        <ele>505.7908936</ele>
        <time>2011-02-06T09:50:03Z</time>
      </trkpt>
      <trkpt lat="45.5915" lon="5.97253">
        <ele>499.5422363</ele>
        <time>2011-02-06T09:50:07Z</time>
      </trkpt>
      <trkpt lat="45.59143" lon="5.97253">
        <ele>500.0229492</ele>
        <time>2011-02-06T09:50:10Z</time>
      </trkpt>
      <trkpt lat="45.59137" lon="5.97257">
        <ele>498.5809326</ele>
        <time>2011-02-06T09:50:14Z</time>
      </trkpt>
      <trkpt lat="45.59134" lon="5.97257">
        <ele>498.1003418</ele>
        <time>2011-02-06T09:50:15Z</time>
      </trkpt>
      <trkpt lat="45.59129" lon="5.97258">
        <ele>495.6968994</ele>
        <time>2011-02-06T09:50:18Z</time>
      </trkpt>
      <trkpt lat="45.59122" lon="5.9726">
        <ele>495.2161865</ele>
        <time>2011-02-06T09:50:22Z</time>
      </trkpt>
      <trkpt lat="45.59115" lon="5.97263">
        <ele>500.50354</ele>
        <time>2011-02-06T09:50:25Z</time>
      </trkpt>
      <trkpt lat="45.59108" lon="5.97263">
        <ele>499.0615234</ele>
        <time>2011-02-06T09:50:29Z</time>
      </trkpt>
      <trkpt lat="45.59103" lon="5.97268">
        <ele>500.0229492</ele>
        <time>2011-02-06T09:50:33Z</time>
      </trkpt>
      <trkpt lat="45.59101" lon="5.97269">
        <ele>500.0229492</ele>
        <time>2011-02-06T09:50:34Z</time>
      </trkpt>
      <trkpt lat="45.59095" lon="5.97275">
        <ele>500.9841309</ele>
        <time>2011-02-06T09:50:38Z</time>
      </trkpt>
      <trkpt lat="45.59089" lon="5.9728">
        <ele>500.50354</ele>
        <time>2011-02-06T09:50:41Z</time>
      </trkpt>
      <trkpt lat="45.59082" lon="5.97281">
        <ele>501.4648438</ele>
        <time>2011-02-06T09:50:44Z</time>
      </trkpt>
      <trkpt lat="45.59076" lon="5.97283">
        <ele>501.9455566</ele>
        <time>2011-02-06T09:50:47Z</time>
      </trkpt>
      <trkpt lat="45.59068" lon="5.9728">
        <ele>502.4261475</ele>
        <time>2011-02-06T09:50:50Z</time>
      </trkpt>
      <trkpt lat="45.59065" lon="5.97279">
        <ele>502.9067383</ele>
        <time>2011-02-06T09:50:52Z</time>
      </trkpt>
      <trkpt lat="45.5906" lon="5.97274">
        <ele>502.4261475</ele>
        <time>2011-02-06T09:50:56Z</time>
      </trkpt>
      <trkpt lat="45.59055" lon="5.97271">
        <ele>502.9067383</ele>
        <time>2011-02-06T09:50:59Z</time>
      </trkpt>
      <trkpt lat="45.59052" lon="5.97269">
        <ele>503.8681641</ele>
        <time>2011-02-06T09:51:02Z</time>
      </trkpt>
      <trkpt lat="45.59045" lon="5.97267">
        <ele>505.7908936</ele>
        <time>2011-02-06T09:51:06Z</time>
      </trkpt>
      <trkpt lat="45.59042" lon="5.97266">
        <ele>506.7520752</ele>
        <time>2011-02-06T09:51:09Z</time>
      </trkpt>
      <trkpt lat="45.59037" lon="5.97261">
        <ele>510.1166992</ele>
        <time>2011-02-06T09:51:13Z</time>
      </trkpt>
      <trkpt lat="45.59031" lon="5.97259">
        <ele>512.0394287</ele>
        <time>2011-02-06T09:51:17Z</time>
      </trkpt>
      <trkpt lat="45.59024" lon="5.97261">
        <ele>517.807251</ele>
        <time>2011-02-06T09:51:21Z</time>
      </trkpt>
      <trkpt lat="45.5902" lon="5.97263">
        <ele>519.2492676</ele>
        <time>2011-02-06T09:51:23Z</time>
      </trkpt>
      <trkpt lat="45.59014" lon="5.97267">
        <ele>523.0946045</ele>
        <time>2011-02-06T09:51:27Z</time>
      </trkpt>
      <trkpt lat="45.5901" lon="5.97269">
        <ele>525.9783936</ele>
        <time>2011-02-06T09:51:30Z</time>
      </trkpt>
      <trkpt lat="45.59008" lon="5.9727">
        <ele>529.3431396</ele>
        <time>2011-02-06T09:51:32Z</time>
      </trkpt>
      <trkpt lat="45.59" lon="5.9727">
        <ele>530.3044434</ele>
        <time>2011-02-06T09:51:36Z</time>
      </trkpt>
      <trkpt lat="45.58993" lon="5.9727">
        <ele>528.3818359</ele>
        <time>2011-02-06T09:51:40Z</time>
      </trkpt>
      <trkpt lat="45.58988" lon="5.97269">
        <ele>529.3431396</ele>
        <time>2011-02-06T09:51:43Z</time>
      </trkpt>
      <trkpt lat="45.58981" lon="5.97269">
        <ele>525.9783936</ele>
        <time>2011-02-06T09:51:46Z</time>
      </trkpt>
      <trkpt lat="45.58976" lon="5.9727">
        <ele>525.4978027</ele>
        <time>2011-02-06T09:51:48Z</time>
      </trkpt>
      <trkpt lat="45.58969" lon="5.9727">
        <ele>525.4978027</ele>
        <time>2011-02-06T09:51:52Z</time>
      </trkpt>
      <trkpt lat="45.58965" lon="5.97271">
        <ele>525.4978027</ele>
        <time>2011-02-06T09:51:55Z</time>
      </trkpt>
      <trkpt lat="45.5896" lon="5.97271">
        <ele>526.4591064</ele>
        <time>2011-02-06T09:51:58Z</time>
      </trkpt>
      <trkpt lat="45.58953" lon="5.9727">
        <ele>527.901001</ele>
        <time>2011-02-06T09:52:02Z</time>
      </trkpt>
      <trkpt lat="45.58947" lon="5.97272">
        <ele>527.4204102</ele>
        <time>2011-02-06T09:52:06Z</time>
      </trkpt>
      <trkpt lat="45.58941" lon="5.97274">
        <ele>526.4591064</ele>
        <time>2011-02-06T09:52:09Z</time>
      </trkpt>
      <trkpt lat="45.58937" lon="5.97275">
        <ele>527.4204102</ele>
        <time>2011-02-06T09:52:13Z</time>
      </trkpt>
      <trkpt lat="45.58933" lon="5.97276">
        <ele>529.3431396</ele>
        <time>2011-02-06T09:52:16Z</time>
      </trkpt>
      <trkpt lat="45.58926" lon="5.97278">
        <ele>527.901001</ele>
        <time>2011-02-06T09:52:20Z</time>
      </trkpt>
      <trkpt lat="45.58918" lon="5.97278">
        <ele>528.3818359</ele>
        <time>2011-02-06T09:52:24Z</time>
      </trkpt>
      <trkpt lat="45.58913" lon="5.97277">
        <ele>526.9398193</ele>
        <time>2011-02-06T09:52:28Z</time>
      </trkpt>
      <trkpt lat="45.58909" lon="5.97276">
        <ele>526.4591064</ele>
        <time>2011-02-06T09:52:31Z</time>
      </trkpt>
      <trkpt lat="45.58904" lon="5.97275">
        <ele>526.9398193</ele>
        <time>2011-02-06T09:52:34Z</time>
      </trkpt>
      <trkpt lat="45.58898" lon="5.9727">
        <ele>529.3431396</ele>
        <time>2011-02-06T09:52:38Z</time>
      </trkpt>
      <trkpt lat="45.58899" lon="5.97264">
        <ele>529.3431396</ele>
        <time>2011-02-06T09:52:41Z</time>
      </trkpt>
      <trkpt lat="45.58904" lon="5.9726">
        <ele>530.3044434</ele>
        <time>2011-02-06T09:52:44Z</time>
      </trkpt>
      <trkpt lat="45.58911" lon="5.97257">
        <ele>528.8625488</ele>
        <time>2011-02-06T09:52:48Z</time>
      </trkpt>
      <trkpt lat="45.58916" lon="5.97257">
        <ele>526.4591064</ele>
        <time>2011-02-06T09:52:51Z</time>
      </trkpt>
      <trkpt lat="45.5892" lon="5.97254">
        <ele>525.4978027</ele>
        <time>2011-02-06T09:52:54Z</time>
      </trkpt>
      <trkpt lat="45.58922" lon="5.97254">
        <ele>525.4978027</ele>
        <time>2011-02-06T09:52:55Z</time>
      </trkpt>
      <trkpt lat="45.58927" lon="5.97249">
        <ele>525.4978027</ele>
        <time>2011-02-06T09:52:59Z</time>
      </trkpt>
      <trkpt lat="45.58928" lon="5.97245">
        <ele>525.4978027</ele>
        <time>2011-02-06T09:53:00Z</time>
      </trkpt>
      <trkpt lat="45.58933" lon="5.97239">
        <ele>524.536499</ele>
        <time>2011-02-06T09:53:04Z</time>
      </trkpt>
      <trkpt lat="45.58933" lon="5.97238">
        <ele>525.0172119</ele>
        <time>2011-02-06T09:53:05Z</time>
      </trkpt>
      <trkpt lat="45.58932" lon="5.97228">
        <ele>528.3818359</ele>
        <time>2011-02-06T09:53:09Z</time>
      </trkpt>
      <trkpt lat="45.58929" lon="5.97221">
        <ele>533.6689453</ele>
        <time>2011-02-06T09:53:12Z</time>
      </trkpt>
      <trkpt lat="45.58929" lon="5.97218">
        <ele>535.5915527</ele>
        <time>2011-02-06T09:53:13Z</time>
      </trkpt>
      <trkpt lat="45.58932" lon="5.97211">
        <ele>537.5142822</ele>
        <time>2011-02-06T09:53:17Z</time>
      </trkpt>
      <trkpt lat="45.58938" lon="5.972">
        <ele>542.8015137</ele>
        <time>2011-02-06T09:53:22Z</time>
      </trkpt>
      <trkpt lat="45.58942" lon="5.97194">
        <ele>544.7242432</ele>
        <time>2011-02-06T09:53:25Z</time>
      </trkpt>
      <trkpt lat="45.58945" lon="5.97188">
        <ele>548.5693359</ele>
        <time>2011-02-06T09:53:28Z</time>
      </trkpt>
      <trkpt lat="45.5895" lon="5.97185">
        <ele>552.4145508</ele>
        <time>2011-02-06T09:53:31Z</time>
      </trkpt>
      <trkpt lat="45.58954" lon="5.97179">
        <ele>554.8178711</ele>
        <time>2011-02-06T09:53:34Z</time>
      </trkpt>
      <trkpt lat="45.58957" lon="5.97175">
        <ele>557.7021484</ele>
        <time>2011-02-06T09:53:37Z</time>
      </trkpt>
      <trkpt lat="45.58961" lon="5.97169">
        <ele>560.5859375</ele>
        <time>2011-02-06T09:53:41Z</time>
      </trkpt>
      <trkpt lat="45.58965" lon="5.97164">
        <ele>560.5859375</ele>
        <time>2011-02-06T09:53:44Z</time>
      </trkpt>
      <trkpt lat="45.5897" lon="5.9716">
        <ele>560.5859375</ele>
        <time>2011-02-06T09:53:47Z</time>
      </trkpt>
      <trkpt lat="45.58975" lon="5.97156">
        <ele>562.9892578</ele>
        <time>2011-02-06T09:53:50Z</time>
      </trkpt>
      <trkpt lat="45.58979" lon="5.97153">
        <ele>560.5859375</ele>
        <time>2011-02-06T09:53:53Z</time>
      </trkpt>
      <trkpt lat="45.58984" lon="5.9715">
        <ele>558.1828613</ele>
        <time>2011-02-06T09:53:56Z</time>
      </trkpt>
      <trkpt lat="45.58988" lon="5.97148">
        <ele>554.8178711</ele>
        <time>2011-02-06T09:53:59Z</time>
      </trkpt>
      <trkpt lat="45.58992" lon="5.97143">
        <ele>551.934082</ele>
        <time>2011-02-06T09:54:02Z</time>
      </trkpt>
      <trkpt lat="45.58996" lon="5.97141">
        <ele>550.4921875</ele>
        <time>2011-02-06T09:54:05Z</time>
      </trkpt>
      <trkpt lat="45.58998" lon="5.97139">
        <ele>550.4921875</ele>
        <time>2011-02-06T09:54:06Z</time>
      </trkpt>
      <trkpt lat="45.59002" lon="5.97133">
        <ele>550.0114746</ele>
        <time>2011-02-06T09:54:10Z</time>
      </trkpt>
      <trkpt lat="45.59005" lon="5.97132">
        <ele>547.6081543</ele>
        <time>2011-02-06T09:54:12Z</time>
      </trkpt>
      <trkpt lat="45.59012" lon="5.97129">
        <ele>545.204834</ele>
        <time>2011-02-06T09:54:18Z</time>
      </trkpt>
      <trkpt lat="45.59015" lon="5.97126">
        <ele>547.6081543</ele>
        <time>2011-02-06T09:54:22Z</time>
      </trkpt>
      <trkpt lat="45.5902" lon="5.97123">
        <ele>552.8952637</ele>
        <time>2011-02-06T09:54:26Z</time>
      </trkpt>
      <trkpt lat="45.59025" lon="5.97121">
        <ele>559.6247559</ele>
        <time>2011-02-06T09:54:31Z</time>
      </trkpt>
      <trkpt lat="45.59029" lon="5.97119">
        <ele>564.9118652</ele>
        <time>2011-02-06T09:54:35Z</time>
      </trkpt>
      <trkpt lat="45.59029" lon="5.97106">
        <ele>565.3925781</ele>
        <time>2011-02-06T09:54:40Z</time>
      </trkpt>
      <trkpt lat="45.59032" lon="5.97098">
        <ele>564.4311523</ele>
        <time>2011-02-06T09:54:46Z</time>
      </trkpt>
      <trkpt lat="45.59031" lon="5.97091">
        <ele>565.873291</ele>
        <time>2011-02-06T09:54:50Z</time>
      </trkpt>
      <trkpt lat="45.59027" lon="5.97085">
        <ele>566.8344727</ele>
        <time>2011-02-06T09:54:54Z</time>
      </trkpt>
      <trkpt lat="45.59025" lon="5.97079">
        <ele>568.2763672</ele>
        <time>2011-02-06T09:54:58Z</time>
      </trkpt>
      <trkpt lat="45.59022" lon="5.97076">
        <ele>569.7185059</ele>
        <time>2011-02-06T09:55:02Z</time>
      </trkpt>
      <trkpt lat="45.59019" lon="5.97075">
        <ele>571.1604004</ele>
        <time>2011-02-06T09:55:06Z</time>
      </trkpt>
      <trkpt lat="45.59015" lon="5.97074">
        <ele>574.5251465</ele>
        <time>2011-02-06T09:55:10Z</time>
      </trkpt>
      <trkpt lat="45.59009" lon="5.97075">
        <ele>577.8896484</ele>
        <time>2011-02-06T09:55:14Z</time>
      </trkpt>
      <trkpt lat="45.59002" lon="5.97077">
        <ele>582.2155762</ele>
        <time>2011-02-06T09:55:18Z</time>
      </trkpt>
      <trkpt lat="45.58997" lon="5.97077">
        <ele>586.5415039</ele>
        <time>2011-02-06T09:55:22Z</time>
      </trkpt>
      <trkpt lat="45.58996" lon="5.97077">
        <ele>586.5415039</ele>
        <time>2011-02-06T09:55:23Z</time>
      </trkpt>
      <trkpt lat="45.58991" lon="5.97072">
        <ele>587.0219727</ele>
        <time>2011-02-06T09:55:27Z</time>
      </trkpt>
      <trkpt lat="45.58988" lon="5.97068">
        <ele>586.060791</ele>
        <time>2011-02-06T09:55:31Z</time>
      </trkpt>
      <trkpt lat="45.58982" lon="5.97065">
        <ele>587.0219727</ele>
        <time>2011-02-06T09:55:35Z</time>
      </trkpt>
      <trkpt lat="45.58978" lon="5.97065">
        <ele>588.4643555</ele>
        <time>2011-02-06T09:55:38Z</time>
      </trkpt>
      <trkpt lat="45.58974" lon="5.97062">
        <ele>587.5026855</ele>
        <time>2011-02-06T09:55:42Z</time>
      </trkpt>
      <trkpt lat="45.58966" lon="5.9706">
        <ele>589.90625</ele>
        <time>2011-02-06T09:55:46Z</time>
      </trkpt>
      <trkpt lat="45.58961" lon="5.97059">
        <ele>591.3481445</ele>
        <time>2011-02-06T09:55:49Z</time>
      </trkpt>
      <trkpt lat="45.58956" lon="5.97056">
        <ele>590.8674316</ele>
        <time>2011-02-06T09:55:53Z</time>
      </trkpt>
      <trkpt lat="45.58952" lon="5.97052">
        <ele>590.3869629</ele>
        <time>2011-02-06T09:55:56Z</time>
      </trkpt>
      <trkpt lat="45.58948" lon="5.97051">
        <ele>590.8674316</ele>
        <time>2011-02-06T09:55:59Z</time>
      </trkpt>
      <trkpt lat="45.58943" lon="5.97048">
        <ele>591.3481445</ele>
        <time>2011-02-06T09:56:02Z</time>
      </trkpt>
      <trkpt lat="45.58942" lon="5.97047">
        <ele>591.3481445</ele>
        <time>2011-02-06T09:56:03Z</time>
      </trkpt>
      <trkpt lat="45.58938" lon="5.97044">
        <ele>591.3481445</ele>
        <time>2011-02-06T09:56:06Z</time>
      </trkpt>
      <trkpt lat="45.58934" lon="5.97041">
        <ele>591.3481445</ele>
        <time>2011-02-06T09:56:09Z</time>
      </trkpt>
      <trkpt lat="45.5893" lon="5.97038">
        <ele>591.8288574</ele>
        <time>2011-02-06T09:56:12Z</time>
      </trkpt>
      <trkpt lat="45.58928" lon="5.97035">
        <ele>591.3481445</ele>
        <time>2011-02-06T09:56:15Z</time>
      </trkpt>
      <trkpt lat="45.58926" lon="5.97031">
        <ele>591.3481445</ele>
        <time>2011-02-06T09:56:19Z</time>
      </trkpt>
      <trkpt lat="45.58928" lon="5.97024">
        <ele>590.8674316</ele>
        <time>2011-02-06T09:56:23Z</time>
      </trkpt>
      <trkpt lat="45.5893" lon="5.97017">
        <ele>589.4255371</ele>
        <time>2011-02-06T09:56:27Z</time>
      </trkpt>
      <trkpt lat="45.58934" lon="5.9701">
        <ele>590.8674316</ele>
        <time>2011-02-06T09:56:31Z</time>
      </trkpt>
      <trkpt lat="45.58934" lon="5.97002">
        <ele>592.7902832</ele>
        <time>2011-02-06T09:56:34Z</time>
      </trkpt>
      <trkpt lat="45.58935" lon="5.96997">
        <ele>595.1933594</ele>
        <time>2011-02-06T09:56:37Z</time>
      </trkpt>
      <trkpt lat="45.58936" lon="5.96992">
        <ele>598.5578613</ele>
        <time>2011-02-06T09:56:41Z</time>
      </trkpt>
      <trkpt lat="45.58939" lon="5.96987">
        <ele>599.5192871</ele>
        <time>2011-02-06T09:56:45Z</time>
      </trkpt>
      <trkpt lat="45.58943" lon="5.96982">
        <ele>594.2321777</ele>
        <time>2011-02-06T09:56:49Z</time>
      </trkpt>
      <trkpt lat="45.58946" lon="5.96976">
        <ele>588.9450684</ele>
        <time>2011-02-06T09:56:53Z</time>
      </trkpt>
      <trkpt lat="45.58951" lon="5.96968">
        <ele>593.270752</ele>
        <time>2011-02-06T09:56:57Z</time>
      </trkpt>
      <trkpt lat="45.58952" lon="5.96965">
        <ele>590.8674316</ele>
        <time>2011-02-06T09:57:02Z</time>
      </trkpt>
      <trkpt lat="45.58957" lon="5.96962">
        <ele>586.060791</ele>
        <time>2011-02-06T09:57:08Z</time>
      </trkpt>
      <trkpt lat="45.58962" lon="5.96962">
        <ele>584.1381836</ele>
        <time>2011-02-06T09:57:12Z</time>
      </trkpt>
      <trkpt lat="45.58968" lon="5.96963">
        <ele>584.1381836</ele>
        <time>2011-02-06T09:57:16Z</time>
      </trkpt>
      <trkpt lat="45.58975" lon="5.96966">
        <ele>584.6188965</ele>
        <time>2011-02-06T09:57:20Z</time>
      </trkpt>
      <trkpt lat="45.58979" lon="5.96966">
        <ele>584.6188965</ele>
        <time>2011-02-06T09:57:23Z</time>
      </trkpt>
      <trkpt lat="45.58984" lon="5.96965">
        <ele>582.2155762</ele>
        <time>2011-02-06T09:57:26Z</time>
      </trkpt>
      <trkpt lat="45.58988" lon="5.96967">
        <ele>582.2155762</ele>
        <time>2011-02-06T09:57:29Z</time>
      </trkpt>
      <trkpt lat="45.58994" lon="5.96968">
        <ele>581.2543945</ele>
        <time>2011-02-06T09:57:33Z</time>
      </trkpt>
      <trkpt lat="45.59" lon="5.96967">
        <ele>579.8122559</ele>
        <time>2011-02-06T09:57:37Z</time>
      </trkpt>
      <trkpt lat="45.59007" lon="5.96964">
        <ele>582.2155762</ele>
        <time>2011-02-06T09:57:41Z</time>
      </trkpt>
      <trkpt lat="45.59012" lon="5.96962">
        <ele>584.1381836</ele>
        <time>2011-02-06T09:57:44Z</time>
      </trkpt>
      <trkpt lat="45.5902" lon="5.96957">
        <ele>585.5800781</ele>
        <time>2011-02-06T09:57:48Z</time>
      </trkpt>
      <trkpt lat="45.59026" lon="5.96955">
        <ele>591.3481445</ele>
        <time>2011-02-06T09:57:51Z</time>
      </trkpt>
      <trkpt lat="45.59031" lon="5.96954">
        <ele>596.1547852</ele>
        <time>2011-02-06T09:57:54Z</time>
      </trkpt>
      <trkpt lat="45.59036" lon="5.96951">
        <ele>595.6740723</ele>
        <time>2011-02-06T09:57:57Z</time>
      </trkpt>
      <trkpt lat="45.59042" lon="5.9695">
        <ele>599.0385742</ele>
        <time>2011-02-06T09:58:00Z</time>
      </trkpt>
      <trkpt lat="45.59045" lon="5.96948">
        <ele>600.9611816</ele>
        <time>2011-02-06T09:58:03Z</time>
      </trkpt>
      <trkpt lat="45.59049" lon="5.96946">
        <ele>608.1713867</ele>
        <time>2011-02-06T09:58:05Z</time>
      </trkpt>
      <trkpt lat="45.59052" lon="5.96939">
        <ele>615.3811035</ele>
        <time>2011-02-06T09:58:09Z</time>
      </trkpt>
      <trkpt lat="45.59052" lon="5.96933">
        <ele>618.7456055</ele>
        <time>2011-02-06T09:58:12Z</time>
      </trkpt>
      <trkpt lat="45.59051" lon="5.96926">
        <ele>620.668457</ele>
        <time>2011-02-06T09:58:15Z</time>
      </trkpt>
      <trkpt lat="45.59051" lon="5.9692">
        <ele>622.5910645</ele>
        <time>2011-02-06T09:58:17Z</time>
      </trkpt>
      <trkpt lat="45.59051" lon="5.96909">
        <ele>626.9169922</ele>
        <time>2011-02-06T09:58:24Z</time>
      </trkpt>
      <trkpt lat="45.59053" lon="5.96903">
        <ele>632.2041016</ele>
        <time>2011-02-06T09:58:30Z</time>
      </trkpt>
      <trkpt lat="45.59057" lon="5.969">
        <ele>632.2041016</ele>
        <time>2011-02-06T09:58:34Z</time>
      </trkpt>
      <trkpt lat="45.59062" lon="5.96897">
        <ele>631.7233887</ele>
        <time>2011-02-06T09:58:38Z</time>
      </trkpt>
      <trkpt lat="45.59066" lon="5.96893">
        <ele>631.7233887</ele>
        <time>2011-02-06T09:58:41Z</time>
      </trkpt>
      <trkpt lat="45.59069" lon="5.96891">
        <ele>630.2814941</ele>
        <time>2011-02-06T09:58:43Z</time>
      </trkpt>
      <trkpt lat="45.59074" lon="5.96888">
        <ele>632.2041016</ele>
        <time>2011-02-06T09:58:47Z</time>
      </trkpt>
      <trkpt lat="45.59078" lon="5.96885">
        <ele>633.6459961</ele>
        <time>2011-02-06T09:58:50Z</time>
      </trkpt>
      <trkpt lat="45.59084" lon="5.96881">
        <ele>632.6848145</ele>
        <time>2011-02-06T09:58:54Z</time>
      </trkpt>
      <trkpt lat="45.59087" lon="5.96877">
        <ele>630.762207</ele>
        <time>2011-02-06T09:58:58Z</time>
      </trkpt>
      <trkpt lat="45.59092" lon="5.96872">
        <ele>632.2041016</ele>
        <time>2011-02-06T09:59:02Z</time>
      </trkpt>
      <trkpt lat="45.59095" lon="5.96867">
        <ele>640.3754883</ele>
        <time>2011-02-06T09:59:06Z</time>
      </trkpt>
      <trkpt lat="45.59098" lon="5.96862">
        <ele>646.6240234</ele>
        <time>2011-02-06T09:59:13Z</time>
      </trkpt>
      <trkpt lat="45.59098" lon="5.96855">
        <ele>649.9885254</ele>
        <time>2011-02-06T09:59:18Z</time>
      </trkpt>
      <trkpt lat="45.59096" lon="5.96845">
        <ele>650.4692383</ele>
        <time>2011-02-06T09:59:24Z</time>
      </trkpt>
      <trkpt lat="45.59093" lon="5.96841">
        <ele>649.5078125</ele>
        <time>2011-02-06T09:59:28Z</time>
      </trkpt>
      <trkpt lat="45.5909" lon="5.96839">
        <ele>648.5463867</ele>
        <time>2011-02-06T09:59:32Z</time>
      </trkpt>
      <trkpt lat="45.59085" lon="5.96837">
        <ele>649.5078125</ele>
        <time>2011-02-06T09:59:37Z</time>
      </trkpt>
      <trkpt lat="45.59077" lon="5.96833">
        <ele>649.9885254</ele>
        <time>2011-02-06T09:59:41Z</time>
      </trkpt>
      <trkpt lat="45.59072" lon="5.96828">
        <ele>650.949707</ele>
        <time>2011-02-06T09:59:45Z</time>
      </trkpt>
      <trkpt lat="45.59069" lon="5.96822">
        <ele>650.949707</ele>
        <time>2011-02-06T09:59:49Z</time>
      </trkpt>
      <trkpt lat="45.59068" lon="5.96816">
        <ele>652.8725586</ele>
        <time>2011-02-06T09:59:53Z</time>
      </trkpt>
      <trkpt lat="45.59066" lon="5.96806">
        <ele>655.7565918</ele>
        <time>2011-02-06T09:59:57Z</time>
      </trkpt>
      <trkpt lat="45.59065" lon="5.96797">
        <ele>658.1599121</ele>
        <time>2011-02-06T10:00:01Z</time>
      </trkpt>
      <trkpt lat="45.59069" lon="5.96791">
        <ele>654.3146973</ele>
        <time>2011-02-06T10:00:06Z</time>
      </trkpt>
      <trkpt lat="45.59072" lon="5.96786">
        <ele>655.2758789</ele>
        <time>2011-02-06T10:00:10Z</time>
      </trkpt>
      <trkpt lat="45.59072" lon="5.96784">
        <ele>657.1984863</ele>
        <time>2011-02-06T10:00:11Z</time>
      </trkpt>
      <trkpt lat="45.59071" lon="5.96777">
        <ele>660.5629883</ele>
        <time>2011-02-06T10:00:15Z</time>
      </trkpt>
      <trkpt lat="45.5907" lon="5.96771">
        <ele>662.4855957</ele>
        <time>2011-02-06T10:00:19Z</time>
      </trkpt>
      <trkpt lat="45.59067" lon="5.96763">
        <ele>664.4082031</ele>
        <time>2011-02-06T10:00:22Z</time>
      </trkpt>
      <trkpt lat="45.59066" lon="5.96753">
        <ele>667.7727051</ele>
        <time>2011-02-06T10:00:25Z</time>
      </trkpt>
      <trkpt lat="45.59066" lon="5.96741">
        <ele>669.2150879</ele>
        <time>2011-02-06T10:00:28Z</time>
      </trkpt>
      <trkpt lat="45.59065" lon="5.96734">
        <ele>672.5795898</ele>
        <time>2011-02-06T10:00:31Z</time>
      </trkpt>
      <trkpt lat="45.5906" lon="5.9672">
        <ele>669.2150879</ele>
        <time>2011-02-06T10:00:35Z</time>
      </trkpt>
      <trkpt lat="45.59054" lon="5.9671">
        <ele>672.098877</ele>
        <time>2011-02-06T10:00:38Z</time>
      </trkpt>
      <trkpt lat="45.59051" lon="5.96703">
        <ele>671.1376953</ele>
        <time>2011-02-06T10:00:41Z</time>
      </trkpt>
      <trkpt lat="45.5905" lon="5.967">
        <ele>671.6181641</ele>
        <time>2011-02-06T10:00:42Z</time>
      </trkpt>
      <trkpt lat="45.59047" lon="5.9669">
        <ele>673.0603027</ele>
        <time>2011-02-06T10:00:46Z</time>
      </trkpt>
      <trkpt lat="45.59046" lon="5.96684">
        <ele>673.0603027</ele>
        <time>2011-02-06T10:00:48Z</time>
      </trkpt>
      <trkpt lat="45.59042" lon="5.96674">
        <ele>674.0214844</ele>
        <time>2011-02-06T10:00:52Z</time>
      </trkpt>
      <trkpt lat="45.59038" lon="5.96669">
        <ele>671.1376953</ele>
        <time>2011-02-06T10:00:55Z</time>
      </trkpt>
      <trkpt lat="45.59032" lon="5.96658">
        <ele>668.2536621</ele>
        <time>2011-02-06T10:00:58Z</time>
      </trkpt>
      <trkpt lat="45.59027" lon="5.96649">
        <ele>664.888916</ele>
        <time>2011-02-06T10:01:01Z</time>
      </trkpt>
      <trkpt lat="45.59021" lon="5.9664">
        <ele>661.0437012</ele>
        <time>2011-02-06T10:01:04Z</time>
      </trkpt>
      <trkpt lat="45.59016" lon="5.96631">
        <ele>659.1210938</ele>
        <time>2011-02-06T10:01:07Z</time>
      </trkpt>
      <trkpt lat="45.59009" lon="5.96618">
        <ele>656.7177734</ele>
        <time>2011-02-06T10:01:11Z</time>
      </trkpt>
      <trkpt lat="45.59005" lon="5.96611">
        <ele>655.2758789</ele>
        <time>2011-02-06T10:01:13Z</time>
      </trkpt>
      <trkpt lat="45.58994" lon="5.96603">
        <ele>652.8725586</ele>
        <time>2011-02-06T10:01:17Z</time>
      </trkpt>
      <trkpt lat="45.58986" lon="5.96591">
        <ele>650.4692383</ele>
        <time>2011-02-06T10:01:21Z</time>
      </trkpt>
      <trkpt lat="45.58984" lon="5.9658">
        <ele>650.4692383</ele>
        <time>2011-02-06T10:01:24Z</time>
      </trkpt>
      <trkpt lat="45.58985" lon="5.96573">
        <ele>645.1818848</ele>
        <time>2011-02-06T10:01:27Z</time>
      </trkpt>
      <trkpt lat="45.58985" lon="5.96562">
        <ele>639.4140625</ele>
        <time>2011-02-06T10:01:30Z</time>
      </trkpt>
      <trkpt lat="45.58983" lon="5.96551">
        <ele>637.972168</ele>
        <time>2011-02-06T10:01:33Z</time>
      </trkpt>
      <trkpt lat="45.58983" lon="5.96539">
        <ele>637.4914551</ele>
        <time>2011-02-06T10:01:36Z</time>
      </trkpt>
      <trkpt lat="45.58978" lon="5.96526">
        <ele>637.0107422</ele>
        <time>2011-02-06T10:01:39Z</time>
      </trkpt>
      <trkpt lat="45.58971" lon="5.96509">
        <ele>637.972168</ele>
        <time>2011-02-06T10:01:43Z</time>
      </trkpt>
      <trkpt lat="45.58966" lon="5.96494">
        <ele>639.4140625</ele>
        <time>2011-02-06T10:01:46Z</time>
      </trkpt>
      <trkpt lat="45.58964" lon="5.96488">
        <ele>639.8947754</ele>
        <time>2011-02-06T10:01:47Z</time>
      </trkpt>
      <trkpt lat="45.58963" lon="5.96475">
        <ele>640.855957</ele>
        <time>2011-02-06T10:01:50Z</time>
      </trkpt>
      <trkpt lat="45.58962" lon="5.9647">
        <ele>641.3366699</ele>
        <time>2011-02-06T10:01:51Z</time>
      </trkpt>
      <trkpt lat="45.58957" lon="5.96458">
        <ele>642.2980957</ele>
        <time>2011-02-06T10:01:54Z</time>
      </trkpt>
      <trkpt lat="45.58954" lon="5.9645">
        <ele>642.2980957</ele>
        <time>2011-02-06T10:01:56Z</time>
      </trkpt>
      <trkpt lat="45.58952" lon="5.96434">
        <ele>642.2980957</ele>
        <time>2011-02-06T10:02:00Z</time>
      </trkpt>
      <trkpt lat="45.58949" lon="5.96421">
        <ele>641.8173828</ele>
        <time>2011-02-06T10:02:03Z</time>
      </trkpt>
      <trkpt lat="45.58943" lon="5.96403">
        <ele>639.4140625</ele>
        <time>2011-02-06T10:02:07Z</time>
      </trkpt>
      <trkpt lat="45.5894" lon="5.96394">
        <ele>639.8947754</ele>
        <time>2011-02-06T10:02:09Z</time>
      </trkpt>
      <trkpt lat="45.5894" lon="5.9639">
        <ele>640.3754883</ele>
        <time>2011-02-06T10:02:10Z</time>
      </trkpt>
      <trkpt lat="45.58936" lon="5.96378">
        <ele>640.855957</ele>
        <time>2011-02-06T10:02:13Z</time>
      </trkpt>
      <trkpt lat="45.58932" lon="5.96372">
        <ele>640.855957</ele>
        <time>2011-02-06T10:02:15Z</time>
      </trkpt>
      <trkpt lat="45.58928" lon="5.9636">
        <ele>640.855957</ele>
        <time>2011-02-06T10:02:18Z</time>
      </trkpt>
      <trkpt lat="45.58923" lon="5.96349">
        <ele>639.4140625</ele>
        <time>2011-02-06T10:02:21Z</time>
      </trkpt>
      <trkpt lat="45.58919" lon="5.96338">
        <ele>637.4914551</ele>
        <time>2011-02-06T10:02:24Z</time>
      </trkpt>
      <trkpt lat="45.58915" lon="5.96329">
        <ele>637.4914551</ele>
        <time>2011-02-06T10:02:26Z</time>
      </trkpt>
      <trkpt lat="45.58912" lon="5.96322">
        <ele>637.4914551</ele>
        <time>2011-02-06T10:02:28Z</time>
      </trkpt>
      <trkpt lat="45.5891" lon="5.96313">
        <ele>636.5302734</ele>
        <time>2011-02-06T10:02:30Z</time>
      </trkpt>
      <trkpt lat="45.58908" lon="5.96306">
        <ele>636.0495605</ele>
        <time>2011-02-06T10:02:32Z</time>
      </trkpt>
      <trkpt lat="45.58907" lon="5.96301">
        <ele>636.0495605</ele>
        <time>2011-02-06T10:02:33Z</time>
      </trkpt>
      <trkpt lat="45.58905" lon="5.96291">
        <ele>634.6074219</ele>
        <time>2011-02-06T10:02:36Z</time>
      </trkpt>
      <trkpt lat="45.58903" lon="5.9628">
        <ele>632.2041016</ele>
        <time>2011-02-06T10:02:39Z</time>
      </trkpt>
      <trkpt lat="45.58906" lon="5.96271">
        <ele>627.3977051</ele>
        <time>2011-02-06T10:02:41Z</time>
      </trkpt>
      <trkpt lat="45.58909" lon="5.96264">
        <ele>625.4748535</ele>
        <time>2011-02-06T10:02:43Z</time>
      </trkpt>
      <trkpt lat="45.58911" lon="5.96257">
        <ele>621.1491699</ele>
        <time>2011-02-06T10:02:45Z</time>
      </trkpt>
      <trkpt lat="45.58916" lon="5.96244">
        <ele>612.0166016</ele>
        <time>2011-02-06T10:02:48Z</time>
      </trkpt>
      <trkpt lat="45.5892" lon="5.96237">
        <ele>606.729248</ele>
        <time>2011-02-06T10:02:50Z</time>
      </trkpt>
      <trkpt lat="45.58923" lon="5.9623">
        <ele>602.8837891</ele>
        <time>2011-02-06T10:02:52Z</time>
      </trkpt>
      <trkpt lat="45.58926" lon="5.96218">
        <ele>598.5578613</ele>
        <time>2011-02-06T10:02:55Z</time>
      </trkpt>
      <trkpt lat="45.58928" lon="5.9621">
        <ele>597.1159668</ele>
        <time>2011-02-06T10:02:57Z</time>
      </trkpt>
      <trkpt lat="45.58931" lon="5.96202">
        <ele>595.1933594</ele>
        <time>2011-02-06T10:02:59Z</time>
      </trkpt>
      <trkpt lat="45.58933" lon="5.962">
        <ele>594.2321777</ele>
        <time>2011-02-06T10:03:00Z</time>
      </trkpt>
      <trkpt lat="45.58938" lon="5.96186">
        <ele>592.7902832</ele>
        <time>2011-02-06T10:03:04Z</time>
      </trkpt>
      <trkpt lat="45.58941" lon="5.96173">
        <ele>592.3095703</ele>
        <time>2011-02-06T10:03:07Z</time>
      </trkpt>
      <trkpt lat="45.58945" lon="5.96162">
        <ele>590.8674316</ele>
        <time>2011-02-06T10:03:10Z</time>
      </trkpt>
      <trkpt lat="45.5895" lon="5.96154">
        <ele>589.90625</ele>
        <time>2011-02-06T10:03:13Z</time>
      </trkpt>
      <trkpt lat="45.58951" lon="5.96141">
        <ele>591.3481445</ele>
        <time>2011-02-06T10:03:16Z</time>
      </trkpt>
      <trkpt lat="45.58951" lon="5.96133">
        <ele>592.3095703</ele>
        <time>2011-02-06T10:03:18Z</time>
      </trkpt>
      <trkpt lat="45.58951" lon="5.96119">
        <ele>589.4255371</ele>
        <time>2011-02-06T10:03:22Z</time>
      </trkpt>
      <trkpt lat="45.5895" lon="5.96104">
        <ele>587.0219727</ele>
        <time>2011-02-06T10:03:26Z</time>
      </trkpt>
      <trkpt lat="45.58953" lon="5.96093">
        <ele>584.1381836</ele>
        <time>2011-02-06T10:03:30Z</time>
      </trkpt>
      <trkpt lat="45.58959" lon="5.96082">
        <ele>580.2929688</ele>
        <time>2011-02-06T10:03:34Z</time>
      </trkpt>
      <trkpt lat="45.58964" lon="5.96076">
        <ele>575.4863281</ele>
        <time>2011-02-06T10:03:37Z</time>
      </trkpt>
      <trkpt lat="45.5897" lon="5.96067">
        <ele>571.6408691</ele>
        <time>2011-02-06T10:03:40Z</time>
      </trkpt>
      <trkpt lat="45.58973" lon="5.96061">
        <ele>569.237793</ele>
        <time>2011-02-06T10:03:42Z</time>
      </trkpt>
      <trkpt lat="45.58981" lon="5.96056">
        <ele>564.9118652</ele>
        <time>2011-02-06T10:03:46Z</time>
      </trkpt>
      <trkpt lat="45.58981" lon="5.96056">
        <ele>564.9118652</ele>
        <time>2011-02-06T10:03:46Z</time>
      </trkpt>
      <trkpt lat="45.58983" lon="5.96055">
        <ele>562.9892578</ele>
        <time>2011-02-06T10:03:47Z</time>
      </trkpt>
      <trkpt lat="45.58984" lon="5.96052">
        <ele>562.5085449</ele>
        <time>2011-02-06T10:03:48Z</time>
      </trkpt>
      <trkpt lat="45.58993" lon="5.96043">
        <ele>555.7792969</ele>
        <time>2011-02-06T10:03:53Z</time>
      </trkpt>
      <trkpt lat="45.59001" lon="5.96038">
        <ele>550.0114746</ele>
        <time>2011-02-06T10:03:56Z</time>
      </trkpt>
      <trkpt lat="45.59007" lon="5.96034">
        <ele>547.1274414</ele>
        <time>2011-02-06T10:03:58Z</time>
      </trkpt>
      <trkpt lat="45.59013" lon="5.96029">
        <ele>543.7628174</ele>
        <time>2011-02-06T10:04:00Z</time>
      </trkpt>
      <trkpt lat="45.59017" lon="5.96024">
        <ele>540.3983154</ele>
        <time>2011-02-06T10:04:02Z</time>
      </trkpt>
      <trkpt lat="45.59022" lon="5.96019">
        <ele>540.8789063</ele>
        <time>2011-02-06T10:04:04Z</time>
      </trkpt>
      <trkpt lat="45.59023" lon="5.96018">
        <ele>540.3983154</ele>
        <time>2011-02-06T10:04:05Z</time>
      </trkpt>
      <trkpt lat="45.59029" lon="5.96016">
        <ele>537.5142822</ele>
        <time>2011-02-06T10:04:08Z</time>
      </trkpt>
      <trkpt lat="45.59034" lon="5.96014">
        <ele>535.5915527</ele>
        <time>2011-02-06T10:04:10Z</time>
      </trkpt>
      <trkpt lat="45.5904" lon="5.96011">
        <ele>535.5915527</ele>
        <time>2011-02-06T10:04:12Z</time>
      </trkpt>
      <trkpt lat="45.59044" lon="5.9601">
        <ele>535.1109619</ele>
        <time>2011-02-06T10:04:13Z</time>
      </trkpt>
      <trkpt lat="45.59055" lon="5.96005">
        <ele>533.6689453</ele>
        <time>2011-02-06T10:04:17Z</time>
      </trkpt>
      <trkpt lat="45.59059" lon="5.96002">
        <ele>533.6689453</ele>
        <time>2011-02-06T10:04:19Z</time>
      </trkpt>
      <trkpt lat="45.59063" lon="5.95998">
        <ele>534.1496582</ele>
        <time>2011-02-06T10:04:21Z</time>
      </trkpt>
      <trkpt lat="45.59068" lon="5.95995">
        <ele>534.1496582</ele>
        <time>2011-02-06T10:04:23Z</time>
      </trkpt>
      <trkpt lat="45.59072" lon="5.95992">
        <ele>534.6303711</ele>
        <time>2011-02-06T10:04:25Z</time>
      </trkpt>
      <trkpt lat="45.59078" lon="5.95986">
        <ele>534.6303711</ele>
        <time>2011-02-06T10:04:28Z</time>
      </trkpt>
      <trkpt lat="45.59084" lon="5.95981">
        <ele>535.5915527</ele>
        <time>2011-02-06T10:04:31Z</time>
      </trkpt>
      <trkpt lat="45.5909" lon="5.95974">
        <ele>537.0336914</ele>
        <time>2011-02-06T10:04:34Z</time>
      </trkpt>
      <trkpt lat="45.59097" lon="5.95969">
        <ele>538.9562988</ele>
        <time>2011-02-06T10:04:37Z</time>
      </trkpt>
      <trkpt lat="45.59103" lon="5.95964">
        <ele>539.4368896</ele>
        <time>2011-02-06T10:04:40Z</time>
      </trkpt>
      <trkpt lat="45.5911" lon="5.95958">
        <ele>540.3983154</ele>
        <time>2011-02-06T10:04:43Z</time>
      </trkpt>
      <trkpt lat="45.59119" lon="5.95954">
        <ele>541.3594971</ele>
        <time>2011-02-06T10:04:46Z</time>
      </trkpt>
      <trkpt lat="45.59125" lon="5.95952">
        <ele>542.3209229</ele>
        <time>2011-02-06T10:04:48Z</time>
      </trkpt>
      <trkpt lat="45.59131" lon="5.95949">
        <ele>543.7628174</ele>
        <time>2011-02-06T10:04:50Z</time>
      </trkpt>
      <trkpt lat="45.59137" lon="5.95947">
        <ele>545.204834</ele>
        <time>2011-02-06T10:04:52Z</time>
      </trkpt>
      <trkpt lat="45.59143" lon="5.95949">
        <ele>545.6855469</ele>
        <time>2011-02-06T10:04:54Z</time>
      </trkpt>
      <trkpt lat="45.5915" lon="5.95952">
        <ele>545.6855469</ele>
        <time>2011-02-06T10:04:56Z</time>
      </trkpt>
      <trkpt lat="45.59154" lon="5.95951">
        <ele>546.6468506</ele>
        <time>2011-02-06T10:04:58Z</time>
      </trkpt>
      <trkpt lat="45.59159" lon="5.95949">
        <ele>548.5693359</ele>
        <time>2011-02-06T10:05:00Z</time>
      </trkpt>
      <trkpt lat="45.59165" lon="5.9595">
        <ele>550.0114746</ele>
        <time>2011-02-06T10:05:02Z</time>
      </trkpt>
      <trkpt lat="45.59169" lon="5.95949">
        <ele>549.5307617</ele>
        <time>2011-02-06T10:05:04Z</time>
      </trkpt>
      <trkpt lat="45.59173" lon="5.95946">
        <ele>550.0114746</ele>
        <time>2011-02-06T10:05:06Z</time>
      </trkpt>
      <trkpt lat="45.59177" lon="5.9594">
        <ele>552.8952637</ele>
        <time>2011-02-06T10:05:08Z</time>
      </trkpt>
      <trkpt lat="45.59184" lon="5.95937">
        <ele>554.3374023</ele>
        <time>2011-02-06T10:05:10Z</time>
      </trkpt>
      <trkpt lat="45.59188" lon="5.95935">
        <ele>554.3374023</ele>
        <time>2011-02-06T10:05:12Z</time>
      </trkpt>
      <trkpt lat="45.59193" lon="5.95928">
        <ele>556.7407227</ele>
        <time>2011-02-06T10:05:14Z</time>
      </trkpt>
      <trkpt lat="45.59195" lon="5.95927">
        <ele>557.2214355</ele>
        <time>2011-02-06T10:05:15Z</time>
      </trkpt>
      <trkpt lat="45.59201" lon="5.95917">
        <ele>561.0666504</ele>
        <time>2011-02-06T10:05:18Z</time>
      </trkpt>
      <trkpt lat="45.59204" lon="5.95916">
        <ele>562.9892578</ele>
        <time>2011-02-06T10:05:19Z</time>
      </trkpt>
      <trkpt lat="45.59213" lon="5.95908">
        <ele>571.1604004</ele>
        <time>2011-02-06T10:05:23Z</time>
      </trkpt>
      <trkpt lat="45.59222" lon="5.95906">
        <ele>573.083252</ele>
        <time>2011-02-06T10:05:26Z</time>
      </trkpt>
      <trkpt lat="45.5923" lon="5.95907">
        <ele>575.0058594</ele>
        <time>2011-02-06T10:05:29Z</time>
      </trkpt>
      <trkpt lat="45.59235" lon="5.95901">
        <ele>578.8510742</ele>
        <time>2011-02-06T10:05:32Z</time>
      </trkpt>
      <trkpt lat="45.59243" lon="5.95901">
        <ele>579.8122559</ele>
        <time>2011-02-06T10:05:35Z</time>
      </trkpt>
      <trkpt lat="45.59249" lon="5.95901">
        <ele>582.6962891</ele>
        <time>2011-02-06T10:05:38Z</time>
      </trkpt>
      <trkpt lat="45.59257" lon="5.95899">
        <ele>584.6188965</ele>
        <time>2011-02-06T10:05:41Z</time>
      </trkpt>
      <trkpt lat="45.59264" lon="5.959">
        <ele>584.6188965</ele>
        <time>2011-02-06T10:05:44Z</time>
      </trkpt>
      <trkpt lat="45.59273" lon="5.95909">
        <ele>580.2929688</ele>
        <time>2011-02-06T10:05:48Z</time>
      </trkpt>
      <trkpt lat="45.59281" lon="5.95907">
        <ele>575.0058594</ele>
        <time>2011-02-06T10:05:52Z</time>
      </trkpt>
      <trkpt lat="45.59292" lon="5.95898">
        <ele>572.1218262</ele>
        <time>2011-02-06T10:05:56Z</time>
      </trkpt>
      <trkpt lat="45.59299" lon="5.95896">
        <ele>570.6796875</ele>
        <time>2011-02-06T10:05:58Z</time>
      </trkpt>
      <trkpt lat="45.59305" lon="5.95894">
        <ele>570.6796875</ele>
        <time>2011-02-06T10:06:00Z</time>
      </trkpt>
      <trkpt lat="45.59312" lon="5.95897">
        <ele>568.7570801</ele>
        <time>2011-02-06T10:06:02Z</time>
      </trkpt>
      <trkpt lat="45.59319" lon="5.95899">
        <ele>567.3151855</ele>
        <time>2011-02-06T10:06:04Z</time>
      </trkpt>
      <trkpt lat="45.59324" lon="5.95894">
        <ele>566.8344727</ele>
        <time>2011-02-06T10:06:06Z</time>
      </trkpt>
      <trkpt lat="45.59338" lon="5.95905">
        <ele>569.7185059</ele>
        <time>2011-02-06T10:06:08Z</time>
      </trkpt>
      <trkpt lat="45.59344" lon="5.95895">
        <ele>571.6408691</ele>
        <time>2011-02-06T10:06:10Z</time>
      </trkpt>
      <trkpt lat="45.59349" lon="5.95887">
        <ele>572.1218262</ele>
        <time>2011-02-06T10:06:12Z</time>
      </trkpt>
      <trkpt lat="45.59353" lon="5.95882">
        <ele>571.6408691</ele>
        <time>2011-02-06T10:06:14Z</time>
      </trkpt>
      <trkpt lat="45.59357" lon="5.95876">
        <ele>573.083252</ele>
        <time>2011-02-06T10:06:16Z</time>
      </trkpt>
      <trkpt lat="45.59362" lon="5.95871">
        <ele>573.083252</ele>
        <time>2011-02-06T10:06:18Z</time>
      </trkpt>
      <trkpt lat="45.59367" lon="5.95866">
        <ele>573.5639648</ele>
        <time>2011-02-06T10:06:20Z</time>
      </trkpt>
      <trkpt lat="45.59372" lon="5.95864">
        <ele>573.083252</ele>
        <time>2011-02-06T10:06:22Z</time>
      </trkpt>
      <trkpt lat="45.59378" lon="5.95863">
        <ele>571.6408691</ele>
        <time>2011-02-06T10:06:24Z</time>
      </trkpt>
      <trkpt lat="45.59384" lon="5.95857">
        <ele>572.1218262</ele>
        <time>2011-02-06T10:06:27Z</time>
      </trkpt>
      <trkpt lat="45.59389" lon="5.95856">
        <ele>571.1604004</ele>
        <time>2011-02-06T10:06:30Z</time>
      </trkpt>
      <trkpt lat="45.59397" lon="5.95855">
        <ele>571.1604004</ele>
        <time>2011-02-06T10:06:34Z</time>
      </trkpt>
      <trkpt lat="45.59403" lon="5.95855">
        <ele>570.6796875</ele>
        <time>2011-02-06T10:06:37Z</time>
      </trkpt>
      <trkpt lat="45.5941" lon="5.95855">
        <ele>569.237793</ele>
        <time>2011-02-06T10:06:40Z</time>
      </trkpt>
      <trkpt lat="45.59419" lon="5.9585">
        <ele>569.237793</ele>
        <time>2011-02-06T10:06:44Z</time>
      </trkpt>
      <trkpt lat="45.59426" lon="5.95843">
        <ele>567.7956543</ele>
        <time>2011-02-06T10:06:47Z</time>
      </trkpt>
      <trkpt lat="45.59433" lon="5.95839">
        <ele>565.873291</ele>
        <time>2011-02-06T10:06:50Z</time>
      </trkpt>
      <trkpt lat="45.59439" lon="5.9583">
        <ele>564.9118652</ele>
        <time>2011-02-06T10:06:53Z</time>
      </trkpt>
      <trkpt lat="45.59447" lon="5.95817">
        <ele>569.7185059</ele>
        <time>2011-02-06T10:06:57Z</time>
      </trkpt>
      <trkpt lat="45.59454" lon="5.95815">
        <ele>569.237793</ele>
        <time>2011-02-06T10:07:01Z</time>
      </trkpt>
      <trkpt lat="45.59459" lon="5.95814">
        <ele>568.2763672</ele>
        <time>2011-02-06T10:07:03Z</time>
      </trkpt>
      <trkpt lat="45.59471" lon="5.9582">
        <ele>564.9118652</ele>
        <time>2011-02-06T10:07:07Z</time>
      </trkpt>
      <trkpt lat="45.59478" lon="5.95824">
        <ele>561.5473633</ele>
        <time>2011-02-06T10:07:10Z</time>
      </trkpt>
      <trkpt lat="45.5948" lon="5.95824">
        <ele>561.0666504</ele>
        <time>2011-02-06T10:07:11Z</time>
      </trkpt>
      <trkpt lat="45.59486" lon="5.95824">
        <ele>560.1052246</ele>
        <time>2011-02-06T10:07:15Z</time>
      </trkpt>
      <trkpt lat="45.59495" lon="5.95826">
        <ele>558.6633301</ele>
        <time>2011-02-06T10:07:18Z</time>
      </trkpt>
      <trkpt lat="45.59504" lon="5.95828">
        <ele>557.2214355</ele>
        <time>2011-02-06T10:07:22Z</time>
      </trkpt>
      <trkpt lat="45.59509" lon="5.9583">
        <ele>557.2214355</ele>
        <time>2011-02-06T10:07:24Z</time>
      </trkpt>
      <trkpt lat="45.59519" lon="5.95831">
        <ele>556.2600098</ele>
        <time>2011-02-06T10:07:28Z</time>
      </trkpt>
      <trkpt lat="45.59528" lon="5.95831">
        <ele>558.1828613</ele>
        <time>2011-02-06T10:07:31Z</time>
      </trkpt>
      <trkpt lat="45.59532" lon="5.95831">
        <ele>559.6247559</ele>
        <time>2011-02-06T10:07:33Z</time>
      </trkpt>
      <trkpt lat="45.59541" lon="5.95829">
        <ele>561.0666504</ele>
        <time>2011-02-06T10:07:37Z</time>
      </trkpt>
      <trkpt lat="45.59545" lon="5.95827">
        <ele>562.5085449</ele>
        <time>2011-02-06T10:07:39Z</time>
      </trkpt>
      <trkpt lat="45.59556" lon="5.95825">
        <ele>563.4699707</ele>
        <time>2011-02-06T10:07:43Z</time>
      </trkpt>
      <trkpt lat="45.59566" lon="5.95822">
        <ele>564.9118652</ele>
        <time>2011-02-06T10:07:46Z</time>
      </trkpt>
      <trkpt lat="45.59573" lon="5.95822">
        <ele>565.3925781</ele>
        <time>2011-02-06T10:07:49Z</time>
      </trkpt>
      <trkpt lat="45.5958" lon="5.95819">
        <ele>564.9118652</ele>
        <time>2011-02-06T10:07:52Z</time>
      </trkpt>
      <trkpt lat="45.59587" lon="5.95816">
        <ele>564.4311523</ele>
        <time>2011-02-06T10:07:55Z</time>
      </trkpt>
      <trkpt lat="45.59596" lon="5.95818">
        <ele>564.4311523</ele>
        <time>2011-02-06T10:07:58Z</time>
      </trkpt>
      <trkpt lat="45.59599" lon="5.95819">
        <ele>565.3925781</ele>
        <time>2011-02-06T10:07:59Z</time>
      </trkpt>
      <trkpt lat="45.59607" lon="5.95812">
        <ele>566.3537598</ele>
        <time>2011-02-06T10:08:03Z</time>
      </trkpt>
      <trkpt lat="45.59613" lon="5.95806">
        <ele>567.3151855</ele>
        <time>2011-02-06T10:08:06Z</time>
      </trkpt>
      <trkpt lat="45.59617" lon="5.95801">
        <ele>570.6796875</ele>
        <time>2011-02-06T10:08:09Z</time>
      </trkpt>
      <trkpt lat="45.59618" lon="5.95795">
        <ele>575.4863281</ele>
        <time>2011-02-06T10:08:11Z</time>
      </trkpt>
      <trkpt lat="45.59624" lon="5.95787">
        <ele>581.2543945</ele>
        <time>2011-02-06T10:08:15Z</time>
      </trkpt>
      <trkpt lat="45.5963" lon="5.95782">
        <ele>585.0996094</ele>
        <time>2011-02-06T10:08:18Z</time>
      </trkpt>
      <trkpt lat="45.59635" lon="5.95774">
        <ele>593.7514648</ele>
        <time>2011-02-06T10:08:21Z</time>
      </trkpt>
      <trkpt lat="45.5964" lon="5.95767">
        <ele>604.8066406</ele>
        <time>2011-02-06T10:08:24Z</time>
      </trkpt>
      <trkpt lat="45.59644" lon="5.95766">
        <ele>612.9777832</ele>
        <time>2011-02-06T10:08:26Z</time>
      </trkpt>
      <trkpt lat="45.5965" lon="5.95759">
        <ele>627.8781738</ele>
        <time>2011-02-06T10:08:31Z</time>
      </trkpt>
      <trkpt lat="45.59655" lon="5.95751">
        <ele>638.4528809</ele>
        <time>2011-02-06T10:08:36Z</time>
      </trkpt>
      <trkpt lat="45.59656" lon="5.95745">
        <ele>641.8173828</ele>
        <time>2011-02-06T10:08:40Z</time>
      </trkpt>
      <trkpt lat="45.59655" lon="5.95744">
        <ele>640.855957</ele>
        <time>2011-02-06T10:08:41Z</time>
      </trkpt>
      <trkpt lat="45.59653" lon="5.9574">
        <ele>641.3366699</ele>
        <time>2011-02-06T10:08:45Z</time>
      </trkpt>
      <trkpt lat="45.59652" lon="5.95736">
        <ele>640.855957</ele>
        <time>2011-02-06T10:08:47Z</time>
      </trkpt>
      <trkpt lat="45.5965" lon="5.9573">
        <ele>642.2980957</ele>
        <time>2011-02-06T10:08:51Z</time>
      </trkpt>
      <trkpt lat="45.59647" lon="5.95724">
        <ele>641.8173828</ele>
        <time>2011-02-06T10:08:54Z</time>
      </trkpt>
      <trkpt lat="45.59644" lon="5.95718">
        <ele>643.2592773</ele>
        <time>2011-02-06T10:08:57Z</time>
      </trkpt>
      <trkpt lat="45.59643" lon="5.95709">
        <ele>645.1818848</ele>
        <time>2011-02-06T10:09:01Z</time>
      </trkpt>
      <trkpt lat="45.59641" lon="5.95701">
        <ele>645.1818848</ele>
        <time>2011-02-06T10:09:04Z</time>
      </trkpt>
      <trkpt lat="45.59638" lon="5.95695">
        <ele>645.1818848</ele>
        <time>2011-02-06T10:09:07Z</time>
      </trkpt>
      <trkpt lat="45.59637" lon="5.95688">
        <ele>644.7011719</ele>
        <time>2011-02-06T10:09:10Z</time>
      </trkpt>
      <trkpt lat="45.59631" lon="5.95676">
        <ele>646.1433105</ele>
        <time>2011-02-06T10:09:13Z</time>
      </trkpt>
      <trkpt lat="45.59627" lon="5.95671">
        <ele>646.6240234</ele>
        <time>2011-02-06T10:09:16Z</time>
      </trkpt>
      <trkpt lat="45.59624" lon="5.95667">
        <ele>645.6625977</ele>
        <time>2011-02-06T10:09:19Z</time>
      </trkpt>
      <trkpt lat="45.59622" lon="5.95663">
        <ele>646.6240234</ele>
        <time>2011-02-06T10:09:21Z</time>
      </trkpt>
      <trkpt lat="45.59617" lon="5.95656">
        <ele>647.1044922</ele>
        <time>2011-02-06T10:09:25Z</time>
      </trkpt>
      <trkpt lat="45.59616" lon="5.9565">
        <ele>646.6240234</ele>
        <time>2011-02-06T10:09:28Z</time>
      </trkpt>
      <trkpt lat="45.59615" lon="5.95644">
        <ele>647.1044922</ele>
        <time>2011-02-06T10:09:31Z</time>
      </trkpt>
      <trkpt lat="45.59616" lon="5.95635">
        <ele>646.1433105</ele>
        <time>2011-02-06T10:09:35Z</time>
      </trkpt>
      <trkpt lat="45.59616" lon="5.95628">
        <ele>646.6240234</ele>
        <time>2011-02-06T10:09:38Z</time>
      </trkpt>
      <trkpt lat="45.59618" lon="5.95621">
        <ele>646.1433105</ele>
        <time>2011-02-06T10:09:41Z</time>
      </trkpt>
      <trkpt lat="45.5962" lon="5.95613">
        <ele>646.6240234</ele>
        <time>2011-02-06T10:09:44Z</time>
      </trkpt>
      <trkpt lat="45.59625" lon="5.95611">
        <ele>647.1044922</ele>
        <time>2011-02-06T10:09:47Z</time>
      </trkpt>
      <trkpt lat="45.59632" lon="5.95612">
        <ele>649.5078125</ele>
        <time>2011-02-06T10:09:51Z</time>
      </trkpt>
      <trkpt lat="45.59638" lon="5.95615">
        <ele>650.4692383</ele>
        <time>2011-02-06T10:09:54Z</time>
      </trkpt>
      <trkpt lat="45.59643" lon="5.95616">
        <ele>648.5463867</ele>
        <time>2011-02-06T10:09:58Z</time>
      </trkpt>
      <trkpt lat="45.59651" lon="5.95617">
        <ele>649.0270996</ele>
        <time>2011-02-06T10:10:02Z</time>
      </trkpt>
      <trkpt lat="45.59659" lon="5.95618">
        <ele>646.1433105</ele>
        <time>2011-02-06T10:10:06Z</time>
      </trkpt>
      <trkpt lat="45.59664" lon="5.95619">
        <ele>645.6625977</ele>
        <time>2011-02-06T10:10:10Z</time>
      </trkpt>
      <trkpt lat="45.59672" lon="5.95617">
        <ele>648.5463867</ele>
        <time>2011-02-06T10:10:14Z</time>
      </trkpt>
      <trkpt lat="45.59675" lon="5.95614">
        <ele>654.3146973</ele>
        <time>2011-02-06T10:10:17Z</time>
      </trkpt>
      <trkpt lat="45.5968" lon="5.95609">
        <ele>660.5629883</ele>
        <time>2011-02-06T10:10:21Z</time>
      </trkpt>
      <trkpt lat="45.59684" lon="5.95606">
        <ele>665.8503418</ele>
        <time>2011-02-06T10:10:24Z</time>
      </trkpt>
      <trkpt lat="45.59686" lon="5.956">
        <ele>667.7727051</ele>
        <time>2011-02-06T10:10:27Z</time>
      </trkpt>
      <trkpt lat="45.59687" lon="5.95598">
        <ele>668.2536621</ele>
        <time>2011-02-06T10:10:28Z</time>
      </trkpt>
      <trkpt lat="45.59687" lon="5.95595">
        <ele>669.6958008</ele>
        <time>2011-02-06T10:10:30Z</time>
      </trkpt>
      <trkpt lat="45.59687" lon="5.95595">
        <ele>669.6958008</ele>
        <time>2011-02-06T10:10:30Z</time>
      </trkpt>
      <trkpt lat="45.59688" lon="5.95591">
        <ele>671.6181641</ele>
        <time>2011-02-06T10:10:32Z</time>
      </trkpt>
      <trkpt lat="45.59689" lon="5.95585">
        <ele>675.9440918</ele>
        <time>2011-02-06T10:10:36Z</time>
      </trkpt>
      <trkpt lat="45.59691" lon="5.9558">
        <ele>678.828125</ele>
        <time>2011-02-06T10:10:40Z</time>
      </trkpt>
      <trkpt lat="45.59693" lon="5.95577">
        <ele>680.7507324</ele>
        <time>2011-02-06T10:10:44Z</time>
      </trkpt>
      <trkpt lat="45.59692" lon="5.95569">
        <ele>681.7119141</ele>
        <time>2011-02-06T10:10:48Z</time>
      </trkpt>
      <trkpt lat="45.59693" lon="5.95563">
        <ele>680.7507324</ele>
        <time>2011-02-06T10:10:52Z</time>
      </trkpt>
      <trkpt lat="45.59694" lon="5.9556">
        <ele>681.7119141</ele>
        <time>2011-02-06T10:10:56Z</time>
      </trkpt>
      <trkpt lat="45.59698" lon="5.95556">
        <ele>681.7119141</ele>
        <time>2011-02-06T10:11:03Z</time>
      </trkpt>
      <trkpt lat="45.59698" lon="5.95552">
        <ele>681.2314453</ele>
        <time>2011-02-06T10:11:08Z</time>
      </trkpt>
      <trkpt lat="45.59697" lon="5.95547">
        <ele>680.2700195</ele>
        <time>2011-02-06T10:11:13Z</time>
      </trkpt>
      <trkpt lat="45.59695" lon="5.95541">
        <ele>679.7893066</ele>
        <time>2011-02-06T10:11:17Z</time>
      </trkpt>
      <trkpt lat="45.59692" lon="5.95533">
        <ele>680.7507324</ele>
        <time>2011-02-06T10:11:22Z</time>
      </trkpt>
      <trkpt lat="45.59691" lon="5.95534">
        <ele>687.4799805</ele>
        <time>2011-02-06T10:11:26Z</time>
      </trkpt>
      <trkpt lat="45.59691" lon="5.95536">
        <ele>694.6896973</ele>
        <time>2011-02-06T10:11:30Z</time>
      </trkpt>
      <trkpt lat="45.59687" lon="5.9553">
        <ele>693.2478027</ele>
        <time>2011-02-06T10:11:34Z</time>
      </trkpt>
      <trkpt lat="45.59683" lon="5.95525">
        <ele>693.2478027</ele>
        <time>2011-02-06T10:11:37Z</time>
      </trkpt>
      <trkpt lat="45.59675" lon="5.95515">
        <ele>691.8059082</ele>
        <time>2011-02-06T10:11:41Z</time>
      </trkpt>
      <trkpt lat="45.5967" lon="5.9551">
        <ele>690.3640137</ele>
        <time>2011-02-06T10:11:43Z</time>
      </trkpt>
      <trkpt lat="45.59662" lon="5.95503">
        <ele>688.4414063</ele>
        <time>2011-02-06T10:11:47Z</time>
      </trkpt>
      <trkpt lat="45.59658" lon="5.95497">
        <ele>687.9606934</ele>
        <time>2011-02-06T10:11:50Z</time>
      </trkpt>
      <trkpt lat="45.59659" lon="5.95493">
        <ele>683.6345215</ele>
        <time>2011-02-06T10:11:51Z</time>
      </trkpt>
      <trkpt lat="45.59659" lon="5.95487">
        <ele>679.7893066</ele>
        <time>2011-02-06T10:11:55Z</time>
      </trkpt>
      <trkpt lat="45.5966" lon="5.9548">
        <ele>675.9440918</ele>
        <time>2011-02-06T10:11:59Z</time>
      </trkpt>
      <trkpt lat="45.59661" lon="5.95477">
        <ele>673.0603027</ele>
        <time>2011-02-06T10:12:00Z</time>
      </trkpt>
      <trkpt lat="45.59667" lon="5.95472">
        <ele>665.3696289</ele>
        <time>2011-02-06T10:12:04Z</time>
      </trkpt>
      <trkpt lat="45.59669" lon="5.95471">
        <ele>663.4470215</ele>
        <time>2011-02-06T10:12:05Z</time>
      </trkpt>
      <trkpt lat="45.59675" lon="5.95468">
        <ele>659.6018066</ele>
        <time>2011-02-06T10:12:09Z</time>
      </trkpt>
      <trkpt lat="45.59676" lon="5.95467">
        <ele>658.1599121</ele>
        <time>2011-02-06T10:12:10Z</time>
      </trkpt>
      <trkpt lat="45.59682" lon="5.95463">
        <ele>655.2758789</ele>
        <time>2011-02-06T10:12:14Z</time>
      </trkpt>
      <trkpt lat="45.59686" lon="5.95458">
        <ele>653.3532715</ele>
        <time>2011-02-06T10:12:17Z</time>
      </trkpt>
      <trkpt lat="45.59687" lon="5.95457">
        <ele>652.3918457</ele>
        <time>2011-02-06T10:12:18Z</time>
      </trkpt>
      <trkpt lat="45.5969" lon="5.95455">
        <ele>650.4692383</ele>
        <time>2011-02-06T10:12:20Z</time>
      </trkpt>
      <trkpt lat="45.59695" lon="5.95448">
        <ele>649.0270996</ele>
        <time>2011-02-06T10:12:24Z</time>
      </trkpt>
      <trkpt lat="45.59699" lon="5.95443">
        <ele>648.065918</ele>
        <time>2011-02-06T10:12:27Z</time>
      </trkpt>
      <trkpt lat="45.59701" lon="5.95443">
        <ele>649.0270996</ele>
        <time>2011-02-06T10:12:28Z</time>
      </trkpt>
      <trkpt lat="45.59709" lon="5.95438">
        <ele>655.7565918</ele>
        <time>2011-02-06T10:12:32Z</time>
      </trkpt>
      <trkpt lat="45.59713" lon="5.95433">
        <ele>658.1599121</ele>
        <time>2011-02-06T10:12:35Z</time>
      </trkpt>
      <trkpt lat="45.59717" lon="5.95429">
        <ele>661.0437012</ele>
        <time>2011-02-06T10:12:38Z</time>
      </trkpt>
      <trkpt lat="45.59721" lon="5.95424">
        <ele>662.4855957</ele>
        <time>2011-02-06T10:12:41Z</time>
      </trkpt>
      <trkpt lat="45.59724" lon="5.95422">
        <ele>663.9274902</ele>
        <time>2011-02-06T10:12:44Z</time>
      </trkpt>
      <trkpt lat="45.59727" lon="5.95419">
        <ele>663.4470215</ele>
        <time>2011-02-06T10:12:47Z</time>
      </trkpt>
      <trkpt lat="45.59733" lon="5.95416">
        <ele>658.1599121</ele>
        <time>2011-02-06T10:12:51Z</time>
      </trkpt>
      <trkpt lat="45.59738" lon="5.95412">
        <ele>658.6403809</ele>
        <time>2011-02-06T10:12:55Z</time>
      </trkpt>
      <trkpt lat="45.59743" lon="5.95409">
        <ele>662.9663086</ele>
        <time>2011-02-06T10:12:59Z</time>
      </trkpt>
      <trkpt lat="45.59748" lon="5.95406">
        <ele>665.3696289</ele>
        <time>2011-02-06T10:13:03Z</time>
      </trkpt>
      <trkpt lat="45.59752" lon="5.95402">
        <ele>668.2536621</ele>
        <time>2011-02-06T10:13:07Z</time>
      </trkpt>
      <trkpt lat="45.59758" lon="5.954">
        <ele>669.2150879</ele>
        <time>2011-02-06T10:13:11Z</time>
      </trkpt>
      <trkpt lat="45.59761" lon="5.95398">
        <ele>672.098877</ele>
        <time>2011-02-06T10:13:15Z</time>
      </trkpt>
      <trkpt lat="45.59764" lon="5.95396">
        <ele>678.828125</ele>
        <time>2011-02-06T10:13:19Z</time>
      </trkpt>
      <trkpt lat="45.59768" lon="5.95389">
        <ele>682.192627</ele>
        <time>2011-02-06T10:13:23Z</time>
      </trkpt>
      <trkpt lat="45.59771" lon="5.95385">
        <ele>686.9992676</ele>
        <time>2011-02-06T10:13:27Z</time>
      </trkpt>
      <trkpt lat="45.5978" lon="5.95381">
        <ele>684.1154785</ele>
        <time>2011-02-06T10:13:31Z</time>
      </trkpt>
      <trkpt lat="45.59785" lon="5.9538">
        <ele>685.0769043</ele>
        <time>2011-02-06T10:13:35Z</time>
      </trkpt>
      <trkpt lat="45.59792" lon="5.95382">
        <ele>687.9606934</ele>
        <time>2011-02-06T10:13:39Z</time>
      </trkpt>
      <trkpt lat="45.59796" lon="5.95383">
        <ele>692.2866211</ele>
        <time>2011-02-06T10:13:44Z</time>
      </trkpt>
      <trkpt lat="45.59796" lon="5.95387">
        <ele>693.7285156</ele>
        <time>2011-02-06T10:13:48Z</time>
      </trkpt>
      <trkpt lat="45.598" lon="5.95393">
        <ele>693.7285156</ele>
        <time>2011-02-06T10:13:52Z</time>
      </trkpt>
      <trkpt lat="45.59806" lon="5.95399">
        <ele>693.7285156</ele>
        <time>2011-02-06T10:13:56Z</time>
      </trkpt>
      <trkpt lat="45.59809" lon="5.95403">
        <ele>692.767334</ele>
        <time>2011-02-06T10:14:00Z</time>
      </trkpt>
      <trkpt lat="45.59813" lon="5.95408">
        <ele>687.9606934</ele>
        <time>2011-02-06T10:14:04Z</time>
      </trkpt>
      <trkpt lat="45.59815" lon="5.95414">
        <ele>685.557373</ele>
        <time>2011-02-06T10:14:08Z</time>
      </trkpt>
      <trkpt lat="45.59821" lon="5.95423">
        <ele>687.4799805</ele>
        <time>2011-02-06T10:14:15Z</time>
      </trkpt>
      <trkpt lat="45.59823" lon="5.95428">
        <ele>686.9992676</ele>
        <time>2011-02-06T10:14:19Z</time>
      </trkpt>
      <trkpt lat="45.59828" lon="5.95429">
        <ele>689.4025879</ele>
        <time>2011-02-06T10:14:23Z</time>
      </trkpt>
      <trkpt lat="45.59836" lon="5.95429">
        <ele>692.2866211</ele>
        <time>2011-02-06T10:14:27Z</time>
      </trkpt>
      <trkpt lat="45.59837" lon="5.95429">
        <ele>691.8059082</ele>
        <time>2011-02-06T10:14:28Z</time>
      </trkpt>
      <trkpt lat="45.59843" lon="5.95426">
        <ele>693.7285156</ele>
        <time>2011-02-06T10:14:32Z</time>
      </trkpt>
      <trkpt lat="45.59849" lon="5.95425">
        <ele>695.1704102</ele>
        <time>2011-02-06T10:14:36Z</time>
      </trkpt>
      <trkpt lat="45.5985" lon="5.95425">
        <ele>695.1704102</ele>
        <time>2011-02-06T10:14:37Z</time>
      </trkpt>
      <trkpt lat="45.59855" lon="5.95421">
        <ele>697.0930176</ele>
        <time>2011-02-06T10:14:41Z</time>
      </trkpt>
      <trkpt lat="45.59859" lon="5.95419">
        <ele>698.5349121</ele>
        <time>2011-02-06T10:14:44Z</time>
      </trkpt>
      <trkpt lat="45.59864" lon="5.95419">
        <ele>699.9770508</ele>
        <time>2011-02-06T10:14:48Z</time>
      </trkpt>
      <trkpt lat="45.59867" lon="5.95414">
        <ele>701.4191895</ele>
        <time>2011-02-06T10:14:53Z</time>
      </trkpt>
      <trkpt lat="45.59873" lon="5.95412">
        <ele>703.8225098</ele>
        <time>2011-02-06T10:14:57Z</time>
      </trkpt>
      <trkpt lat="45.59879" lon="5.95409">
        <ele>708.6289063</ele>
        <time>2011-02-06T10:15:01Z</time>
      </trkpt>
      <trkpt lat="45.59886" lon="5.95407">
        <ele>709.590332</ele>
        <time>2011-02-06T10:15:05Z</time>
      </trkpt>
      <trkpt lat="45.59891" lon="5.95406">
        <ele>709.1096191</ele>
        <time>2011-02-06T10:15:08Z</time>
      </trkpt>
      <trkpt lat="45.59893" lon="5.95404">
        <ele>709.590332</ele>
        <time>2011-02-06T10:15:10Z</time>
      </trkpt>
      <trkpt lat="45.59899" lon="5.95404">
        <ele>710.0708008</ele>
        <time>2011-02-06T10:15:14Z</time>
      </trkpt>
      <trkpt lat="45.59904" lon="5.95404">
        <ele>711.5129395</ele>
        <time>2011-02-06T10:15:17Z</time>
      </trkpt>
      <trkpt lat="45.5991" lon="5.95401">
        <ele>709.590332</ele>
        <time>2011-02-06T10:15:22Z</time>
      </trkpt>
      <trkpt lat="45.59915" lon="5.954">
        <ele>707.1870117</ele>
        <time>2011-02-06T10:15:25Z</time>
      </trkpt>
      <trkpt lat="45.59918" lon="5.95399">
        <ele>708.1484375</ele>
        <time>2011-02-06T10:15:27Z</time>
      </trkpt>
      <trkpt lat="45.59927" lon="5.95397">
        <ele>709.1096191</ele>
        <time>2011-02-06T10:15:33Z</time>
      </trkpt>
      <trkpt lat="45.59937" lon="5.95396">
        <ele>709.590332</ele>
        <time>2011-02-06T10:15:37Z</time>
      </trkpt>
      <trkpt lat="45.59944" lon="5.95393">
        <ele>710.5515137</ele>
        <time>2011-02-06T10:15:41Z</time>
      </trkpt>
      <trkpt lat="45.59946" lon="5.95393">
        <ele>711.5129395</ele>
        <time>2011-02-06T10:15:42Z</time>
      </trkpt>
      <trkpt lat="45.59954" lon="5.95392">
        <ele>713.4355469</ele>
        <time>2011-02-06T10:15:46Z</time>
      </trkpt>
      <trkpt lat="45.5996" lon="5.95391">
        <ele>714.8774414</ele>
        <time>2011-02-06T10:15:49Z</time>
      </trkpt>
      <trkpt lat="45.59964" lon="5.9539">
        <ele>715.3581543</ele>
        <time>2011-02-06T10:15:51Z</time>
      </trkpt>
      <trkpt lat="45.59972" lon="5.95393">
        <ele>716.3195801</ele>
        <time>2011-02-06T10:15:55Z</time>
      </trkpt>
      <trkpt lat="45.59979" lon="5.95394">
        <ele>713.4355469</ele>
        <time>2011-02-06T10:16:00Z</time>
      </trkpt>
      <trkpt lat="45.59988" lon="5.95394">
        <ele>715.3581543</ele>
        <time>2011-02-06T10:16:04Z</time>
      </trkpt>
      <trkpt lat="45.59992" lon="5.95394">
        <ele>711.5129395</ele>
        <time>2011-02-06T10:16:08Z</time>
      </trkpt>
      <trkpt lat="45.59996" lon="5.95394">
        <ele>709.590332</ele>
        <time>2011-02-06T10:16:11Z</time>
      </trkpt>
      <trkpt lat="45.60004" lon="5.95394">
        <ele>709.1096191</ele>
        <time>2011-02-06T10:16:16Z</time>
      </trkpt>
      <trkpt lat="45.60011" lon="5.95394">
        <ele>708.1484375</ele>
        <time>2011-02-06T10:16:20Z</time>
      </trkpt>
      <trkpt lat="45.60019" lon="5.95397">
        <ele>711.5129395</ele>
        <time>2011-02-06T10:16:24Z</time>
      </trkpt>
      <trkpt lat="45.60024" lon="5.95396">
        <ele>711.9936523</ele>
        <time>2011-02-06T10:16:28Z</time>
      </trkpt>
      <trkpt lat="45.60034" lon="5.95396">
        <ele>713.9160156</ele>
        <time>2011-02-06T10:16:32Z</time>
      </trkpt>
      <trkpt lat="45.60044" lon="5.95396">
        <ele>714.3967285</ele>
        <time>2011-02-06T10:16:36Z</time>
      </trkpt>
      <trkpt lat="45.60052" lon="5.95397">
        <ele>713.4355469</ele>
        <time>2011-02-06T10:16:40Z</time>
      </trkpt>
      <trkpt lat="45.6006" lon="5.95399">
        <ele>712.954834</ele>
        <time>2011-02-06T10:16:43Z</time>
      </trkpt>
      <trkpt lat="45.60067" lon="5.95401">
        <ele>713.9160156</ele>
        <time>2011-02-06T10:16:46Z</time>
      </trkpt>
      <trkpt lat="45.60074" lon="5.954">
        <ele>714.8774414</ele>
        <time>2011-02-06T10:16:49Z</time>
      </trkpt>
      <trkpt lat="45.60083" lon="5.954">
        <ele>715.8388672</ele>
        <time>2011-02-06T10:16:52Z</time>
      </trkpt>
      <trkpt lat="45.60092" lon="5.954">
        <ele>716.3195801</ele>
        <time>2011-02-06T10:16:55Z</time>
      </trkpt>
      <trkpt lat="45.601" lon="5.95398">
        <ele>717.7614746</ele>
        <time>2011-02-06T10:16:58Z</time>
      </trkpt>
      <trkpt lat="45.60108" lon="5.95399">
        <ele>719.2036133</ele>
        <time>2011-02-06T10:17:01Z</time>
      </trkpt>
      <trkpt lat="45.60113" lon="5.95402">
        <ele>720.6455078</ele>
        <time>2011-02-06T10:17:03Z</time>
      </trkpt>
      <trkpt lat="45.60122" lon="5.95402">
        <ele>722.5681152</ele>
        <time>2011-02-06T10:17:07Z</time>
      </trkpt>
      <trkpt lat="45.60125" lon="5.95402">
        <ele>724.0100098</ele>
        <time>2011-02-06T10:17:08Z</time>
      </trkpt>
      <trkpt lat="45.60134" lon="5.95404">
        <ele>723.0488281</ele>
        <time>2011-02-06T10:17:12Z</time>
      </trkpt>
      <trkpt lat="45.60137" lon="5.95406">
        <ele>722.5681152</ele>
        <time>2011-02-06T10:17:14Z</time>
      </trkpt>
      <trkpt lat="45.60148" lon="5.95408">
        <ele>724.4907227</ele>
        <time>2011-02-06T10:17:18Z</time>
      </trkpt>
      <trkpt lat="45.60153" lon="5.9541">
        <ele>722.0874023</ele>
        <time>2011-02-06T10:17:21Z</time>
      </trkpt>
      <trkpt lat="45.60161" lon="5.95413">
        <ele>717.7614746</ele>
        <time>2011-02-06T10:17:25Z</time>
      </trkpt>
      <trkpt lat="45.6017" lon="5.95416">
        <ele>718.2421875</ele>
        <time>2011-02-06T10:17:29Z</time>
      </trkpt>
      <trkpt lat="45.60179" lon="5.95419">
        <ele>718.2421875</ele>
        <time>2011-02-06T10:17:33Z</time>
      </trkpt>
      <trkpt lat="45.60187" lon="5.95416">
        <ele>721.6066895</ele>
        <time>2011-02-06T10:17:36Z</time>
      </trkpt>
      <trkpt lat="45.60194" lon="5.95416">
        <ele>723.529541</ele>
        <time>2011-02-06T10:17:39Z</time>
      </trkpt>
      <trkpt lat="45.60203" lon="5.95414">
        <ele>724.4907227</ele>
        <time>2011-02-06T10:17:42Z</time>
      </trkpt>
      <trkpt lat="45.6021" lon="5.95411">
        <ele>727.8552246</ele>
        <time>2011-02-06T10:17:45Z</time>
      </trkpt>
      <trkpt lat="45.60217" lon="5.95405">
        <ele>727.8552246</ele>
        <time>2011-02-06T10:17:48Z</time>
      </trkpt>
      <trkpt lat="45.60224" lon="5.95399">
        <ele>728.8166504</ele>
        <time>2011-02-06T10:17:52Z</time>
      </trkpt>
      <trkpt lat="45.60229" lon="5.95396">
        <ele>729.777832</ele>
        <time>2011-02-06T10:17:54Z</time>
      </trkpt>
      <trkpt lat="45.60238" lon="5.95393">
        <ele>729.2971191</ele>
        <time>2011-02-06T10:17:58Z</time>
      </trkpt>
      <trkpt lat="45.60243" lon="5.95389">
        <ele>730.2585449</ele>
        <time>2011-02-06T10:18:01Z</time>
      </trkpt>
      <trkpt lat="45.6025" lon="5.95385">
        <ele>730.7392578</ele>
        <time>2011-02-06T10:18:04Z</time>
      </trkpt>
      <trkpt lat="45.60256" lon="5.95381">
        <ele>730.2585449</ele>
        <time>2011-02-06T10:18:07Z</time>
      </trkpt>
      <trkpt lat="45.60265" lon="5.95378">
        <ele>728.3359375</ele>
        <time>2011-02-06T10:18:10Z</time>
      </trkpt>
      <trkpt lat="45.60275" lon="5.95376">
        <ele>727.3747559</ele>
        <time>2011-02-06T10:18:13Z</time>
      </trkpt>
      <trkpt lat="45.6028" lon="5.95375">
        <ele>725.9326172</ele>
        <time>2011-02-06T10:18:16Z</time>
      </trkpt>
      <trkpt lat="45.60285" lon="5.95377">
        <ele>725.9326172</ele>
        <time>2011-02-06T10:18:18Z</time>
      </trkpt>
      <trkpt lat="45.60292" lon="5.95376">
        <ele>724.9714355</ele>
        <time>2011-02-06T10:18:22Z</time>
      </trkpt>
      <trkpt lat="45.60303" lon="5.95376">
        <ele>726.894043</ele>
        <time>2011-02-06T10:18:25Z</time>
      </trkpt>
      <trkpt lat="45.60312" lon="5.95377">
        <ele>727.3747559</ele>
        <time>2011-02-06T10:18:28Z</time>
      </trkpt>
      <trkpt lat="45.60319" lon="5.95374">
        <ele>730.7392578</ele>
        <time>2011-02-06T10:18:31Z</time>
      </trkpt>
      <trkpt lat="45.60326" lon="5.95371">
        <ele>731.2199707</ele>
        <time>2011-02-06T10:18:34Z</time>
      </trkpt>
      <trkpt lat="45.60335" lon="5.95368">
        <ele>733.1425781</ele>
        <time>2011-02-06T10:18:37Z</time>
      </trkpt>
      <trkpt lat="45.60342" lon="5.95364">
        <ele>733.1425781</ele>
        <time>2011-02-06T10:18:40Z</time>
      </trkpt>
      <trkpt lat="45.60351" lon="5.95361">
        <ele>731.2199707</ele>
        <time>2011-02-06T10:18:43Z</time>
      </trkpt>
      <trkpt lat="45.60364" lon="5.95358">
        <ele>729.777832</ele>
        <time>2011-02-06T10:18:47Z</time>
      </trkpt>
      <trkpt lat="45.60373" lon="5.95357">
        <ele>727.8552246</ele>
        <time>2011-02-06T10:18:50Z</time>
      </trkpt>
      <trkpt lat="45.60376" lon="5.95356">
        <ele>727.8552246</ele>
        <time>2011-02-06T10:18:51Z</time>
      </trkpt>
      <trkpt lat="45.60384" lon="5.95358">
        <ele>726.4133301</ele>
        <time>2011-02-06T10:18:54Z</time>
      </trkpt>
      <trkpt lat="45.60394" lon="5.9536">
        <ele>726.4133301</ele>
        <time>2011-02-06T10:18:57Z</time>
      </trkpt>
      <trkpt lat="45.60399" lon="5.95361">
        <ele>727.3747559</ele>
        <time>2011-02-06T10:18:59Z</time>
      </trkpt>
      <trkpt lat="45.60404" lon="5.95364">
        <ele>726.4133301</ele>
        <time>2011-02-06T10:19:01Z</time>
      </trkpt>
      <trkpt lat="45.60409" lon="5.9537">
        <ele>724.0100098</ele>
        <time>2011-02-06T10:19:04Z</time>
      </trkpt>
      <trkpt lat="45.60413" lon="5.95376">
        <ele>721.1262207</ele>
        <time>2011-02-06T10:19:07Z</time>
      </trkpt>
      <trkpt lat="45.60415" lon="5.95379">
        <ele>719.6843262</ele>
        <time>2011-02-06T10:19:08Z</time>
      </trkpt>
      <trkpt lat="45.60415" lon="5.95379">
        <ele>719.6843262</ele>
        <time>2011-02-06T10:19:08Z</time>
      </trkpt>
      <trkpt lat="45.60422" lon="5.95382">
        <ele>718.7229004</ele>
        <time>2011-02-06T10:19:11Z</time>
      </trkpt>
      <trkpt lat="45.60426" lon="5.95384">
        <ele>722.0874023</ele>
        <time>2011-02-06T10:19:12Z</time>
      </trkpt>
      <trkpt lat="45.60435" lon="5.95389">
        <ele>723.529541</ele>
        <time>2011-02-06T10:19:16Z</time>
      </trkpt>
      <trkpt lat="45.60443" lon="5.95393">
        <ele>726.4133301</ele>
        <time>2011-02-06T10:19:19Z</time>
      </trkpt>
      <trkpt lat="45.60449" lon="5.95398">
        <ele>731.7004395</ele>
        <time>2011-02-06T10:19:22Z</time>
      </trkpt>
      <trkpt lat="45.60457" lon="5.95404">
        <ele>737.9492188</ele>
        <time>2011-02-06T10:19:25Z</time>
      </trkpt>
      <trkpt lat="45.60462" lon="5.95416">
        <ele>743.717041</ele>
        <time>2011-02-06T10:19:28Z</time>
      </trkpt>
      <trkpt lat="45.60466" lon="5.95426">
        <ele>745.6396484</ele>
        <time>2011-02-06T10:19:31Z</time>
      </trkpt>
      <trkpt lat="45.60469" lon="5.95432">
        <ele>749.4851074</ele>
        <time>2011-02-06T10:19:34Z</time>
      </trkpt>
      <trkpt lat="45.60472" lon="5.95441">
        <ele>753.8110352</ele>
        <time>2011-02-06T10:19:37Z</time>
      </trkpt>
      <trkpt lat="45.60474" lon="5.95446">
        <ele>758.6174316</ele>
        <time>2011-02-06T10:19:39Z</time>
      </trkpt>
      <trkpt lat="45.60475" lon="5.95455">
        <ele>763.4240723</ele>
        <time>2011-02-06T10:19:43Z</time>
      </trkpt>
      <trkpt lat="45.60476" lon="5.95457">
        <ele>764.8662109</ele>
        <time>2011-02-06T10:19:44Z</time>
      </trkpt>
      <trkpt lat="45.60482" lon="5.95465">
        <ele>768.2307129</ele>
        <time>2011-02-06T10:19:48Z</time>
      </trkpt>
      <trkpt lat="45.60485" lon="5.95467">
        <ele>771.1147461</ele>
        <time>2011-02-06T10:19:50Z</time>
      </trkpt>
      <trkpt lat="45.60492" lon="5.95478">
        <ele>771.1147461</ele>
        <time>2011-02-06T10:19:54Z</time>
      </trkpt>
      <trkpt lat="45.60496" lon="5.95483">
        <ele>768.7114258</ele>
        <time>2011-02-06T10:19:57Z</time>
      </trkpt>
      <trkpt lat="45.60501" lon="5.95482">
        <ele>772.5566406</ele>
        <time>2011-02-06T10:20:01Z</time>
      </trkpt>
      <trkpt lat="45.60507" lon="5.95488">
        <ele>774.9599609</ele>
        <time>2011-02-06T10:20:05Z</time>
      </trkpt>
      <trkpt lat="45.60515" lon="5.95506">
        <ele>774.9599609</ele>
        <time>2011-02-06T10:20:09Z</time>
      </trkpt>
      <trkpt lat="45.60517" lon="5.95507">
        <ele>777.3632813</ele>
        <time>2011-02-06T10:20:11Z</time>
      </trkpt>
      <trkpt lat="45.60518" lon="5.95503">
        <ele>776.8825684</ele>
        <time>2011-02-06T10:20:13Z</time>
      </trkpt>
      <trkpt lat="45.60524" lon="5.95498">
        <ele>775.4404297</ele>
        <time>2011-02-06T10:20:17Z</time>
      </trkpt>
      <trkpt lat="45.60528" lon="5.95494">
        <ele>774.479248</ele>
        <time>2011-02-06T10:20:20Z</time>
      </trkpt>
      <trkpt lat="45.6053" lon="5.95492">
        <ele>774.479248</ele>
        <time>2011-02-06T10:20:21Z</time>
      </trkpt>
      <trkpt lat="45.60536" lon="5.95488">
        <ele>773.9985352</ele>
        <time>2011-02-06T10:20:25Z</time>
      </trkpt>
      <trkpt lat="45.60541" lon="5.95489">
        <ele>770.1533203</ele>
        <time>2011-02-06T10:20:28Z</time>
      </trkpt>
      <trkpt lat="45.60547" lon="5.95489">
        <ele>763.904541</ele>
        <time>2011-02-06T10:20:32Z</time>
      </trkpt>
      <trkpt lat="45.60549" lon="5.95484">
        <ele>761.5014648</ele>
        <time>2011-02-06T10:20:36Z</time>
      </trkpt>
      <trkpt lat="45.60552" lon="5.9548">
        <ele>757.1755371</ele>
        <time>2011-02-06T10:20:42Z</time>
      </trkpt>
      <trkpt lat="45.60555" lon="5.95473">
        <ele>755.2529297</ele>
        <time>2011-02-06T10:20:49Z</time>
      </trkpt>
      <trkpt lat="45.60556" lon="5.95467">
        <ele>753.8110352</ele>
        <time>2011-02-06T10:20:54Z</time>
      </trkpt>
      <trkpt lat="45.60556" lon="5.95458">
        <ele>756.2141113</ele>
        <time>2011-02-06T10:20:58Z</time>
      </trkpt>
      <trkpt lat="45.60557" lon="5.95451">
        <ele>755.2529297</ele>
        <time>2011-02-06T10:21:02Z</time>
      </trkpt>
      <trkpt lat="45.6056" lon="5.95445">
        <ele>755.2529297</ele>
        <time>2011-02-06T10:21:06Z</time>
      </trkpt>
      <trkpt lat="45.6056" lon="5.95441">
        <ele>758.1369629</ele>
        <time>2011-02-06T10:21:07Z</time>
      </trkpt>
      <trkpt lat="45.60564" lon="5.95432">
        <ele>761.9821777</ele>
        <time>2011-02-06T10:21:11Z</time>
      </trkpt>
      <trkpt lat="45.60569" lon="5.95422">
        <ele>763.904541</ele>
        <time>2011-02-06T10:21:16Z</time>
      </trkpt>
      <trkpt lat="45.6057" lon="5.95418">
        <ele>763.4240723</ele>
        <time>2011-02-06T10:21:18Z</time>
      </trkpt>
      <trkpt lat="45.60574" lon="5.95408">
        <ele>766.3081055</ele>
        <time>2011-02-06T10:21:22Z</time>
      </trkpt>
      <trkpt lat="45.60578" lon="5.95402">
        <ele>768.7114258</ele>
        <time>2011-02-06T10:21:25Z</time>
      </trkpt>
      <trkpt lat="45.6058" lon="5.95395">
        <ele>769.1921387</ele>
        <time>2011-02-06T10:21:28Z</time>
      </trkpt>
      <trkpt lat="45.60584" lon="5.95388">
        <ele>772.5566406</ele>
        <time>2011-02-06T10:21:31Z</time>
      </trkpt>
      <trkpt lat="45.60585" lon="5.95387">
        <ele>772.0759277</ele>
        <time>2011-02-06T10:21:32Z</time>
      </trkpt>
      <trkpt lat="45.60591" lon="5.95383">
        <ele>773.5180664</ele>
        <time>2011-02-06T10:21:36Z</time>
      </trkpt>
      <trkpt lat="45.60595" lon="5.95381">
        <ele>774.9599609</ele>
        <time>2011-02-06T10:21:39Z</time>
      </trkpt>
      <trkpt lat="45.606" lon="5.95379">
        <ele>775.9211426</ele>
        <time>2011-02-06T10:21:43Z</time>
      </trkpt>
      <trkpt lat="45.60605" lon="5.95377">
        <ele>776.4018555</ele>
        <time>2011-02-06T10:21:47Z</time>
      </trkpt>
      <trkpt lat="45.60612" lon="5.95374">
        <ele>778.8051758</ele>
        <time>2011-02-06T10:21:51Z</time>
      </trkpt>
      <trkpt lat="45.60617" lon="5.95376">
        <ele>777.84375</ele>
        <time>2011-02-06T10:21:55Z</time>
      </trkpt>
      <trkpt lat="45.60623" lon="5.95372">
        <ele>778.8051758</ele>
        <time>2011-02-06T10:21:59Z</time>
      </trkpt>
      <trkpt lat="45.60631" lon="5.9537">
        <ele>782.1699219</ele>
        <time>2011-02-06T10:22:03Z</time>
      </trkpt>
      <trkpt lat="45.60636" lon="5.9537">
        <ele>781.689209</ele>
        <time>2011-02-06T10:22:06Z</time>
      </trkpt>
      <trkpt lat="45.60644" lon="5.95372">
        <ele>784.5732422</ele>
        <time>2011-02-06T10:22:12Z</time>
      </trkpt>
      <trkpt lat="45.60653" lon="5.95381">
        <ele>785.0539551</ele>
        <time>2011-02-06T10:22:19Z</time>
      </trkpt>
      <trkpt lat="45.6066" lon="5.95381">
        <ele>785.5344238</ele>
        <time>2011-02-06T10:22:27Z</time>
      </trkpt>
      <trkpt lat="45.60665" lon="5.95381">
        <ele>785.5344238</ele>
        <time>2011-02-06T10:22:31Z</time>
      </trkpt>
      <trkpt lat="45.60669" lon="5.95377">
        <ele>788.418457</ele>
        <time>2011-02-06T10:22:35Z</time>
      </trkpt>
      <trkpt lat="45.60674" lon="5.95375">
        <ele>789.8603516</ele>
        <time>2011-02-06T10:22:39Z</time>
      </trkpt>
      <trkpt lat="45.6068" lon="5.95376">
        <ele>789.3796387</ele>
        <time>2011-02-06T10:22:43Z</time>
      </trkpt>
      <trkpt lat="45.60685" lon="5.95375">
        <ele>792.2636719</ele>
        <time>2011-02-06T10:22:47Z</time>
      </trkpt>
      <trkpt lat="45.60689" lon="5.95378">
        <ele>792.2636719</ele>
        <time>2011-02-06T10:22:51Z</time>
      </trkpt>
      <trkpt lat="45.60693" lon="5.9538">
        <ele>793.2248535</ele>
        <time>2011-02-06T10:22:55Z</time>
      </trkpt>
      <trkpt lat="45.60695" lon="5.95381">
        <ele>794.666748</ele>
        <time>2011-02-06T10:22:59Z</time>
      </trkpt>
      <trkpt lat="45.60696" lon="5.95383">
        <ele>798.0317383</ele>
        <time>2011-02-06T10:23:03Z</time>
      </trkpt>
      <trkpt lat="45.60701" lon="5.95386">
        <ele>798.9929199</ele>
        <time>2011-02-06T10:23:09Z</time>
      </trkpt>
      <trkpt lat="45.60708" lon="5.95392">
        <ele>797.0703125</ele>
        <time>2011-02-06T10:23:15Z</time>
      </trkpt>
      <trkpt lat="45.60714" lon="5.95392">
        <ele>801.8769531</ele>
        <time>2011-02-06T10:23:20Z</time>
      </trkpt>
      <trkpt lat="45.60719" lon="5.95395">
        <ele>803.3188477</ele>
        <time>2011-02-06T10:23:24Z</time>
      </trkpt>
      <trkpt lat="45.60723" lon="5.95396">
        <ele>803.7995605</ele>
        <time>2011-02-06T10:23:28Z</time>
      </trkpt>
      <trkpt lat="45.60727" lon="5.95393">
        <ele>802.3574219</ele>
        <time>2011-02-06T10:23:31Z</time>
      </trkpt>
      <trkpt lat="45.60732" lon="5.95384">
        <ele>802.3574219</ele>
        <time>2011-02-06T10:23:35Z</time>
      </trkpt>
      <trkpt lat="45.60736" lon="5.95381">
        <ele>800.9155273</ele>
        <time>2011-02-06T10:23:37Z</time>
      </trkpt>
      <trkpt lat="45.6074" lon="5.95377">
        <ele>799.4736328</ele>
        <time>2011-02-06T10:23:40Z</time>
      </trkpt>
      <trkpt lat="45.60747" lon="5.95376">
        <ele>798.512207</ele>
        <time>2011-02-06T10:23:44Z</time>
      </trkpt>
      <trkpt lat="45.60754" lon="5.95375">
        <ele>797.0703125</ele>
        <time>2011-02-06T10:23:48Z</time>
      </trkpt>
      <trkpt lat="45.60758" lon="5.95371">
        <ele>796.5898438</ele>
        <time>2011-02-06T10:23:50Z</time>
      </trkpt>
      <trkpt lat="45.60766" lon="5.95364">
        <ele>796.1091309</ele>
        <time>2011-02-06T10:23:54Z</time>
      </trkpt>
      <trkpt lat="45.60771" lon="5.95362">
        <ele>795.1474609</ele>
        <time>2011-02-06T10:23:57Z</time>
      </trkpt>
      <trkpt lat="45.60776" lon="5.95359">
        <ele>794.1862793</ele>
        <time>2011-02-06T10:24:00Z</time>
      </trkpt>
      <trkpt lat="45.60783" lon="5.95356">
        <ele>794.666748</ele>
        <time>2011-02-06T10:24:03Z</time>
      </trkpt>
      <trkpt lat="45.6079" lon="5.95355">
        <ele>796.1091309</ele>
        <time>2011-02-06T10:24:07Z</time>
      </trkpt>
      <trkpt lat="45.60793" lon="5.95355">
        <ele>796.5898438</ele>
        <time>2011-02-06T10:24:08Z</time>
      </trkpt>
      <trkpt lat="45.608" lon="5.95355">
        <ele>800.4350586</ele>
        <time>2011-02-06T10:24:11Z</time>
      </trkpt>
      <trkpt lat="45.60804" lon="5.95356">
        <ele>803.3188477</ele>
        <time>2011-02-06T10:24:13Z</time>
      </trkpt>
      <trkpt lat="45.6081" lon="5.95358">
        <ele>805.2414551</ele>
        <time>2011-02-06T10:24:17Z</time>
      </trkpt>
      <trkpt lat="45.60818" lon="5.95354">
        <ele>813.8933105</ele>
        <time>2011-02-06T10:24:23Z</time>
      </trkpt>
      <trkpt lat="45.60824" lon="5.95352">
        <ele>813.8933105</ele>
        <time>2011-02-06T10:24:27Z</time>
      </trkpt>
      <trkpt lat="45.60828" lon="5.95348">
        <ele>812.451416</ele>
        <time>2011-02-06T10:24:31Z</time>
      </trkpt>
      <trkpt lat="45.6083" lon="5.9534">
        <ele>817.2580566</ele>
        <time>2011-02-06T10:24:35Z</time>
      </trkpt>
      <trkpt lat="45.60829" lon="5.95329">
        <ele>818.2192383</ele>
        <time>2011-02-06T10:24:39Z</time>
      </trkpt>
      <trkpt lat="45.60829" lon="5.95322">
        <ele>817.2580566</ele>
        <time>2011-02-06T10:24:42Z</time>
      </trkpt>
      <trkpt lat="45.60827" lon="5.95315">
        <ele>817.2580566</ele>
        <time>2011-02-06T10:24:45Z</time>
      </trkpt>
      <trkpt lat="45.60826" lon="5.95309">
        <ele>815.8161621</ele>
        <time>2011-02-06T10:24:47Z</time>
      </trkpt>
      <trkpt lat="45.60827" lon="5.953">
        <ele>814.3740234</ele>
        <time>2011-02-06T10:24:51Z</time>
      </trkpt>
      <trkpt lat="45.6083" lon="5.95294">
        <ele>812.9321289</ele>
        <time>2011-02-06T10:24:54Z</time>
      </trkpt>
      <trkpt lat="45.60831" lon="5.95293">
        <ele>812.9321289</ele>
        <time>2011-02-06T10:24:55Z</time>
      </trkpt>
      <trkpt lat="45.60838" lon="5.95287">
        <ele>814.8547363</ele>
        <time>2011-02-06T10:24:59Z</time>
      </trkpt>
      <trkpt lat="45.60839" lon="5.95286">
        <ele>814.8547363</ele>
        <time>2011-02-06T10:25:00Z</time>
      </trkpt>
      <trkpt lat="45.60844" lon="5.95281">
        <ele>817.7385254</ele>
        <time>2011-02-06T10:25:04Z</time>
      </trkpt>
      <trkpt lat="45.60848" lon="5.9528">
        <ele>818.6999512</ele>
        <time>2011-02-06T10:25:06Z</time>
      </trkpt>
      <trkpt lat="45.6085" lon="5.95276">
        <ele>820.6225586</ele>
        <time>2011-02-06T10:25:09Z</time>
      </trkpt>
      <trkpt lat="45.60854" lon="5.95281">
        <ele>822.545166</ele>
        <time>2011-02-06T10:25:13Z</time>
      </trkpt>
      <trkpt lat="45.60855" lon="5.95283">
        <ele>822.545166</ele>
        <time>2011-02-06T10:25:14Z</time>
      </trkpt>
      <trkpt lat="45.60853" lon="5.95291">
        <ele>823.9870605</ele>
        <time>2011-02-06T10:25:18Z</time>
      </trkpt>
      <trkpt lat="45.60852" lon="5.95297">
        <ele>825.909668</ele>
        <time>2011-02-06T10:25:21Z</time>
      </trkpt>
      <trkpt lat="45.60852" lon="5.95299">
        <ele>825.909668</ele>
        <time>2011-02-06T10:25:22Z</time>
      </trkpt>
      <trkpt lat="45.60856" lon="5.95301">
        <ele>827.8322754</ele>
        <time>2011-02-06T10:25:26Z</time>
      </trkpt>
      <trkpt lat="45.60861" lon="5.953">
        <ele>828.7939453</ele>
        <time>2011-02-06T10:25:30Z</time>
      </trkpt>
      <trkpt lat="45.60864" lon="5.953">
        <ele>829.755127</ele>
        <time>2011-02-06T10:25:33Z</time>
      </trkpt>
      <trkpt lat="45.60867" lon="5.953">
        <ele>830.7165527</ele>
        <time>2011-02-06T10:25:37Z</time>
      </trkpt>
      <trkpt lat="45.60871" lon="5.95299">
        <ele>831.6777344</ele>
        <time>2011-02-06T10:25:41Z</time>
      </trkpt>
      <trkpt lat="45.60875" lon="5.95297">
        <ele>832.1584473</ele>
        <time>2011-02-06T10:25:45Z</time>
      </trkpt>
      <trkpt lat="45.60878" lon="5.95297">
        <ele>832.6391602</ele>
        <time>2011-02-06T10:25:48Z</time>
      </trkpt>
      <trkpt lat="45.60882" lon="5.95298">
        <ele>834.0810547</ele>
        <time>2011-02-06T10:25:53Z</time>
      </trkpt>
      <trkpt lat="45.60885" lon="5.95296">
        <ele>835.0424805</ele>
        <time>2011-02-06T10:25:56Z</time>
      </trkpt>
      <trkpt lat="45.60888" lon="5.95296">
        <ele>836.0036621</ele>
        <time>2011-02-06T10:26:00Z</time>
      </trkpt>
      <trkpt lat="45.60891" lon="5.95296">
        <ele>836.9648438</ele>
        <time>2011-02-06T10:26:04Z</time>
      </trkpt>
      <trkpt lat="45.60895" lon="5.95295">
        <ele>837.4455566</ele>
        <time>2011-02-06T10:26:08Z</time>
      </trkpt>
      <trkpt lat="45.60899" lon="5.95296">
        <ele>838.4069824</ele>
        <time>2011-02-06T10:26:12Z</time>
      </trkpt>
      <trkpt lat="45.60902" lon="5.95297">
        <ele>839.3681641</ele>
        <time>2011-02-06T10:26:16Z</time>
      </trkpt>
      <trkpt lat="45.60904" lon="5.95299">
        <ele>839.848877</ele>
        <time>2011-02-06T10:26:20Z</time>
      </trkpt>
      <trkpt lat="45.60908" lon="5.953">
        <ele>841.2907715</ele>
        <time>2011-02-06T10:26:24Z</time>
      </trkpt>
      <trkpt lat="45.60912" lon="5.95301">
        <ele>842.7329102</ele>
        <time>2011-02-06T10:26:28Z</time>
      </trkpt>
      <trkpt lat="45.60916" lon="5.95301">
        <ele>843.6940918</ele>
        <time>2011-02-06T10:26:32Z</time>
      </trkpt>
      <trkpt lat="45.6092" lon="5.95303">
        <ele>845.6169434</ele>
        <time>2011-02-06T10:26:36Z</time>
      </trkpt>
      <trkpt lat="45.60921" lon="5.95304">
        <ele>846.0976563</ele>
        <time>2011-02-06T10:26:37Z</time>
      </trkpt>
      <trkpt lat="45.60926" lon="5.95304">
        <ele>846.5783691</ele>
        <time>2011-02-06T10:26:41Z</time>
      </trkpt>
      <trkpt lat="45.60929" lon="5.95305">
        <ele>848.0202637</ele>
        <time>2011-02-06T10:26:44Z</time>
      </trkpt>
      <trkpt lat="45.60935" lon="5.95306">
        <ele>851.3847656</ele>
        <time>2011-02-06T10:26:48Z</time>
      </trkpt>
      <trkpt lat="45.60939" lon="5.95306">
        <ele>853.307373</ele>
        <time>2011-02-06T10:26:51Z</time>
      </trkpt>
      <trkpt lat="45.60942" lon="5.95306">
        <ele>855.2299805</ele>
        <time>2011-02-06T10:26:54Z</time>
      </trkpt>
      <trkpt lat="45.60946" lon="5.95306">
        <ele>857.1525879</ele>
        <time>2011-02-06T10:26:57Z</time>
      </trkpt>
      <trkpt lat="45.60949" lon="5.95304">
        <ele>858.1140137</ele>
        <time>2011-02-06T10:27:00Z</time>
      </trkpt>
      <trkpt lat="45.60952" lon="5.95303">
        <ele>859.5559082</ele>
        <time>2011-02-06T10:27:03Z</time>
      </trkpt>
      <trkpt lat="45.60956" lon="5.95302">
        <ele>860.0366211</ele>
        <time>2011-02-06T10:27:06Z</time>
      </trkpt>
      <trkpt lat="45.60957" lon="5.95301">
        <ele>860.0366211</ele>
        <time>2011-02-06T10:27:07Z</time>
      </trkpt>
      <trkpt lat="45.60961" lon="5.95299">
        <ele>857.1525879</ele>
        <time>2011-02-06T10:27:12Z</time>
      </trkpt>
      <trkpt lat="45.60965" lon="5.95298">
        <ele>856.671875</ele>
        <time>2011-02-06T10:27:15Z</time>
      </trkpt>
      <trkpt lat="45.60969" lon="5.95296">
        <ele>856.671875</ele>
        <time>2011-02-06T10:27:18Z</time>
      </trkpt>
      <trkpt lat="45.60973" lon="5.95295">
        <ele>856.671875</ele>
        <time>2011-02-06T10:27:21Z</time>
      </trkpt>
      <trkpt lat="45.60977" lon="5.95295">
        <ele>857.6333008</ele>
        <time>2011-02-06T10:27:24Z</time>
      </trkpt>
      <trkpt lat="45.60982" lon="5.95294">
        <ele>858.1140137</ele>
        <time>2011-02-06T10:27:27Z</time>
      </trkpt>
      <trkpt lat="45.60986" lon="5.95294">
        <ele>858.5944824</ele>
        <time>2011-02-06T10:27:30Z</time>
      </trkpt>
      <trkpt lat="45.60989" lon="5.95295">
        <ele>859.5559082</ele>
        <time>2011-02-06T10:27:33Z</time>
      </trkpt>
      <trkpt lat="45.60993" lon="5.95297">
        <ele>859.5559082</ele>
        <time>2011-02-06T10:27:36Z</time>
      </trkpt>
      <trkpt lat="45.60997" lon="5.95299">
        <ele>860.0366211</ele>
        <time>2011-02-06T10:27:39Z</time>
      </trkpt>
      <trkpt lat="45.61" lon="5.953">
        <ele>860.517334</ele>
        <time>2011-02-06T10:27:42Z</time>
      </trkpt>
      <trkpt lat="45.61004" lon="5.95302">
        <ele>860.9980469</ele>
        <time>2011-02-06T10:27:45Z</time>
      </trkpt>
      <trkpt lat="45.61006" lon="5.95304">
        <ele>862.4399414</ele>
        <time>2011-02-06T10:27:48Z</time>
      </trkpt>
      <trkpt lat="45.61009" lon="5.95306">
        <ele>863.8818359</ele>
        <time>2011-02-06T10:27:51Z</time>
      </trkpt>
      <trkpt lat="45.61012" lon="5.95309">
        <ele>865.8046875</ele>
        <time>2011-02-06T10:27:54Z</time>
      </trkpt>
      <trkpt lat="45.61014" lon="5.95313">
        <ele>867.7270508</ele>
        <time>2011-02-06T10:27:57Z</time>
      </trkpt>
      <trkpt lat="45.61017" lon="5.95316">
        <ele>868.6884766</ele>
        <time>2011-02-06T10:28:00Z</time>
      </trkpt>
      <trkpt lat="45.61019" lon="5.95319">
        <ele>869.6499023</ele>
        <time>2011-02-06T10:28:03Z</time>
      </trkpt>
      <trkpt lat="45.61021" lon="5.95323">
        <ele>870.1303711</ele>
        <time>2011-02-06T10:28:06Z</time>
      </trkpt>
      <trkpt lat="45.61023" lon="5.95325">
        <ele>869.6499023</ele>
        <time>2011-02-06T10:28:07Z</time>
      </trkpt>
      <trkpt lat="45.61025" lon="5.95332">
        <ele>870.1303711</ele>
        <time>2011-02-06T10:28:11Z</time>
      </trkpt>
      <trkpt lat="45.61026" lon="5.95335">
        <ele>871.0917969</ele>
        <time>2011-02-06T10:28:13Z</time>
      </trkpt>
      <trkpt lat="45.61028" lon="5.9534">
        <ele>871.0917969</ele>
        <time>2011-02-06T10:28:17Z</time>
      </trkpt>
      <trkpt lat="45.61029" lon="5.95345">
        <ele>871.0917969</ele>
        <time>2011-02-06T10:28:20Z</time>
      </trkpt>
      <trkpt lat="45.6103" lon="5.9535">
        <ele>872.5336914</ele>
        <time>2011-02-06T10:28:23Z</time>
      </trkpt>
      <trkpt lat="45.61033" lon="5.95354">
        <ele>873.4951172</ele>
        <time>2011-02-06T10:28:26Z</time>
      </trkpt>
      <trkpt lat="45.61035" lon="5.95358">
        <ele>873.9755859</ele>
        <time>2011-02-06T10:28:29Z</time>
      </trkpt>
      <trkpt lat="45.61036" lon="5.95363">
        <ele>874.4562988</ele>
        <time>2011-02-06T10:28:32Z</time>
      </trkpt>
      <trkpt lat="45.61038" lon="5.95368">
        <ele>875.4174805</ele>
        <time>2011-02-06T10:28:35Z</time>
      </trkpt>
      <trkpt lat="45.6104" lon="5.95373">
        <ele>875.4174805</ele>
        <time>2011-02-06T10:28:39Z</time>
      </trkpt>
      <trkpt lat="45.61042" lon="5.95375">
        <ele>875.4174805</ele>
        <time>2011-02-06T10:28:41Z</time>
      </trkpt>
      <trkpt lat="45.61045" lon="5.9538">
        <ele>875.4174805</ele>
        <time>2011-02-06T10:28:45Z</time>
      </trkpt>
      <trkpt lat="45.61047" lon="5.95383">
        <ele>876.8598633</ele>
        <time>2011-02-06T10:28:48Z</time>
      </trkpt>
      <trkpt lat="45.61051" lon="5.95387">
        <ele>878.3017578</ele>
        <time>2011-02-06T10:28:52Z</time>
      </trkpt>
      <trkpt lat="45.61054" lon="5.95391">
        <ele>878.7824707</ele>
        <time>2011-02-06T10:28:56Z</time>
      </trkpt>
      <trkpt lat="45.61058" lon="5.95395">
        <ele>878.3017578</ele>
        <time>2011-02-06T10:29:00Z</time>
      </trkpt>
      <trkpt lat="45.61061" lon="5.95399">
        <ele>879.7436523</ele>
        <time>2011-02-06T10:29:04Z</time>
      </trkpt>
      <trkpt lat="45.61063" lon="5.95405">
        <ele>882.1469727</ele>
        <time>2011-02-06T10:29:08Z</time>
      </trkpt>
      <trkpt lat="45.61063" lon="5.9541">
        <ele>883.5888672</ele>
        <time>2011-02-06T10:29:12Z</time>
      </trkpt>
      <trkpt lat="45.61061" lon="5.95415">
        <ele>885.0310059</ele>
        <time>2011-02-06T10:29:15Z</time>
      </trkpt>
      <trkpt lat="45.61061" lon="5.95422">
        <ele>887.434082</ele>
        <time>2011-02-06T10:29:20Z</time>
      </trkpt>
      <trkpt lat="45.61061" lon="5.95425">
        <ele>888.8762207</ele>
        <time>2011-02-06T10:29:23Z</time>
      </trkpt>
      <trkpt lat="45.61063" lon="5.9543">
        <ele>888.8762207</ele>
        <time>2011-02-06T10:29:27Z</time>
      </trkpt>
      <trkpt lat="45.61065" lon="5.95435">
        <ele>888.8762207</ele>
        <time>2011-02-06T10:29:30Z</time>
      </trkpt>
      <trkpt lat="45.61067" lon="5.95436">
        <ele>888.3955078</ele>
        <time>2011-02-06T10:29:32Z</time>
      </trkpt>
      <trkpt lat="45.6107" lon="5.95442">
        <ele>889.8374023</ele>
        <time>2011-02-06T10:29:36Z</time>
      </trkpt>
      <trkpt lat="45.6107" lon="5.95444">
        <ele>890.3181152</ele>
        <time>2011-02-06T10:29:37Z</time>
      </trkpt>
      <trkpt lat="45.61071" lon="5.9545">
        <ele>893.2021484</ele>
        <time>2011-02-06T10:29:42Z</time>
      </trkpt>
      <trkpt lat="45.61073" lon="5.95452">
        <ele>896.0861816</ele>
        <time>2011-02-06T10:29:47Z</time>
      </trkpt>
      <trkpt lat="45.61077" lon="5.95456">
        <ele>898.4892578</ele>
        <time>2011-02-06T10:29:53Z</time>
      </trkpt>
      <trkpt lat="45.61078" lon="5.95457">
        <ele>898.4892578</ele>
        <time>2011-02-06T10:29:54Z</time>
      </trkpt>
      <trkpt lat="45.61082" lon="5.95456">
        <ele>901.373291</ele>
        <time>2011-02-06T10:29:58Z</time>
      </trkpt>
      <trkpt lat="45.61087" lon="5.95454">
        <ele>902.3344727</ele>
        <time>2011-02-06T10:30:02Z</time>
      </trkpt>
      <trkpt lat="45.61093" lon="5.95453">
        <ele>899.9313965</ele>
        <time>2011-02-06T10:30:06Z</time>
      </trkpt>
      <trkpt lat="45.61099" lon="5.9545">
        <ele>896.5668945</ele>
        <time>2011-02-06T10:30:10Z</time>
      </trkpt>
      <trkpt lat="45.61103" lon="5.95446">
        <ele>898.4892578</ele>
        <time>2011-02-06T10:30:14Z</time>
      </trkpt>
      <trkpt lat="45.61103" lon="5.95446">
        <ele>898.4892578</ele>
        <time>2011-02-06T10:30:14Z</time>
      </trkpt>
      <trkpt lat="45.61105" lon="5.95444">
        <ele>898.4892578</ele>
        <time>2011-02-06T10:30:15Z</time>
      </trkpt>
      <trkpt lat="45.6111" lon="5.95438">
        <ele>897.5280762</ele>
        <time>2011-02-06T10:30:18Z</time>
      </trkpt>
      <trkpt lat="45.61115" lon="5.95433">
        <ele>897.0473633</ele>
        <time>2011-02-06T10:30:21Z</time>
      </trkpt>
      <trkpt lat="45.61119" lon="5.95431">
        <ele>898.0087891</ele>
        <time>2011-02-06T10:30:24Z</time>
      </trkpt>
      <trkpt lat="45.6112" lon="5.9543">
        <ele>899.9313965</ele>
        <time>2011-02-06T10:30:25Z</time>
      </trkpt>
      <trkpt lat="45.6112" lon="5.95429">
        <ele>899.9313965</ele>
        <time>2011-02-06T10:30:26Z</time>
      </trkpt>
      <trkpt lat="45.61122" lon="5.95424">
        <ele>904.737793</ele>
        <time>2011-02-06T10:30:31Z</time>
      </trkpt>
      <trkpt lat="45.61128" lon="5.95422">
        <ele>904.2573242</ele>
        <time>2011-02-06T10:30:34Z</time>
      </trkpt>
      <trkpt lat="45.6113" lon="5.95412">
        <ele>912.4284668</ele>
        <time>2011-02-06T10:30:38Z</time>
      </trkpt>
      <trkpt lat="45.61133" lon="5.95407">
        <ele>911.4672852</ele>
        <time>2011-02-06T10:30:42Z</time>
      </trkpt>
      <trkpt lat="45.61136" lon="5.95398">
        <ele>914.3510742</ele>
        <time>2011-02-06T10:30:47Z</time>
      </trkpt>
      <trkpt lat="45.61138" lon="5.9539">
        <ele>915.7932129</ele>
        <time>2011-02-06T10:30:50Z</time>
      </trkpt>
      <trkpt lat="45.61142" lon="5.95382">
        <ele>913.8703613</ele>
        <time>2011-02-06T10:30:53Z</time>
      </trkpt>
      <trkpt lat="45.61145" lon="5.95375">
        <ele>911.4672852</ele>
        <time>2011-02-06T10:30:56Z</time>
      </trkpt>
      <trkpt lat="45.61147" lon="5.95369">
        <ele>908.1027832</ele>
        <time>2011-02-06T10:30:59Z</time>
      </trkpt>
      <trkpt lat="45.61152" lon="5.95364">
        <ele>904.737793</ele>
        <time>2011-02-06T10:31:03Z</time>
      </trkpt>
      <trkpt lat="45.61153" lon="5.95359">
        <ele>904.2573242</ele>
        <time>2011-02-06T10:31:05Z</time>
      </trkpt>
      <trkpt lat="45.61154" lon="5.9535">
        <ele>905.6992188</ele>
        <time>2011-02-06T10:31:09Z</time>
      </trkpt>
      <trkpt lat="45.61155" lon="5.95345">
        <ele>904.737793</ele>
        <time>2011-02-06T10:31:11Z</time>
      </trkpt>
      <trkpt lat="45.61162" lon="5.95338">
        <ele>903.7766113</ele>
        <time>2011-02-06T10:31:15Z</time>
      </trkpt>
      <trkpt lat="45.61166" lon="5.95332">
        <ele>903.2958984</ele>
        <time>2011-02-06T10:31:18Z</time>
      </trkpt>
      <trkpt lat="45.61172" lon="5.95326">
        <ele>900.8925781</ele>
        <time>2011-02-06T10:31:22Z</time>
      </trkpt>
      <trkpt lat="45.61178" lon="5.95322">
        <ele>900.4121094</ele>
        <time>2011-02-06T10:31:25Z</time>
      </trkpt>
      <trkpt lat="45.61184" lon="5.9532">
        <ele>899.4506836</ele>
        <time>2011-02-06T10:31:28Z</time>
      </trkpt>
      <trkpt lat="45.6119" lon="5.95318">
        <ele>898.4892578</ele>
        <time>2011-02-06T10:31:31Z</time>
      </trkpt>
      <trkpt lat="45.61194" lon="5.95313">
        <ele>898.4892578</ele>
        <time>2011-02-06T10:31:34Z</time>
      </trkpt>
      <trkpt lat="45.61199" lon="5.95309">
        <ele>898.4892578</ele>
        <time>2011-02-06T10:31:37Z</time>
      </trkpt>
      <trkpt lat="45.61204" lon="5.95306">
        <ele>898.0087891</ele>
        <time>2011-02-06T10:31:40Z</time>
      </trkpt>
      <trkpt lat="45.61208" lon="5.95304">
        <ele>898.9699707</ele>
        <time>2011-02-06T10:31:43Z</time>
      </trkpt>
      <trkpt lat="45.61211" lon="5.95301">
        <ele>899.9313965</ele>
        <time>2011-02-06T10:31:45Z</time>
      </trkpt>
      <trkpt lat="45.61215" lon="5.95289">
        <ele>905.2185059</ele>
        <time>2011-02-06T10:31:49Z</time>
      </trkpt>
      <trkpt lat="45.61216" lon="5.95288">
        <ele>905.6992188</ele>
        <time>2011-02-06T10:31:50Z</time>
      </trkpt>
      <trkpt lat="45.61223" lon="5.95285">
        <ele>907.6218262</ele>
        <time>2011-02-06T10:31:54Z</time>
      </trkpt>
      <trkpt lat="45.61229" lon="5.95284">
        <ele>908.1027832</ele>
        <time>2011-02-06T10:31:57Z</time>
      </trkpt>
      <trkpt lat="45.61234" lon="5.95281">
        <ele>909.0639648</ele>
        <time>2011-02-06T10:32:00Z</time>
      </trkpt>
      <trkpt lat="45.61238" lon="5.95275">
        <ele>911.947998</ele>
        <time>2011-02-06T10:32:03Z</time>
      </trkpt>
      <trkpt lat="45.61244" lon="5.95275">
        <ele>911.4672852</ele>
        <time>2011-02-06T10:32:06Z</time>
      </trkpt>
      <trkpt lat="45.6125" lon="5.95274">
        <ele>911.4672852</ele>
        <time>2011-02-06T10:32:09Z</time>
      </trkpt>
      <trkpt lat="45.61256" lon="5.95272">
        <ele>910.9865723</ele>
        <time>2011-02-06T10:32:12Z</time>
      </trkpt>
      <trkpt lat="45.61261" lon="5.95268">
        <ele>912.4284668</ele>
        <time>2011-02-06T10:32:15Z</time>
      </trkpt>
      <trkpt lat="45.61267" lon="5.95263">
        <ele>915.3125</ele>
        <time>2011-02-06T10:32:18Z</time>
      </trkpt>
      <trkpt lat="45.61272" lon="5.95259">
        <ele>917.2351074</ele>
        <time>2011-02-06T10:32:21Z</time>
      </trkpt>
      <trkpt lat="45.61277" lon="5.95256">
        <ele>919.6384277</ele>
        <time>2011-02-06T10:32:24Z</time>
      </trkpt>
      <trkpt lat="45.61282" lon="5.95255">
        <ele>921.560791</ele>
        <time>2011-02-06T10:32:27Z</time>
      </trkpt>
      <trkpt lat="45.61287" lon="5.95254">
        <ele>923.4836426</ele>
        <time>2011-02-06T10:32:30Z</time>
      </trkpt>
      <trkpt lat="45.61291" lon="5.95252">
        <ele>925.8869629</ele>
        <time>2011-02-06T10:32:33Z</time>
      </trkpt>
      <trkpt lat="45.61298" lon="5.9525">
        <ele>928.2902832</ele>
        <time>2011-02-06T10:32:37Z</time>
      </trkpt>
      <trkpt lat="45.61299" lon="5.9525">
        <ele>929.2514648</ele>
        <time>2011-02-06T10:32:38Z</time>
      </trkpt>
      <trkpt lat="45.61306" lon="5.95248">
        <ele>931.1743164</ele>
        <time>2011-02-06T10:32:42Z</time>
      </trkpt>
      <trkpt lat="45.6131" lon="5.95248">
        <ele>933.0966797</ele>
        <time>2011-02-06T10:32:45Z</time>
      </trkpt>
      <trkpt lat="45.61315" lon="5.95247">
        <ele>934.0581055</ele>
        <time>2011-02-06T10:32:48Z</time>
      </trkpt>
      <trkpt lat="45.6132" lon="5.95246">
        <ele>935.5</ele>
        <time>2011-02-06T10:32:51Z</time>
      </trkpt>
      <trkpt lat="45.61326" lon="5.95244">
        <ele>936.9418945</ele>
        <time>2011-02-06T10:32:54Z</time>
      </trkpt>
      <trkpt lat="45.61331" lon="5.95242">
        <ele>937.9033203</ele>
        <time>2011-02-06T10:32:57Z</time>
      </trkpt>
      <trkpt lat="45.61336" lon="5.9524">
        <ele>939.8259277</ele>
        <time>2011-02-06T10:33:00Z</time>
      </trkpt>
      <trkpt lat="45.6134" lon="5.95241">
        <ele>940.7873535</ele>
        <time>2011-02-06T10:33:03Z</time>
      </trkpt>
      <trkpt lat="45.61346" lon="5.95242">
        <ele>942.7102051</ele>
        <time>2011-02-06T10:33:06Z</time>
      </trkpt>
      <trkpt lat="45.6135" lon="5.95242">
        <ele>943.6713867</ele>
        <time>2011-02-06T10:33:09Z</time>
      </trkpt>
      <trkpt lat="45.61355" lon="5.95242">
        <ele>945.1132813</ele>
        <time>2011-02-06T10:33:12Z</time>
      </trkpt>
      <trkpt lat="45.61359" lon="5.95242">
        <ele>946.074707</ele>
        <time>2011-02-06T10:33:15Z</time>
      </trkpt>
      <trkpt lat="45.61364" lon="5.95243">
        <ele>947.5166016</ele>
        <time>2011-02-06T10:33:18Z</time>
      </trkpt>
      <trkpt lat="45.61369" lon="5.95244">
        <ele>947.9973145</ele>
        <time>2011-02-06T10:33:21Z</time>
      </trkpt>
      <trkpt lat="45.61374" lon="5.95244">
        <ele>947.9973145</ele>
        <time>2011-02-06T10:33:24Z</time>
      </trkpt>
      <trkpt lat="45.6138" lon="5.95245">
        <ele>947.9973145</ele>
        <time>2011-02-06T10:33:27Z</time>
      </trkpt>
      <trkpt lat="45.61385" lon="5.95246">
        <ele>948.4777832</ele>
        <time>2011-02-06T10:33:30Z</time>
      </trkpt>
      <trkpt lat="45.61392" lon="5.95247">
        <ele>947.5166016</ele>
        <time>2011-02-06T10:33:33Z</time>
      </trkpt>
      <trkpt lat="45.61399" lon="5.95247">
        <ele>946.5554199</ele>
        <time>2011-02-06T10:33:36Z</time>
      </trkpt>
      <trkpt lat="45.61405" lon="5.9525">
        <ele>946.5554199</ele>
        <time>2011-02-06T10:33:39Z</time>
      </trkpt>
      <trkpt lat="45.61412" lon="5.95252">
        <ele>947.9973145</ele>
        <time>2011-02-06T10:33:42Z</time>
      </trkpt>
      <trkpt lat="45.61418" lon="5.95255">
        <ele>948.9584961</ele>
        <time>2011-02-06T10:33:45Z</time>
      </trkpt>
      <trkpt lat="45.61425" lon="5.95256">
        <ele>948.9584961</ele>
        <time>2011-02-06T10:33:48Z</time>
      </trkpt>
      <trkpt lat="45.61431" lon="5.95258">
        <ele>948.9584961</ele>
        <time>2011-02-06T10:33:51Z</time>
      </trkpt>
      <trkpt lat="45.61438" lon="5.95259">
        <ele>947.9973145</ele>
        <time>2011-02-06T10:33:54Z</time>
      </trkpt>
      <trkpt lat="45.61445" lon="5.9526">
        <ele>947.0358887</ele>
        <time>2011-02-06T10:33:57Z</time>
      </trkpt>
      <trkpt lat="45.61451" lon="5.95262">
        <ele>946.5554199</ele>
        <time>2011-02-06T10:33:59Z</time>
      </trkpt>
      <trkpt lat="45.61458" lon="5.95264">
        <ele>946.5554199</ele>
        <time>2011-02-06T10:34:02Z</time>
      </trkpt>
      <trkpt lat="45.61465" lon="5.95269">
        <ele>946.5554199</ele>
        <time>2011-02-06T10:34:05Z</time>
      </trkpt>
      <trkpt lat="45.61469" lon="5.95271">
        <ele>947.0358887</ele>
        <time>2011-02-06T10:34:07Z</time>
      </trkpt>
      <trkpt lat="45.61474" lon="5.95274">
        <ele>947.5166016</ele>
        <time>2011-02-06T10:34:09Z</time>
      </trkpt>
      <trkpt lat="45.61479" lon="5.95276">
        <ele>947.5166016</ele>
        <time>2011-02-06T10:34:11Z</time>
      </trkpt>
      <trkpt lat="45.61484" lon="5.95279">
        <ele>947.5166016</ele>
        <time>2011-02-06T10:34:13Z</time>
      </trkpt>
      <trkpt lat="45.61489" lon="5.95281">
        <ele>947.0358887</ele>
        <time>2011-02-06T10:34:15Z</time>
      </trkpt>
      <trkpt lat="45.61495" lon="5.95284">
        <ele>947.5166016</ele>
        <time>2011-02-06T10:34:17Z</time>
      </trkpt>
      <trkpt lat="45.615" lon="5.95287">
        <ele>947.5166016</ele>
        <time>2011-02-06T10:34:19Z</time>
      </trkpt>
      <trkpt lat="45.61506" lon="5.95291">
        <ele>947.0358887</ele>
        <time>2011-02-06T10:34:21Z</time>
      </trkpt>
      <trkpt lat="45.61511" lon="5.95294">
        <ele>947.9973145</ele>
        <time>2011-02-06T10:34:23Z</time>
      </trkpt>
      <trkpt lat="45.61516" lon="5.95297">
        <ele>947.5166016</ele>
        <time>2011-02-06T10:34:25Z</time>
      </trkpt>
      <trkpt lat="45.61521" lon="5.95301">
        <ele>947.5166016</ele>
        <time>2011-02-06T10:34:27Z</time>
      </trkpt>
      <trkpt lat="45.61526" lon="5.95305">
        <ele>947.5166016</ele>
        <time>2011-02-06T10:34:29Z</time>
      </trkpt>
      <trkpt lat="45.61531" lon="5.95309">
        <ele>946.5554199</ele>
        <time>2011-02-06T10:34:31Z</time>
      </trkpt>
      <trkpt lat="45.61536" lon="5.95313">
        <ele>947.0358887</ele>
        <time>2011-02-06T10:34:33Z</time>
      </trkpt>
      <trkpt lat="45.61541" lon="5.95318">
        <ele>946.074707</ele>
        <time>2011-02-06T10:34:35Z</time>
      </trkpt>
      <trkpt lat="45.61546" lon="5.95323">
        <ele>945.5939941</ele>
        <time>2011-02-06T10:34:37Z</time>
      </trkpt>
      <trkpt lat="45.61551" lon="5.95327">
        <ele>945.5939941</ele>
        <time>2011-02-06T10:34:39Z</time>
      </trkpt>
      <trkpt lat="45.61556" lon="5.95331">
        <ele>945.5939941</ele>
        <time>2011-02-06T10:34:41Z</time>
      </trkpt>
      <trkpt lat="45.61561" lon="5.95335">
        <ele>945.1132813</ele>
        <time>2011-02-06T10:34:43Z</time>
      </trkpt>
      <trkpt lat="45.61567" lon="5.95339">
        <ele>944.6325684</ele>
        <time>2011-02-06T10:34:45Z</time>
      </trkpt>
      <trkpt lat="45.61572" lon="5.95343">
        <ele>944.1520996</ele>
        <time>2011-02-06T10:34:47Z</time>
      </trkpt>
      <trkpt lat="45.61577" lon="5.95348">
        <ele>943.1906738</ele>
        <time>2011-02-06T10:34:49Z</time>
      </trkpt>
      <trkpt lat="45.61582" lon="5.95351">
        <ele>942.7102051</ele>
        <time>2011-02-06T10:34:51Z</time>
      </trkpt>
      <trkpt lat="45.61587" lon="5.95355">
        <ele>942.7102051</ele>
        <time>2011-02-06T10:34:53Z</time>
      </trkpt>
      <trkpt lat="45.61593" lon="5.95359">
        <ele>941.2680664</ele>
        <time>2011-02-06T10:34:55Z</time>
      </trkpt>
      <trkpt lat="45.61598" lon="5.95362">
        <ele>940.7873535</ele>
        <time>2011-02-06T10:34:57Z</time>
      </trkpt>
      <trkpt lat="45.61602" lon="5.95366">
        <ele>939.3452148</ele>
        <time>2011-02-06T10:34:59Z</time>
      </trkpt>
      <trkpt lat="45.61607" lon="5.95369">
        <ele>939.3452148</ele>
        <time>2011-02-06T10:35:01Z</time>
      </trkpt>
      <trkpt lat="45.61613" lon="5.95374">
        <ele>939.3452148</ele>
        <time>2011-02-06T10:35:03Z</time>
      </trkpt>
      <trkpt lat="45.61618" lon="5.95379">
        <ele>937.9033203</ele>
        <time>2011-02-06T10:35:05Z</time>
      </trkpt>
      <trkpt lat="45.61623" lon="5.95384">
        <ele>937.4226074</ele>
        <time>2011-02-06T10:35:07Z</time>
      </trkpt>
      <trkpt lat="45.61628" lon="5.95389">
        <ele>936.4614258</ele>
        <time>2011-02-06T10:35:09Z</time>
      </trkpt>
      <trkpt lat="45.61634" lon="5.95393">
        <ele>935.0195313</ele>
        <time>2011-02-06T10:35:11Z</time>
      </trkpt>
      <trkpt lat="45.6164" lon="5.95398">
        <ele>935.0195313</ele>
        <time>2011-02-06T10:35:13Z</time>
      </trkpt>
      <trkpt lat="45.61646" lon="5.95403">
        <ele>934.5388184</ele>
        <time>2011-02-06T10:35:15Z</time>
      </trkpt>
      <trkpt lat="45.61651" lon="5.95408">
        <ele>935.5</ele>
        <time>2011-02-06T10:35:17Z</time>
      </trkpt>
      <trkpt lat="45.61657" lon="5.95413">
        <ele>935.9807129</ele>
        <time>2011-02-06T10:35:19Z</time>
      </trkpt>
      <trkpt lat="45.61662" lon="5.95417">
        <ele>936.4614258</ele>
        <time>2011-02-06T10:35:21Z</time>
      </trkpt>
      <trkpt lat="45.61667" lon="5.95421">
        <ele>936.4614258</ele>
        <time>2011-02-06T10:35:23Z</time>
      </trkpt>
      <trkpt lat="45.61672" lon="5.95425">
        <ele>936.4614258</ele>
        <time>2011-02-06T10:35:25Z</time>
      </trkpt>
      <trkpt lat="45.61677" lon="5.95429">
        <ele>935.9807129</ele>
        <time>2011-02-06T10:35:27Z</time>
      </trkpt>
      <trkpt lat="45.61681" lon="5.95433">
        <ele>935.5</ele>
        <time>2011-02-06T10:35:29Z</time>
      </trkpt>
      <trkpt lat="45.61686" lon="5.95437">
        <ele>935.0195313</ele>
        <time>2011-02-06T10:35:31Z</time>
      </trkpt>
      <trkpt lat="45.6169" lon="5.9544">
        <ele>934.5388184</ele>
        <time>2011-02-06T10:35:33Z</time>
      </trkpt>
      <trkpt lat="45.61695" lon="5.95444">
        <ele>934.5388184</ele>
        <time>2011-02-06T10:35:35Z</time>
      </trkpt>
      <trkpt lat="45.617" lon="5.95448">
        <ele>935.0195313</ele>
        <time>2011-02-06T10:35:37Z</time>
      </trkpt>
      <trkpt lat="45.61704" lon="5.95452">
        <ele>935.5</ele>
        <time>2011-02-06T10:35:39Z</time>
      </trkpt>
      <trkpt lat="45.61708" lon="5.95454">
        <ele>936.9418945</ele>
        <time>2011-02-06T10:35:41Z</time>
      </trkpt>
      <trkpt lat="45.61713" lon="5.95458">
        <ele>936.9418945</ele>
        <time>2011-02-06T10:35:43Z</time>
      </trkpt>
      <trkpt lat="45.61715" lon="5.9546">
        <ele>938.3840332</ele>
        <time>2011-02-06T10:35:45Z</time>
      </trkpt>
      <trkpt lat="45.61721" lon="5.95465">
        <ele>937.9033203</ele>
        <time>2011-02-06T10:35:48Z</time>
      </trkpt>
      <trkpt lat="45.61723" lon="5.95466">
        <ele>937.9033203</ele>
        <time>2011-02-06T10:35:51Z</time>
      </trkpt>
      <trkpt lat="45.61723" lon="5.95468">
        <ele>935.9807129</ele>
        <time>2011-02-06T10:35:54Z</time>
      </trkpt>
      <trkpt lat="45.61717" lon="5.95468">
        <ele>935.9807129</ele>
        <time>2011-02-06T10:35:58Z</time>
      </trkpt>
      <trkpt lat="45.61714" lon="5.95468">
        <ele>934.5388184</ele>
        <time>2011-02-06T10:36:01Z</time>
      </trkpt>
      <trkpt lat="45.61711" lon="5.95466">
        <ele>935.5</ele>
        <time>2011-02-06T10:36:04Z</time>
      </trkpt>
      <trkpt lat="45.61704" lon="5.95468">
        <ele>932.135498</ele>
        <time>2011-02-06T10:36:07Z</time>
      </trkpt>
      <trkpt lat="45.617" lon="5.95473">
        <ele>932.6162109</ele>
        <time>2011-02-06T10:36:10Z</time>
      </trkpt>
      <trkpt lat="45.617" lon="5.95483">
        <ele>935.5</ele>
        <time>2011-02-06T10:36:14Z</time>
      </trkpt>
      <trkpt lat="45.61701" lon="5.9549">
        <ele>937.9033203</ele>
        <time>2011-02-06T10:36:17Z</time>
      </trkpt>
      <trkpt lat="45.61701" lon="5.95491">
        <ele>936.4614258</ele>
        <time>2011-02-06T10:36:22Z</time>
      </trkpt>
      <trkpt lat="45.61702" lon="5.95496">
        <ele>935.5</ele>
        <time>2011-02-06T10:36:26Z</time>
      </trkpt>
      <trkpt lat="45.61703" lon="5.95503">
        <ele>936.4614258</ele>
        <time>2011-02-06T10:36:30Z</time>
      </trkpt>
      <trkpt lat="45.61704" lon="5.95509">
        <ele>940.3068848</ele>
        <time>2011-02-06T10:36:34Z</time>
      </trkpt>
      <trkpt lat="45.61706" lon="5.95517">
        <ele>944.1520996</ele>
        <time>2011-02-06T10:36:38Z</time>
      </trkpt>
      <trkpt lat="45.61712" lon="5.95525">
        <ele>948.9584961</ele>
        <time>2011-02-06T10:36:42Z</time>
      </trkpt>
      <trkpt lat="45.61716" lon="5.95532">
        <ele>949.439209</ele>
        <time>2011-02-06T10:36:46Z</time>
      </trkpt>
      <trkpt lat="45.61718" lon="5.95536">
        <ele>948.9584961</ele>
        <time>2011-02-06T10:36:49Z</time>
      </trkpt>
      <trkpt lat="45.61722" lon="5.95542">
        <ele>949.9199219</ele>
        <time>2011-02-06T10:36:53Z</time>
      </trkpt>
      <trkpt lat="45.61725" lon="5.95545">
        <ele>951.8425293</ele>
        <time>2011-02-06T10:36:57Z</time>
      </trkpt>
      <trkpt lat="45.61725" lon="5.95551">
        <ele>951.3618164</ele>
        <time>2011-02-06T10:37:01Z</time>
      </trkpt>
      <trkpt lat="45.61725" lon="5.95556">
        <ele>949.9199219</ele>
        <time>2011-02-06T10:37:05Z</time>
      </trkpt>
      <trkpt lat="45.61726" lon="5.95561">
        <ele>952.322998</ele>
        <time>2011-02-06T10:37:09Z</time>
      </trkpt>
      <trkpt lat="45.61725" lon="5.95566">
        <ele>952.322998</ele>
        <time>2011-02-06T10:37:13Z</time>
      </trkpt>
      <trkpt lat="45.61724" lon="5.95572">
        <ele>955.6877441</ele>
        <time>2011-02-06T10:37:17Z</time>
      </trkpt>
      <trkpt lat="45.61721" lon="5.95576">
        <ele>956.6491699</ele>
        <time>2011-02-06T10:37:21Z</time>
      </trkpt>
      <trkpt lat="45.6172" lon="5.95584">
        <ele>959.0524902</ele>
        <time>2011-02-06T10:37:25Z</time>
      </trkpt>
      <trkpt lat="45.61718" lon="5.95588">
        <ele>958.0913086</ele>
        <time>2011-02-06T10:37:29Z</time>
      </trkpt>
      <trkpt lat="45.61717" lon="5.95596">
        <ele>956.168457</ele>
        <time>2011-02-06T10:37:33Z</time>
      </trkpt>
      <trkpt lat="45.61715" lon="5.95602">
        <ele>954.2458496</ele>
        <time>2011-02-06T10:37:37Z</time>
      </trkpt>
      <trkpt lat="45.61719" lon="5.95609">
        <ele>955.6877441</ele>
        <time>2011-02-06T10:37:41Z</time>
      </trkpt>
      <trkpt lat="45.61725" lon="5.95617">
        <ele>960.4943848</ele>
        <time>2011-02-06T10:37:45Z</time>
      </trkpt>
      <trkpt lat="45.61725" lon="5.95626">
        <ele>963.378418</ele>
        <time>2011-02-06T10:37:49Z</time>
      </trkpt>
      <trkpt lat="45.61718" lon="5.95636">
        <ele>959.5332031</ele>
        <time>2011-02-06T10:37:52Z</time>
      </trkpt>
      <trkpt lat="45.61717" lon="5.95641">
        <ele>959.0524902</ele>
        <time>2011-02-06T10:37:55Z</time>
      </trkpt>
      <trkpt lat="45.61714" lon="5.95653">
        <ele>960.0136719</ele>
        <time>2011-02-06T10:37:59Z</time>
      </trkpt>
      <trkpt lat="45.61711" lon="5.95663">
        <ele>960.9750977</ele>
        <time>2011-02-06T10:38:03Z</time>
      </trkpt>
      <trkpt lat="45.61711" lon="5.95668">
        <ele>962.8977051</ele>
        <time>2011-02-06T10:38:05Z</time>
      </trkpt>
      <trkpt lat="45.61711" lon="5.95679">
        <ele>967.2236328</ele>
        <time>2011-02-06T10:38:09Z</time>
      </trkpt>
      <trkpt lat="45.6171" lon="5.95685">
        <ele>970.5881348</ele>
        <time>2011-02-06T10:38:12Z</time>
      </trkpt>
      <trkpt lat="45.61707" lon="5.95691">
        <ele>975.3947754</ele>
        <time>2011-02-06T10:38:15Z</time>
      </trkpt>
      <trkpt lat="45.61707" lon="5.95691">
        <ele>975.3947754</ele>
        <time>2011-02-06T10:38:15Z</time>
      </trkpt>
      <trkpt lat="45.61704" lon="5.95695">
        <ele>975.8754883</ele>
        <time>2011-02-06T10:38:16Z</time>
      </trkpt>
      <trkpt lat="45.61702" lon="5.95698">
        <ele>975.3947754</ele>
        <time>2011-02-06T10:38:17Z</time>
      </trkpt>
      <trkpt lat="45.61696" lon="5.95712">
        <ele>979.7207031</ele>
        <time>2011-02-06T10:38:22Z</time>
      </trkpt>
      <trkpt lat="45.61695" lon="5.95719">
        <ele>983.565918</ele>
        <time>2011-02-06T10:38:26Z</time>
      </trkpt>
      <trkpt lat="45.61698" lon="5.95728">
        <ele>984.0466309</ele>
        <time>2011-02-06T10:38:30Z</time>
      </trkpt>
      <trkpt lat="45.61699" lon="5.95732">
        <ele>975.3947754</ele>
        <time>2011-02-06T10:38:34Z</time>
      </trkpt>
      <trkpt lat="45.61702" lon="5.95733">
        <ele>973.4724121</ele>
        <time>2011-02-06T10:38:37Z</time>
      </trkpt>
      <trkpt lat="45.6171" lon="5.95739">
        <ele>972.0302734</ele>
        <time>2011-02-06T10:38:42Z</time>
      </trkpt>
      <trkpt lat="45.61712" lon="5.95746">
        <ele>972.0302734</ele>
        <time>2011-02-06T10:38:46Z</time>
      </trkpt>
      <trkpt lat="45.61715" lon="5.95754">
        <ele>975.3947754</ele>
        <time>2011-02-06T10:38:50Z</time>
      </trkpt>
      <trkpt lat="45.61718" lon="5.95757">
        <ele>977.317627</ele>
        <time>2011-02-06T10:38:53Z</time>
      </trkpt>
      <trkpt lat="45.61718" lon="5.95766">
        <ele>973.4724121</ele>
        <time>2011-02-06T10:38:57Z</time>
      </trkpt>
      <trkpt lat="45.61721" lon="5.95771">
        <ele>973.4724121</ele>
        <time>2011-02-06T10:39:01Z</time>
      </trkpt>
      <trkpt lat="45.61729" lon="5.95776">
        <ele>976.8369141</ele>
        <time>2011-02-06T10:39:05Z</time>
      </trkpt>
      <trkpt lat="45.61734" lon="5.95785">
        <ele>981.1628418</ele>
        <time>2011-02-06T10:39:09Z</time>
      </trkpt>
      <trkpt lat="45.61739" lon="5.95794">
        <ele>990.2954102</ele>
        <time>2011-02-06T10:39:13Z</time>
      </trkpt>
      <trkpt lat="45.6174" lon="5.95797">
        <ele>991.2565918</ele>
        <time>2011-02-06T10:39:17Z</time>
      </trkpt>
      <trkpt lat="45.61747" lon="5.958">
        <ele>1004.7150879</ele>
        <time>2011-02-06T10:39:24Z</time>
      </trkpt>
      <trkpt lat="45.61749" lon="5.95811">
        <ele>1007.1184082</ele>
        <time>2011-02-06T10:39:31Z</time>
      </trkpt>
      <trkpt lat="45.61755" lon="5.95821">
        <ele>1010.4829102</ele>
        <time>2011-02-06T10:39:36Z</time>
      </trkpt>
      <trkpt lat="45.61759" lon="5.95832">
        <ele>1010.963623</ele>
        <time>2011-02-06T10:39:40Z</time>
      </trkpt>
      <trkpt lat="45.61763" lon="5.95842">
        <ele>1011.4443359</ele>
        <time>2011-02-06T10:39:43Z</time>
      </trkpt>
      <trkpt lat="45.61766" lon="5.9586">
        <ele>1013.8474121</ele>
        <time>2011-02-06T10:39:47Z</time>
      </trkpt>
      <trkpt lat="45.61764" lon="5.9587">
        <ele>1021.0576172</ele>
        <time>2011-02-06T10:39:56Z</time>
      </trkpt>
      <trkpt lat="45.61761" lon="5.95876">
        <ele>1024.902832</ele>
        <time>2011-02-06T10:40:00Z</time>
      </trkpt>
      <trkpt lat="45.61765" lon="5.95888">
        <ele>1026.8254395</ele>
        <time>2011-02-06T10:40:05Z</time>
      </trkpt>
      <trkpt lat="45.61767" lon="5.95895">
        <ele>1036.4387207</ele>
        <time>2011-02-06T10:40:11Z</time>
      </trkpt>
      <trkpt lat="45.61767" lon="5.95896">
        <ele>1038.3613281</ele>
        <time>2011-02-06T10:40:15Z</time>
      </trkpt>
      <trkpt lat="45.6177" lon="5.95908">
        <ele>1039.8032227</ele>
        <time>2011-02-06T10:40:19Z</time>
      </trkpt>
      <trkpt lat="45.61771" lon="5.95914">
        <ele>1042.206543</ele>
        <time>2011-02-06T10:40:24Z</time>
      </trkpt>
      <trkpt lat="45.61776" lon="5.95925">
        <ele>1041.7258301</ele>
        <time>2011-02-06T10:40:29Z</time>
      </trkpt>
      <trkpt lat="45.61782" lon="5.95936">
        <ele>1039.8032227</ele>
        <time>2011-02-06T10:40:33Z</time>
      </trkpt>
      <trkpt lat="45.61784" lon="5.95943">
        <ele>1039.3225098</ele>
        <time>2011-02-06T10:40:37Z</time>
      </trkpt>
      <trkpt lat="45.61787" lon="5.9595">
        <ele>1036.4387207</ele>
        <time>2011-02-06T10:40:41Z</time>
      </trkpt>
      <trkpt lat="45.61791" lon="5.95958">
        <ele>1034.0351563</ele>
        <time>2011-02-06T10:40:46Z</time>
      </trkpt>
      <trkpt lat="45.61783" lon="5.9596">
        <ele>1042.206543</ele>
        <time>2011-02-06T10:40:53Z</time>
      </trkpt>
      <trkpt lat="45.61777" lon="5.95949">
        <ele>1055.6650391</ele>
        <time>2011-02-06T10:40:58Z</time>
      </trkpt>
      <trkpt lat="45.61775" lon="5.95946">
        <ele>1059.5102539</ele>
        <time>2011-02-06T10:41:00Z</time>
      </trkpt>
      <trkpt lat="45.61769" lon="5.9594">
        <ele>1066.7199707</ele>
        <time>2011-02-06T10:41:04Z</time>
      </trkpt>
      <trkpt lat="45.61767" lon="5.9594">
        <ele>1068.6428223</ele>
        <time>2011-02-06T10:41:05Z</time>
      </trkpt>
      <trkpt lat="45.61762" lon="5.95933">
        <ele>1072.96875</ele>
        <time>2011-02-06T10:41:10Z</time>
      </trkpt>
      <trkpt lat="45.61764" lon="5.95942">
        <ele>1069.1235352</ele>
        <time>2011-02-06T10:41:16Z</time>
      </trkpt>
      <trkpt lat="45.61772" lon="5.95942">
        <ele>1073.9299316</ele>
        <time>2011-02-06T10:41:21Z</time>
      </trkpt>
      <trkpt lat="45.61777" lon="5.95947">
        <ele>1074.4106445</ele>
        <time>2011-02-06T10:41:25Z</time>
      </trkpt>
      <trkpt lat="45.61781" lon="5.95959">
        <ele>1072.96875</ele>
        <time>2011-02-06T10:41:30Z</time>
      </trkpt>
      <trkpt lat="45.61785" lon="5.9597">
        <ele>1071.0461426</ele>
        <time>2011-02-06T10:41:34Z</time>
      </trkpt>
      <trkpt lat="45.61791" lon="5.95977">
        <ele>1073.4494629</ele>
        <time>2011-02-06T10:41:38Z</time>
      </trkpt>
      <trkpt lat="45.61789" lon="5.95978">
        <ele>1075.8525391</ele>
        <time>2011-02-06T10:41:44Z</time>
      </trkpt>
      <trkpt lat="45.61786" lon="5.95975">
        <ele>1078.2558594</ele>
        <time>2011-02-06T10:41:46Z</time>
      </trkpt>
      <trkpt lat="45.61778" lon="5.95968">
        <ele>1083.0622559</ele>
        <time>2011-02-06T10:41:50Z</time>
      </trkpt>
      <trkpt lat="45.61775" lon="5.95967">
        <ele>1084.0239258</ele>
        <time>2011-02-06T10:41:52Z</time>
      </trkpt>
      <trkpt lat="45.61767" lon="5.95965">
        <ele>1086.4272461</ele>
        <time>2011-02-06T10:41:57Z</time>
      </trkpt>
      <trkpt lat="45.61762" lon="5.95972">
        <ele>1085.9465332</ele>
        <time>2011-02-06T10:42:01Z</time>
      </trkpt>
      <trkpt lat="45.61755" lon="5.95974">
        <ele>1081.1398926</ele>
        <time>2011-02-06T10:42:05Z</time>
      </trkpt>
      <trkpt lat="45.61748" lon="5.95972">
        <ele>1077.7751465</ele>
        <time>2011-02-06T10:42:09Z</time>
      </trkpt>
      <trkpt lat="45.61744" lon="5.95975">
        <ele>1072.0073242</ele>
        <time>2011-02-06T10:42:12Z</time>
      </trkpt>
      <trkpt lat="45.61742" lon="5.95977">
        <ele>1067.2006836</ele>
        <time>2011-02-06T10:42:14Z</time>
      </trkpt>
      <trkpt lat="45.61737" lon="5.95975">
        <ele>1060.9521484</ele>
        <time>2011-02-06T10:42:18Z</time>
      </trkpt>
      <trkpt lat="45.61728" lon="5.95978">
        <ele>1052.300293</ele>
        <time>2011-02-06T10:42:21Z</time>
      </trkpt>
      <trkpt lat="45.61722" lon="5.95977">
        <ele>1046.5324707</ele>
        <time>2011-02-06T10:42:24Z</time>
      </trkpt>
      <trkpt lat="45.61716" lon="5.95978">
        <ele>1037.8806152</ele>
        <time>2011-02-06T10:42:27Z</time>
      </trkpt>
      <trkpt lat="45.61711" lon="5.95977">
        <ele>1034.996582</ele>
        <time>2011-02-06T10:42:30Z</time>
      </trkpt>
      <trkpt lat="45.6171" lon="5.95975">
        <ele>1034.0351563</ele>
        <time>2011-02-06T10:42:31Z</time>
      </trkpt>
      <trkpt lat="45.61706" lon="5.95967">
        <ele>1034.5158691</ele>
        <time>2011-02-06T10:42:35Z</time>
      </trkpt>
      <trkpt lat="45.61704" lon="5.95964">
        <ele>1034.996582</ele>
        <time>2011-02-06T10:42:38Z</time>
      </trkpt>
      <trkpt lat="45.61703" lon="5.95964">
        <ele>1034.0351563</ele>
        <time>2011-02-06T10:42:39Z</time>
      </trkpt>
      <trkpt lat="45.61699" lon="5.95961">
        <ele>1028.267334</ele>
        <time>2011-02-06T10:42:43Z</time>
      </trkpt>
      <trkpt lat="45.61696" lon="5.95955">
        <ele>1027.7866211</ele>
        <time>2011-02-06T10:42:46Z</time>
      </trkpt>
      <trkpt lat="45.61692" lon="5.95946">
        <ele>1028.7480469</ele>
        <time>2011-02-06T10:42:50Z</time>
      </trkpt>
      <trkpt lat="45.61689" lon="5.95942">
        <ele>1028.267334</ele>
        <time>2011-02-06T10:42:52Z</time>
      </trkpt>
      <trkpt lat="45.61685" lon="5.95934">
        <ele>1029.7092285</ele>
        <time>2011-02-06T10:42:56Z</time>
      </trkpt>
      <trkpt lat="45.61683" lon="5.95929">
        <ele>1030.6706543</ele>
        <time>2011-02-06T10:42:58Z</time>
      </trkpt>
      <trkpt lat="45.61678" lon="5.95921">
        <ele>1031.6318359</ele>
        <time>2011-02-06T10:43:02Z</time>
      </trkpt>
      <trkpt lat="45.61677" lon="5.95905">
        <ele>1042.206543</ele>
        <time>2011-02-06T10:43:05Z</time>
      </trkpt>
      <trkpt lat="45.61678" lon="5.95909">
        <ele>1043.1677246</ele>
        <time>2011-02-06T10:43:10Z</time>
      </trkpt>
      <trkpt lat="45.61682" lon="5.95921">
        <ele>1042.206543</ele>
        <time>2011-02-06T10:43:15Z</time>
      </trkpt>
      <trkpt lat="45.61686" lon="5.9593">
        <ele>1043.6484375</ele>
        <time>2011-02-06T10:43:19Z</time>
      </trkpt>
      <trkpt lat="45.61689" lon="5.95939">
        <ele>1044.6096191</ele>
        <time>2011-02-06T10:43:22Z</time>
      </trkpt>
      <trkpt lat="45.61691" lon="5.95948">
        <ele>1044.6096191</ele>
        <time>2011-02-06T10:43:25Z</time>
      </trkpt>
      <trkpt lat="45.61696" lon="5.95969">
        <ele>1046.5324707</ele>
        <time>2011-02-06T10:43:29Z</time>
      </trkpt>
      <trkpt lat="45.61696" lon="5.95979">
        <ele>1045.5710449</ele>
        <time>2011-02-06T10:43:32Z</time>
      </trkpt>
      <trkpt lat="45.61694" lon="5.95984">
        <ele>1046.5324707</ele>
        <time>2011-02-06T10:43:35Z</time>
      </trkpt>
      <trkpt lat="45.61691" lon="5.95983">
        <ele>1045.5710449</ele>
        <time>2011-02-06T10:43:38Z</time>
      </trkpt>
      <trkpt lat="45.61684" lon="5.95974">
        <ele>1043.1677246</ele>
        <time>2011-02-06T10:43:42Z</time>
      </trkpt>
      <trkpt lat="45.6168" lon="5.95969">
        <ele>1041.7258301</ele>
        <time>2011-02-06T10:43:45Z</time>
      </trkpt>
      <trkpt lat="45.61676" lon="5.95963">
        <ele>1041.2451172</ele>
        <time>2011-02-06T10:43:48Z</time>
      </trkpt>
      <trkpt lat="45.6167" lon="5.95958">
        <ele>1039.3225098</ele>
        <time>2011-02-06T10:43:52Z</time>
      </trkpt>
      <trkpt lat="45.61665" lon="5.95951">
        <ele>1040.2839355</ele>
        <time>2011-02-06T10:43:55Z</time>
      </trkpt>
      <trkpt lat="45.6166" lon="5.95945">
        <ele>1042.6872559</ele>
        <time>2011-02-06T10:43:58Z</time>
      </trkpt>
      <trkpt lat="45.61661" lon="5.95928">
        <ele>1056.1455078</ele>
        <time>2011-02-06T10:44:01Z</time>
      </trkpt>
      <trkpt lat="45.61657" lon="5.95925">
        <ele>1059.9907227</ele>
        <time>2011-02-06T10:44:04Z</time>
      </trkpt>
      <trkpt lat="45.61651" lon="5.95921">
        <ele>1066.2392578</ele>
        <time>2011-02-06T10:44:09Z</time>
      </trkpt>
      <trkpt lat="45.61645" lon="5.95914">
        <ele>1072.4880371</ele>
        <time>2011-02-06T10:44:14Z</time>
      </trkpt>
      <trkpt lat="45.6164" lon="5.95907">
        <ele>1080.1784668</ele>
        <time>2011-02-06T10:44:18Z</time>
      </trkpt>
      <trkpt lat="45.61633" lon="5.95899">
        <ele>1088.3498535</ele>
        <time>2011-02-06T10:44:22Z</time>
      </trkpt>
      <trkpt lat="45.61626" lon="5.95897">
        <ele>1088.8305664</ele>
        <time>2011-02-06T10:44:26Z</time>
      </trkpt>
      <trkpt lat="45.61618" lon="5.95887">
        <ele>1089.3110352</ele>
        <time>2011-02-06T10:44:30Z</time>
      </trkpt>
      <trkpt lat="45.61611" lon="5.95884">
        <ele>1086.9077148</ele>
        <time>2011-02-06T10:44:33Z</time>
      </trkpt>
      <trkpt lat="45.61605" lon="5.95881">
        <ele>1084.5046387</ele>
        <time>2011-02-06T10:44:36Z</time>
      </trkpt>
      <trkpt lat="45.61597" lon="5.95881">
        <ele>1080.1784668</ele>
        <time>2011-02-06T10:44:40Z</time>
      </trkpt>
      <trkpt lat="45.61592" lon="5.9588">
        <ele>1078.2558594</ele>
        <time>2011-02-06T10:44:43Z</time>
      </trkpt>
      <trkpt lat="45.61589" lon="5.9588">
        <ele>1075.3718262</ele>
        <time>2011-02-06T10:44:45Z</time>
      </trkpt>
      <trkpt lat="45.61583" lon="5.95878">
        <ele>1073.4494629</ele>
        <time>2011-02-06T10:44:49Z</time>
      </trkpt>
      <trkpt lat="45.61578" lon="5.95875">
        <ele>1072.0073242</ele>
        <time>2011-02-06T10:44:53Z</time>
      </trkpt>
      <trkpt lat="45.61576" lon="5.95875">
        <ele>1071.5266113</ele>
        <time>2011-02-06T10:44:54Z</time>
      </trkpt>
      <trkpt lat="45.61576" lon="5.95869">
        <ele>1075.3718262</ele>
        <time>2011-02-06T10:44:56Z</time>
      </trkpt>
      <trkpt lat="45.61575" lon="5.95873">
        <ele>1073.9299316</ele>
        <time>2011-02-06T10:45:01Z</time>
      </trkpt>
      <trkpt lat="45.61577" lon="5.95879">
        <ele>1073.9299316</ele>
        <time>2011-02-06T10:45:05Z</time>
      </trkpt>
      <trkpt lat="45.61581" lon="5.9589">
        <ele>1075.3718262</ele>
        <time>2011-02-06T10:45:09Z</time>
      </trkpt>
      <trkpt lat="45.61584" lon="5.95895">
        <ele>1077.7751465</ele>
        <time>2011-02-06T10:45:12Z</time>
      </trkpt>
      <trkpt lat="45.61589" lon="5.95901">
        <ele>1081.1398926</ele>
        <time>2011-02-06T10:45:15Z</time>
      </trkpt>
      <trkpt lat="45.61592" lon="5.95908">
        <ele>1083.5429688</ele>
        <time>2011-02-06T10:45:18Z</time>
      </trkpt>
      <trkpt lat="45.61595" lon="5.9591">
        <ele>1085.4658203</ele>
        <time>2011-02-06T10:45:20Z</time>
      </trkpt>
      <trkpt lat="45.61594" lon="5.95912">
        <ele>1087.8691406</ele>
        <time>2011-02-06T10:45:24Z</time>
      </trkpt>
      <trkpt lat="45.61588" lon="5.95915">
        <ele>1086.4272461</ele>
        <time>2011-02-06T10:45:28Z</time>
      </trkpt>
      <trkpt lat="45.61582" lon="5.95915">
        <ele>1083.0622559</ele>
        <time>2011-02-06T10:45:32Z</time>
      </trkpt>
      <trkpt lat="45.6158" lon="5.95911">
        <ele>1085.9465332</ele>
        <time>2011-02-06T10:45:36Z</time>
      </trkpt>
      <trkpt lat="45.61583" lon="5.95915">
        <ele>1088.3498535</ele>
        <time>2011-02-06T10:45:40Z</time>
      </trkpt>
      <trkpt lat="45.61581" lon="5.95918">
        <ele>1089.3110352</ele>
        <time>2011-02-06T10:45:44Z</time>
      </trkpt>
      <trkpt lat="45.61579" lon="5.95918">
        <ele>1089.791748</ele>
        <time>2011-02-06T10:45:48Z</time>
      </trkpt>
      <trkpt lat="45.61579" lon="5.95923">
        <ele>1091.2336426</ele>
        <time>2011-02-06T10:45:52Z</time>
      </trkpt>
      <trkpt lat="45.6158" lon="5.95926">
        <ele>1092.1950684</ele>
        <time>2011-02-06T10:45:56Z</time>
      </trkpt>
      <trkpt lat="45.61587" lon="5.95928">
        <ele>1097.4821777</ele>
        <time>2011-02-06T10:46:00Z</time>
      </trkpt>
      <trkpt lat="45.61594" lon="5.95933">
        <ele>1107.095459</ele>
        <time>2011-02-06T10:46:05Z</time>
      </trkpt>
      <trkpt lat="45.61597" lon="5.95937">
        <ele>1115.2666016</ele>
        <time>2011-02-06T10:46:09Z</time>
      </trkpt>
      <trkpt lat="45.61596" lon="5.95941">
        <ele>1118.1506348</ele>
        <time>2011-02-06T10:46:13Z</time>
      </trkpt>
      <trkpt lat="45.61597" lon="5.95943">
        <ele>1124.8798828</ele>
        <time>2011-02-06T10:46:19Z</time>
      </trkpt>
      <trkpt lat="45.616" lon="5.9594">
        <ele>1129.2055664</ele>
        <time>2011-02-06T10:46:22Z</time>
      </trkpt>
      <trkpt lat="45.61608" lon="5.95938">
        <ele>1135.9350586</ele>
        <time>2011-02-06T10:46:26Z</time>
      </trkpt>
      <trkpt lat="45.61616" lon="5.95941">
        <ele>1143.1447754</ele>
        <time>2011-02-06T10:46:29Z</time>
      </trkpt>
      <trkpt lat="45.61619" lon="5.95938">
        <ele>1146.9899902</ele>
        <time>2011-02-06T10:46:32Z</time>
      </trkpt>
      <trkpt lat="45.61621" lon="5.95938">
        <ele>1146.9899902</ele>
        <time>2011-02-06T10:46:34Z</time>
      </trkpt>
      <trkpt lat="45.61627" lon="5.95939">
        <ele>1147.4707031</ele>
        <time>2011-02-06T10:46:38Z</time>
      </trkpt>
      <trkpt lat="45.61631" lon="5.95943">
        <ele>1146.9899902</ele>
        <time>2011-02-06T10:46:41Z</time>
      </trkpt>
      <trkpt lat="45.61638" lon="5.95944">
        <ele>1148.4321289</ele>
        <time>2011-02-06T10:46:44Z</time>
      </trkpt>
      <trkpt lat="45.61643" lon="5.95945">
        <ele>1149.3935547</ele>
        <time>2011-02-06T10:46:47Z</time>
      </trkpt>
      <trkpt lat="45.61648" lon="5.95947">
        <ele>1150.8354492</ele>
        <time>2011-02-06T10:46:50Z</time>
      </trkpt>
      <trkpt lat="45.61634" lon="5.95958">
        <ele>1149.3935547</ele>
        <time>2011-02-06T10:47:01Z</time>
      </trkpt>
      <trkpt lat="45.61628" lon="5.95957">
        <ele>1150.3549805</ele>
        <time>2011-02-06T10:47:05Z</time>
      </trkpt>
      <trkpt lat="45.61615" lon="5.95959">
        <ele>1159.0065918</ele>
        <time>2011-02-06T10:47:14Z</time>
      </trkpt>
      <trkpt lat="45.6161" lon="5.95962">
        <ele>1158.5258789</ele>
        <time>2011-02-06T10:47:16Z</time>
      </trkpt>
      <trkpt lat="45.61599" lon="5.95964">
        <ele>1156.1225586</ele>
        <time>2011-02-06T10:47:20Z</time>
      </trkpt>
      <trkpt lat="45.61596" lon="5.95965">
        <ele>1155.161377</ele>
        <time>2011-02-06T10:47:21Z</time>
      </trkpt>
      <trkpt lat="45.61588" lon="5.95967">
        <ele>1152.2773438</ele>
        <time>2011-02-06T10:47:24Z</time>
      </trkpt>
      <trkpt lat="45.61579" lon="5.9597">
        <ele>1146.9899902</ele>
        <time>2011-02-06T10:47:28Z</time>
      </trkpt>
      <trkpt lat="45.61573" lon="5.95972">
        <ele>1141.7028809</ele>
        <time>2011-02-06T10:47:31Z</time>
      </trkpt>
      <trkpt lat="45.61567" lon="5.95975">
        <ele>1135.9350586</ele>
        <time>2011-02-06T10:47:34Z</time>
      </trkpt>
      <trkpt lat="45.61559" lon="5.9598">
        <ele>1132.5705566</ele>
        <time>2011-02-06T10:47:37Z</time>
      </trkpt>
      <trkpt lat="45.61555" lon="5.95981">
        <ele>1128.2443848</ele>
        <time>2011-02-06T10:47:40Z</time>
      </trkpt>
      <trkpt lat="45.61554" lon="5.9598">
        <ele>1123.918457</ele>
        <time>2011-02-06T10:47:42Z</time>
      </trkpt>
      <trkpt lat="45.61548" lon="5.95978">
        <ele>1116.7087402</ele>
        <time>2011-02-06T10:47:46Z</time>
      </trkpt>
      <trkpt lat="45.61545" lon="5.95977">
        <ele>1112.3825684</ele>
        <time>2011-02-06T10:47:49Z</time>
      </trkpt>
      <trkpt lat="45.6154" lon="5.95977">
        <ele>1104.6921387</ele>
        <time>2011-02-06T10:47:52Z</time>
      </trkpt>
      <trkpt lat="45.61534" lon="5.95973">
        <ele>1100.8469238</ele>
        <time>2011-02-06T10:47:56Z</time>
      </trkpt>
      <trkpt lat="45.61532" lon="5.95969">
        <ele>1098.4433594</ele>
        <time>2011-02-06T10:47:59Z</time>
      </trkpt>
      <trkpt lat="45.61529" lon="5.9597">
        <ele>1095.5595703</ele>
        <time>2011-02-06T10:48:01Z</time>
      </trkpt>
      <trkpt lat="45.61523" lon="5.95971">
        <ele>1090.2724609</ele>
        <time>2011-02-06T10:48:05Z</time>
      </trkpt>
      <trkpt lat="45.61519" lon="5.95971">
        <ele>1086.4272461</ele>
        <time>2011-02-06T10:48:08Z</time>
      </trkpt>
      <trkpt lat="45.61514" lon="5.95972">
        <ele>1083.0622559</ele>
        <time>2011-02-06T10:48:11Z</time>
      </trkpt>
      <trkpt lat="45.61508" lon="5.95972">
        <ele>1079.6977539</ele>
        <time>2011-02-06T10:48:14Z</time>
      </trkpt>
      <trkpt lat="45.61503" lon="5.9597">
        <ele>1078.2558594</ele>
        <time>2011-02-06T10:48:17Z</time>
      </trkpt>
      <trkpt lat="45.61497" lon="5.9597">
        <ele>1075.8525391</ele>
        <time>2011-02-06T10:48:21Z</time>
      </trkpt>
      <trkpt lat="45.6149" lon="5.95968">
        <ele>1075.8525391</ele>
        <time>2011-02-06T10:48:25Z</time>
      </trkpt>
      <trkpt lat="45.61486" lon="5.95967">
        <ele>1075.8525391</ele>
        <time>2011-02-06T10:48:27Z</time>
      </trkpt>
      <trkpt lat="45.61481" lon="5.95965">
        <ele>1073.9299316</ele>
        <time>2011-02-06T10:48:31Z</time>
      </trkpt>
      <trkpt lat="45.61474" lon="5.95963">
        <ele>1075.8525391</ele>
        <time>2011-02-06T10:48:35Z</time>
      </trkpt>
      <trkpt lat="45.61468" lon="5.95961">
        <ele>1078.2558594</ele>
        <time>2011-02-06T10:48:39Z</time>
      </trkpt>
      <trkpt lat="45.61463" lon="5.95958">
        <ele>1082.5817871</ele>
        <time>2011-02-06T10:48:43Z</time>
      </trkpt>
      <trkpt lat="45.61456" lon="5.95956">
        <ele>1084.5046387</ele>
        <time>2011-02-06T10:48:47Z</time>
      </trkpt>
      <trkpt lat="45.6145" lon="5.9595">
        <ele>1089.3110352</ele>
        <time>2011-02-06T10:48:53Z</time>
      </trkpt>
      <trkpt lat="45.61442" lon="5.95947">
        <ele>1090.7529297</ele>
        <time>2011-02-06T10:48:58Z</time>
      </trkpt>
      <trkpt lat="45.61442" lon="5.95947">
        <ele>1090.7529297</ele>
        <time>2011-02-06T10:48:58Z</time>
      </trkpt>
      <trkpt lat="45.61441" lon="5.95945">
        <ele>1091.2336426</ele>
        <time>2011-02-06T10:48:59Z</time>
      </trkpt>
      <trkpt lat="45.61433" lon="5.95942">
        <ele>1094.1176758</ele>
        <time>2011-02-06T10:49:03Z</time>
      </trkpt>
      <trkpt lat="45.61424" lon="5.95937">
        <ele>1098.4433594</ele>
        <time>2011-02-06T10:49:07Z</time>
      </trkpt>
      <trkpt lat="45.61418" lon="5.9593">
        <ele>1105.1728516</ele>
        <time>2011-02-06T10:49:11Z</time>
      </trkpt>
      <trkpt lat="45.61413" lon="5.95925">
        <ele>1110.9406738</ele>
        <time>2011-02-06T10:49:16Z</time>
      </trkpt>
      <trkpt lat="45.6141" lon="5.95914">
        <ele>1121.5151367</ele>
        <time>2011-02-06T10:49:20Z</time>
      </trkpt>
      <trkpt lat="45.61407" lon="5.95888">
        <ele>1146.0288086</ele>
        <time>2011-02-06T10:49:26Z</time>
      </trkpt>
      <trkpt lat="45.61402" lon="5.95889">
        <ele>1146.9899902</ele>
        <time>2011-02-06T10:49:30Z</time>
      </trkpt>
      <trkpt lat="45.61399" lon="5.95889">
        <ele>1151.796875</ele>
        <time>2011-02-06T10:49:35Z</time>
      </trkpt>
      <trkpt lat="45.61401" lon="5.95893">
        <ele>1156.1225586</ele>
        <time>2011-02-06T10:49:43Z</time>
      </trkpt>
      <trkpt lat="45.61404" lon="5.95898">
        <ele>1154.6806641</ele>
        <time>2011-02-06T10:49:47Z</time>
      </trkpt>
      <trkpt lat="45.61409" lon="5.95904">
        <ele>1154.6806641</ele>
        <time>2011-02-06T10:49:51Z</time>
      </trkpt>
      <trkpt lat="45.61416" lon="5.95911">
        <ele>1155.161377</ele>
        <time>2011-02-06T10:49:57Z</time>
      </trkpt>
      <trkpt lat="45.61421" lon="5.95916">
        <ele>1157.0839844</ele>
        <time>2011-02-06T10:50:01Z</time>
      </trkpt>
      <trkpt lat="45.61425" lon="5.95921">
        <ele>1158.5258789</ele>
        <time>2011-02-06T10:50:05Z</time>
      </trkpt>
      <trkpt lat="45.61422" lon="5.95924">
        <ele>1162.3710938</ele>
        <time>2011-02-06T10:50:10Z</time>
      </trkpt>
      <trkpt lat="45.6142" lon="5.95925">
        <ele>1165.736084</ele>
        <time>2011-02-06T10:50:14Z</time>
      </trkpt>
      <trkpt lat="45.61417" lon="5.95923">
        <ele>1169.5812988</ele>
        <time>2011-02-06T10:50:18Z</time>
      </trkpt>
      <trkpt lat="45.61414" lon="5.95922">
        <ele>1172.9458008</ele>
        <time>2011-02-06T10:50:24Z</time>
      </trkpt>
      <trkpt lat="45.61411" lon="5.95923">
        <ele>1175.348877</ele>
        <time>2011-02-06T10:50:30Z</time>
      </trkpt>
      <trkpt lat="45.61414" lon="5.95929">
        <ele>1175.8295898</ele>
        <time>2011-02-06T10:50:36Z</time>
      </trkpt>
      <trkpt lat="45.61417" lon="5.95933">
        <ele>1177.2717285</ele>
        <time>2011-02-06T10:50:43Z</time>
      </trkpt>
      <trkpt lat="45.61421" lon="5.95936">
        <ele>1177.7521973</ele>
        <time>2011-02-06T10:50:47Z</time>
      </trkpt>
      <trkpt lat="45.61427" lon="5.95943">
        <ele>1176.3103027</ele>
        <time>2011-02-06T10:50:54Z</time>
      </trkpt>
      <trkpt lat="45.61432" lon="5.95949">
        <ele>1175.8295898</ele>
        <time>2011-02-06T10:51:01Z</time>
      </trkpt>
      <trkpt lat="45.61437" lon="5.95954">
        <ele>1175.348877</ele>
        <time>2011-02-06T10:51:06Z</time>
      </trkpt>
      <trkpt lat="45.61441" lon="5.9596">
        <ele>1178.2329102</ele>
        <time>2011-02-06T10:51:13Z</time>
      </trkpt>
      <trkpt lat="45.61437" lon="5.95958">
        <ele>1181.1171875</ele>
        <time>2011-02-06T10:51:18Z</time>
      </trkpt>
      <trkpt lat="45.61437" lon="5.95958">
        <ele>1186.4042969</ele>
        <time>2011-02-06T10:51:24Z</time>
      </trkpt>
      <trkpt lat="45.61434" lon="5.95956">
        <ele>1190.7299805</ele>
        <time>2011-02-06T10:51:30Z</time>
      </trkpt>
      <trkpt lat="45.61434" lon="5.95959">
        <ele>1193.1333008</ele>
        <time>2011-02-06T10:51:37Z</time>
      </trkpt>
      <trkpt lat="45.61437" lon="5.95962">
        <ele>1197.4594727</ele>
        <time>2011-02-06T10:51:42Z</time>
      </trkpt>
      <trkpt lat="45.61437" lon="5.95958">
        <ele>1199.862793</ele>
        <time>2011-02-06T10:51:48Z</time>
      </trkpt>
      <trkpt lat="45.61444" lon="5.95964">
        <ele>1201.7854004</ele>
        <time>2011-02-06T10:51:55Z</time>
      </trkpt>
      <trkpt lat="45.61445" lon="5.95965">
        <ele>1201.3046875</ele>
        <time>2011-02-06T10:52:00Z</time>
      </trkpt>
      <trkpt lat="45.61448" lon="5.95968">
        <ele>1201.3046875</ele>
        <time>2011-02-06T10:52:04Z</time>
      </trkpt>
      <trkpt lat="45.6145" lon="5.95971">
        <ele>1203.2272949</ele>
        <time>2011-02-06T10:52:10Z</time>
      </trkpt>
      <trkpt lat="45.61448" lon="5.95974">
        <ele>1203.7080078</ele>
        <time>2011-02-06T10:52:18Z</time>
      </trkpt>
      <trkpt lat="45.61449" lon="5.95978">
        <ele>1205.1499023</ele>
        <time>2011-02-06T10:52:24Z</time>
      </trkpt>
      <trkpt lat="45.61446" lon="5.9598">
        <ele>1204.1887207</ele>
        <time>2011-02-06T10:52:29Z</time>
      </trkpt>
      <trkpt lat="45.6145" lon="5.95978">
        <ele>1217.6469727</ele>
        <time>2011-02-06T10:52:38Z</time>
      </trkpt>
      <trkpt lat="45.61451" lon="5.95978">
        <ele>1218.1276855</ele>
        <time>2011-02-06T10:52:42Z</time>
      </trkpt>
      <trkpt lat="45.61454" lon="5.95978">
        <ele>1221.4921875</ele>
        <time>2011-02-06T10:52:48Z</time>
      </trkpt>
      <trkpt lat="45.61453" lon="5.95978">
        <ele>1224.3762207</ele>
        <time>2011-02-06T10:52:57Z</time>
      </trkpt>
      <trkpt lat="45.6145" lon="5.9598">
        <ele>1225.3374023</ele>
        <time>2011-02-06T10:53:04Z</time>
      </trkpt>
      <trkpt lat="45.61452" lon="5.95984">
        <ele>1227.7407227</ele>
        <time>2011-02-06T10:53:11Z</time>
      </trkpt>
      <trkpt lat="45.61451" lon="5.95981">
        <ele>1229.6635742</ele>
        <time>2011-02-06T10:53:16Z</time>
      </trkpt>
      <trkpt lat="45.61451" lon="5.95982">
        <ele>1232.0668945</ele>
        <time>2011-02-06T10:53:21Z</time>
      </trkpt>
      <trkpt lat="45.61455" lon="5.95984">
        <ele>1236.3928223</ele>
        <time>2011-02-06T10:53:27Z</time>
      </trkpt>
      <trkpt lat="45.61457" lon="5.95982">
        <ele>1237.8347168</ele>
        <time>2011-02-06T10:53:31Z</time>
      </trkpt>
      <trkpt lat="45.61459" lon="5.95984">
        <ele>1237.8347168</ele>
        <time>2011-02-06T10:53:35Z</time>
      </trkpt>
      <trkpt lat="45.61461" lon="5.95991">
        <ele>1235.4313965</ele>
        <time>2011-02-06T10:53:39Z</time>
      </trkpt>
      <trkpt lat="45.61465" lon="5.95993">
        <ele>1237.3540039</ele>
        <time>2011-02-06T10:53:45Z</time>
      </trkpt>
      <trkpt lat="45.61465" lon="5.96">
        <ele>1233.5087891</ele>
        <time>2011-02-06T10:53:50Z</time>
      </trkpt>
      <trkpt lat="45.61466" lon="5.96003">
        <ele>1236.873291</ele>
        <time>2011-02-06T10:53:59Z</time>
      </trkpt>
      <trkpt lat="45.61468" lon="5.96005">
        <ele>1243.1218262</ele>
        <time>2011-02-06T10:54:09Z</time>
      </trkpt>
      <trkpt lat="45.61462" lon="5.96007">
        <ele>1239.7573242</ele>
        <time>2011-02-06T10:54:16Z</time>
      </trkpt>
      <trkpt lat="45.61457" lon="5.96009">
        <ele>1238.3154297</ele>
        <time>2011-02-06T10:54:21Z</time>
      </trkpt>
      <trkpt lat="45.61457" lon="5.96014">
        <ele>1239.2766113</ele>
        <time>2011-02-06T10:54:31Z</time>
      </trkpt>
      <trkpt lat="45.61456" lon="5.96016">
        <ele>1242.6413574</ele>
        <time>2011-02-06T10:54:36Z</time>
      </trkpt>
      <trkpt lat="45.6145" lon="5.96019">
        <ele>1243.1218262</ele>
        <time>2011-02-06T10:54:46Z</time>
      </trkpt>
      <trkpt lat="45.6145" lon="5.96017">
        <ele>1251.2932129</ele>
        <time>2011-02-06T10:54:54Z</time>
      </trkpt>
      <trkpt lat="45.61454" lon="5.96017">
        <ele>1253.6965332</ele>
        <time>2011-02-06T10:55:00Z</time>
      </trkpt>
      <trkpt lat="45.61456" lon="5.96022">
        <ele>1249.3706055</ele>
        <time>2011-02-06T10:55:04Z</time>
      </trkpt>
      <trkpt lat="45.61458" lon="5.96028">
        <ele>1245.0446777</ele>
        <time>2011-02-06T10:55:08Z</time>
      </trkpt>
      <trkpt lat="45.61457" lon="5.96032">
        <ele>1244.0834961</ele>
        <time>2011-02-06T10:55:12Z</time>
      </trkpt>
      <trkpt lat="45.61454" lon="5.96034">
        <ele>1247.447998</ele>
        <time>2011-02-06T10:55:21Z</time>
      </trkpt>
      <trkpt lat="45.61459" lon="5.96035">
        <ele>1250.3320313</ele>
        <time>2011-02-06T10:55:28Z</time>
      </trkpt>
      <trkpt lat="45.61456" lon="5.96037">
        <ele>1251.7739258</ele>
        <time>2011-02-06T10:55:33Z</time>
      </trkpt>
      <trkpt lat="45.61453" lon="5.96043">
        <ele>1251.7739258</ele>
        <time>2011-02-06T10:55:42Z</time>
      </trkpt>
      <trkpt lat="45.61454" lon="5.96047">
        <ele>1252.2543945</ele>
        <time>2011-02-06T10:55:46Z</time>
      </trkpt>
      <trkpt lat="45.61457" lon="5.96053">
        <ele>1254.6577148</ele>
        <time>2011-02-06T10:55:50Z</time>
      </trkpt>
      <trkpt lat="45.61461" lon="5.96059">
        <ele>1256.5803223</ele>
        <time>2011-02-06T10:55:57Z</time>
      </trkpt>
      <trkpt lat="45.61464" lon="5.96064">
        <ele>1260.4257813</ele>
        <time>2011-02-06T10:56:01Z</time>
      </trkpt>
      <trkpt lat="45.61466" lon="5.96072">
        <ele>1260.4257813</ele>
        <time>2011-02-06T10:56:07Z</time>
      </trkpt>
      <trkpt lat="45.61468" lon="5.96078">
        <ele>1267.1550293</ele>
        <time>2011-02-06T10:56:14Z</time>
      </trkpt>
      <trkpt lat="45.61471" lon="5.96084">
        <ele>1274.845459</ele>
        <time>2011-02-06T10:56:21Z</time>
      </trkpt>
      <trkpt lat="45.61472" lon="5.96094">
        <ele>1283.4973145</ele>
        <time>2011-02-06T10:56:32Z</time>
      </trkpt>
      <trkpt lat="45.61461" lon="5.96095">
        <ele>1280.1328125</ele>
        <time>2011-02-06T10:56:41Z</time>
      </trkpt>
      <trkpt lat="45.61458" lon="5.96093">
        <ele>1277.7294922</ele>
        <time>2011-02-06T10:56:46Z</time>
      </trkpt>
      <trkpt lat="45.61453" lon="5.9609">
        <ele>1274.845459</ele>
        <time>2011-02-06T10:56:51Z</time>
      </trkpt>
      <trkpt lat="45.61449" lon="5.96088">
        <ele>1270.0388184</ele>
        <time>2011-02-06T10:56:56Z</time>
      </trkpt>
      <trkpt lat="45.61446" lon="5.96076">
        <ele>1279.1713867</ele>
        <time>2011-02-06T10:57:04Z</time>
      </trkpt>
      <trkpt lat="45.61441" lon="5.96072">
        <ele>1279.1713867</ele>
        <time>2011-02-06T10:57:10Z</time>
      </trkpt>
      <trkpt lat="45.61438" lon="5.96071">
        <ele>1278.690918</ele>
        <time>2011-02-06T10:57:18Z</time>
      </trkpt>
      <trkpt lat="45.61433" lon="5.9607">
        <ele>1277.7294922</ele>
        <time>2011-02-06T10:57:24Z</time>
      </trkpt>
      <trkpt lat="45.6143" lon="5.96067">
        <ele>1280.1328125</ele>
        <time>2011-02-06T10:57:31Z</time>
      </trkpt>
      <trkpt lat="45.61427" lon="5.96065">
        <ele>1280.6135254</ele>
        <time>2011-02-06T10:57:38Z</time>
      </trkpt>
      <trkpt lat="45.61426" lon="5.96059">
        <ele>1283.0166016</ele>
        <time>2011-02-06T10:57:44Z</time>
      </trkpt>
      <trkpt lat="45.61422" lon="5.96052">
        <ele>1285.9006348</ele>
        <time>2011-02-06T10:57:54Z</time>
      </trkpt>
      <trkpt lat="45.61416" lon="5.9605">
        <ele>1286.8618164</ele>
        <time>2011-02-06T10:58:00Z</time>
      </trkpt>
      <trkpt lat="45.61413" lon="5.96048">
        <ele>1288.784668</ele>
        <time>2011-02-06T10:58:06Z</time>
      </trkpt>
      <trkpt lat="45.61411" lon="5.96046">
        <ele>1293.1105957</ele>
        <time>2011-02-06T10:58:12Z</time>
      </trkpt>
      <trkpt lat="45.61407" lon="5.96046">
        <ele>1293.5913086</ele>
        <time>2011-02-06T10:58:17Z</time>
      </trkpt>
      <trkpt lat="45.61404" lon="5.9605">
        <ele>1294.0720215</ele>
        <time>2011-02-06T10:58:25Z</time>
      </trkpt>
      <trkpt lat="45.61405" lon="5.96056">
        <ele>1294.5524902</ele>
        <time>2011-02-06T10:58:32Z</time>
      </trkpt>
      <trkpt lat="45.61405" lon="5.9606">
        <ele>1295.513916</ele>
        <time>2011-02-06T10:58:41Z</time>
      </trkpt>
      <trkpt lat="45.61403" lon="5.96064">
        <ele>1298.878418</ele>
        <time>2011-02-06T10:58:47Z</time>
      </trkpt>
      <trkpt lat="45.61399" lon="5.96066">
        <ele>1300.8010254</ele>
        <time>2011-02-06T10:58:51Z</time>
      </trkpt>
      <trkpt lat="45.61395" lon="5.9607">
        <ele>1300.8010254</ele>
        <time>2011-02-06T10:58:55Z</time>
      </trkpt>
      <trkpt lat="45.61392" lon="5.96074">
        <ele>1301.7624512</ele>
        <time>2011-02-06T10:58:59Z</time>
      </trkpt>
      <trkpt lat="45.61389" lon="5.96078">
        <ele>1303.2043457</ele>
        <time>2011-02-06T10:59:03Z</time>
      </trkpt>
      <trkpt lat="45.61387" lon="5.96083">
        <ele>1303.6850586</ele>
        <time>2011-02-06T10:59:07Z</time>
      </trkpt>
      <trkpt lat="45.61385" lon="5.96088">
        <ele>1303.2043457</ele>
        <time>2011-02-06T10:59:12Z</time>
      </trkpt>
      <trkpt lat="45.61384" lon="5.96095">
        <ele>1305.1269531</ele>
        <time>2011-02-06T10:59:19Z</time>
      </trkpt>
      <trkpt lat="45.61383" lon="5.96099">
        <ele>1306.5688477</ele>
        <time>2011-02-06T10:59:25Z</time>
      </trkpt>
      <trkpt lat="45.61382" lon="5.96103">
        <ele>1308.0112305</ele>
        <time>2011-02-06T10:59:30Z</time>
      </trkpt>
      <trkpt lat="45.61383" lon="5.96108">
        <ele>1309.453125</ele>
        <time>2011-02-06T10:59:35Z</time>
      </trkpt>
      <trkpt lat="45.61384" lon="5.96112">
        <ele>1311.8564453</ele>
        <time>2011-02-06T10:59:42Z</time>
      </trkpt>
      <trkpt lat="45.61383" lon="5.96117">
        <ele>1313.7788086</ele>
        <time>2011-02-06T10:59:47Z</time>
      </trkpt>
      <trkpt lat="45.61383" lon="5.96123">
        <ele>1314.7402344</ele>
        <time>2011-02-06T10:59:53Z</time>
      </trkpt>
      <trkpt lat="45.61382" lon="5.96128">
        <ele>1314.2595215</ele>
        <time>2011-02-06T10:59:58Z</time>
      </trkpt>
      <trkpt lat="45.61382" lon="5.96131">
        <ele>1315.2209473</ele>
        <time>2011-02-06T11:00:02Z</time>
      </trkpt>
      <trkpt lat="45.61382" lon="5.96135">
        <ele>1317.1435547</ele>
        <time>2011-02-06T11:00:06Z</time>
      </trkpt>
      <trkpt lat="45.61383" lon="5.96139">
        <ele>1319.0661621</ele>
        <time>2011-02-06T11:00:12Z</time>
      </trkpt>
      <trkpt lat="45.61382" lon="5.96143">
        <ele>1320.5080566</ele>
        <time>2011-02-06T11:00:19Z</time>
      </trkpt>
      <trkpt lat="45.61381" lon="5.96145">
        <ele>1320.9887695</ele>
        <time>2011-02-06T11:00:28Z</time>
      </trkpt>
      <trkpt lat="45.61383" lon="5.9615">
        <ele>1320.9887695</ele>
        <time>2011-02-06T11:00:34Z</time>
      </trkpt>
      <trkpt lat="45.61383" lon="5.96153">
        <ele>1321.4692383</ele>
        <time>2011-02-06T11:00:38Z</time>
      </trkpt>
      <trkpt lat="45.61384" lon="5.96157">
        <ele>1322.4306641</ele>
        <time>2011-02-06T11:00:42Z</time>
      </trkpt>
      <trkpt lat="45.61385" lon="5.9616">
        <ele>1322.911377</ele>
        <time>2011-02-06T11:00:46Z</time>
      </trkpt>
      <trkpt lat="45.61385" lon="5.96164">
        <ele>1322.911377</ele>
        <time>2011-02-06T11:00:51Z</time>
      </trkpt>
      <trkpt lat="45.61384" lon="5.96168">
        <ele>1323.8725586</ele>
        <time>2011-02-06T11:00:56Z</time>
      </trkpt>
      <trkpt lat="45.61384" lon="5.96172">
        <ele>1326.276123</ele>
        <time>2011-02-06T11:01:00Z</time>
      </trkpt>
      <trkpt lat="45.61384" lon="5.96176">
        <ele>1327.2375488</ele>
        <time>2011-02-06T11:01:04Z</time>
      </trkpt>
      <trkpt lat="45.61384" lon="5.96181">
        <ele>1328.6794434</ele>
        <time>2011-02-06T11:01:08Z</time>
      </trkpt>
      <trkpt lat="45.61384" lon="5.96185">
        <ele>1330.1213379</ele>
        <time>2011-02-06T11:01:12Z</time>
      </trkpt>
      <trkpt lat="45.61383" lon="5.96189">
        <ele>1332.0439453</ele>
        <time>2011-02-06T11:01:16Z</time>
      </trkpt>
      <trkpt lat="45.61383" lon="5.96193">
        <ele>1333.005127</ele>
        <time>2011-02-06T11:01:20Z</time>
      </trkpt>
      <trkpt lat="45.61383" lon="5.96196">
        <ele>1333.4858398</ele>
        <time>2011-02-06T11:01:24Z</time>
      </trkpt>
      <trkpt lat="45.61383" lon="5.96198">
        <ele>1334.4472656</ele>
        <time>2011-02-06T11:01:29Z</time>
      </trkpt>
      <trkpt lat="45.61383" lon="5.96197">
        <ele>1333.9665527</ele>
        <time>2011-02-06T11:01:40Z</time>
      </trkpt>
      <trkpt lat="45.61368" lon="5.96207">
        <ele>1335.8891602</ele>
        <time>2011-02-06T11:04:38Z</time>
      </trkpt>
      <trkpt lat="45.61367" lon="5.96207">
        <ele>1335.8891602</ele>
        <time>2011-02-06T11:04:39Z</time>
      </trkpt>
      <trkpt lat="45.61364" lon="5.96209">
        <ele>1335.4084473</ele>
        <time>2011-02-06T11:04:42Z</time>
      </trkpt>
      <trkpt lat="45.61362" lon="5.96211">
        <ele>1333.4858398</ele>
        <time>2011-02-06T11:04:45Z</time>
      </trkpt>
      <trkpt lat="45.61359" lon="5.96212">
        <ele>1332.5246582</ele>
        <time>2011-02-06T11:04:49Z</time>
      </trkpt>
      <trkpt lat="45.61357" lon="5.96214">
        <ele>1332.0439453</ele>
        <time>2011-02-06T11:04:51Z</time>
      </trkpt>
      <trkpt lat="45.6135" lon="5.96221">
        <ele>1330.6020508</ele>
        <time>2011-02-06T11:04:55Z</time>
      </trkpt>
      <trkpt lat="45.61343" lon="5.96226">
        <ele>1329.1599121</ele>
        <time>2011-02-06T11:04:58Z</time>
      </trkpt>
      <trkpt lat="45.61339" lon="5.9623">
        <ele>1328.6794434</ele>
        <time>2011-02-06T11:05:00Z</time>
      </trkpt>
      <trkpt lat="45.61331" lon="5.96232">
        <ele>1328.1987305</ele>
        <time>2011-02-06T11:05:03Z</time>
      </trkpt>
      <trkpt lat="45.61327" lon="5.96233">
        <ele>1327.2375488</ele>
        <time>2011-02-06T11:05:05Z</time>
      </trkpt>
      <trkpt lat="45.61322" lon="5.9624">
        <ele>1325.7954102</ele>
        <time>2011-02-06T11:05:08Z</time>
      </trkpt>
      <trkpt lat="45.61317" lon="5.96244">
        <ele>1324.8342285</ele>
        <time>2011-02-06T11:05:10Z</time>
      </trkpt>
      <trkpt lat="45.61312" lon="5.96245">
        <ele>1322.911377</ele>
        <time>2011-02-06T11:05:13Z</time>
      </trkpt>
      <trkpt lat="45.61303" lon="5.96246">
        <ele>1317.6240234</ele>
        <time>2011-02-06T11:05:18Z</time>
      </trkpt>
      <trkpt lat="45.61295" lon="5.96253">
        <ele>1312.817627</ele>
        <time>2011-02-06T11:05:22Z</time>
      </trkpt>
      <trkpt lat="45.61288" lon="5.96258">
        <ele>1310.4143066</ele>
        <time>2011-02-06T11:05:25Z</time>
      </trkpt>
      <trkpt lat="45.61284" lon="5.9626">
        <ele>1308.9724121</ele>
        <time>2011-02-06T11:05:27Z</time>
      </trkpt>
      <trkpt lat="45.61275" lon="5.96263">
        <ele>1305.1269531</ele>
        <time>2011-02-06T11:05:31Z</time>
      </trkpt>
      <trkpt lat="45.61269" lon="5.96266">
        <ele>1303.2043457</ele>
        <time>2011-02-06T11:05:34Z</time>
      </trkpt>
      <trkpt lat="45.61266" lon="5.96266">
        <ele>1301.7624512</ele>
        <time>2011-02-06T11:05:35Z</time>
      </trkpt>
      <trkpt lat="45.61259" lon="5.96274">
        <ele>1297.4365234</ele>
        <time>2011-02-06T11:05:39Z</time>
      </trkpt>
      <trkpt lat="45.61255" lon="5.96281">
        <ele>1294.5524902</ele>
        <time>2011-02-06T11:05:42Z</time>
      </trkpt>
      <trkpt lat="45.61253" lon="5.96283">
        <ele>1293.1105957</ele>
        <time>2011-02-06T11:05:43Z</time>
      </trkpt>
      <trkpt lat="45.61247" lon="5.96292">
        <ele>1293.1105957</ele>
        <time>2011-02-06T11:05:47Z</time>
      </trkpt>
      <trkpt lat="45.61246" lon="5.96293">
        <ele>1292.1494141</ele>
        <time>2011-02-06T11:05:48Z</time>
      </trkpt>
      <trkpt lat="45.61242" lon="5.96303">
        <ele>1283.4973145</ele>
        <time>2011-02-06T11:05:52Z</time>
      </trkpt>
      <trkpt lat="45.61236" lon="5.9631">
        <ele>1279.1713867</ele>
        <time>2011-02-06T11:05:55Z</time>
      </trkpt>
      <trkpt lat="45.61232" lon="5.96317">
        <ele>1275.8066406</ele>
        <time>2011-02-06T11:05:58Z</time>
      </trkpt>
      <trkpt lat="45.61229" lon="5.96319">
        <ele>1277.2490234</ele>
        <time>2011-02-06T11:05:59Z</time>
      </trkpt>
      <trkpt lat="45.61219" lon="5.96318">
        <ele>1275.3259277</ele>
        <time>2011-02-06T11:06:03Z</time>
      </trkpt>
      <trkpt lat="45.61215" lon="5.96318">
        <ele>1273.8840332</ele>
        <time>2011-02-06T11:06:05Z</time>
      </trkpt>
      <trkpt lat="45.61204" lon="5.9632">
        <ele>1271.4807129</ele>
        <time>2011-02-06T11:06:09Z</time>
      </trkpt>
      <trkpt lat="45.61195" lon="5.9632">
        <ele>1270.0388184</ele>
        <time>2011-02-06T11:06:13Z</time>
      </trkpt>
      <trkpt lat="45.61188" lon="5.96321">
        <ele>1268.1162109</ele>
        <time>2011-02-06T11:06:16Z</time>
      </trkpt>
      <trkpt lat="45.61179" lon="5.96321">
        <ele>1271.4807129</ele>
        <time>2011-02-06T11:06:19Z</time>
      </trkpt>
      <trkpt lat="45.6117" lon="5.96321">
        <ele>1275.8066406</ele>
        <time>2011-02-06T11:06:22Z</time>
      </trkpt>
      <trkpt lat="45.61167" lon="5.9632">
        <ele>1275.8066406</ele>
        <time>2011-02-06T11:06:23Z</time>
      </trkpt>
      <trkpt lat="45.61156" lon="5.96322">
        <ele>1271.9614258</ele>
        <time>2011-02-06T11:06:27Z</time>
      </trkpt>
      <trkpt lat="45.61144" lon="5.96323">
        <ele>1273.4035645</ele>
        <time>2011-02-06T11:06:31Z</time>
      </trkpt>
      <trkpt lat="45.61131" lon="5.96322">
        <ele>1278.690918</ele>
        <time>2011-02-06T11:06:35Z</time>
      </trkpt>
      <trkpt lat="45.61118" lon="5.96317">
        <ele>1284.4587402</ele>
        <time>2011-02-06T11:06:39Z</time>
      </trkpt>
      <trkpt lat="45.61108" lon="5.96311">
        <ele>1287.3425293</ele>
        <time>2011-02-06T11:06:42Z</time>
      </trkpt>
      <trkpt lat="45.61096" lon="5.96306">
        <ele>1288.784668</ele>
        <time>2011-02-06T11:06:46Z</time>
      </trkpt>
      <trkpt lat="45.6109" lon="5.96303">
        <ele>1286.8618164</ele>
        <time>2011-02-06T11:06:49Z</time>
      </trkpt>
      <trkpt lat="45.61083" lon="5.96301">
        <ele>1284.9394531</ele>
        <time>2011-02-06T11:06:52Z</time>
      </trkpt>
      <trkpt lat="45.61075" lon="5.96298">
        <ele>1283.9780273</ele>
        <time>2011-02-06T11:06:55Z</time>
      </trkpt>
      <trkpt lat="45.61065" lon="5.96297">
        <ele>1283.4973145</ele>
        <time>2011-02-06T11:06:58Z</time>
      </trkpt>
      <trkpt lat="45.61056" lon="5.96295">
        <ele>1283.9780273</ele>
        <time>2011-02-06T11:07:01Z</time>
      </trkpt>
      <trkpt lat="45.61049" lon="5.96294">
        <ele>1284.4587402</ele>
        <time>2011-02-06T11:07:03Z</time>
      </trkpt>
      <trkpt lat="45.61042" lon="5.96292">
        <ele>1285.9006348</ele>
        <time>2011-02-06T11:07:05Z</time>
      </trkpt>
      <trkpt lat="45.61036" lon="5.96291">
        <ele>1286.3813477</ele>
        <time>2011-02-06T11:07:07Z</time>
      </trkpt>
      <trkpt lat="45.6103" lon="5.96292">
        <ele>1285.9006348</ele>
        <time>2011-02-06T11:07:09Z</time>
      </trkpt>
      <trkpt lat="45.61025" lon="5.96292">
        <ele>1285.9006348</ele>
        <time>2011-02-06T11:07:11Z</time>
      </trkpt>
      <trkpt lat="45.6102" lon="5.96292">
        <ele>1285.4199219</ele>
        <time>2011-02-06T11:07:13Z</time>
      </trkpt>
      <trkpt lat="45.61014" lon="5.96291">
        <ele>1285.9006348</ele>
        <time>2011-02-06T11:07:15Z</time>
      </trkpt>
      <trkpt lat="45.61002" lon="5.96285">
        <ele>1291.668457</ele>
        <time>2011-02-06T11:07:18Z</time>
      </trkpt>
      <trkpt lat="45.60997" lon="5.96281">
        <ele>1291.1877441</ele>
        <time>2011-02-06T11:07:20Z</time>
      </trkpt>
      <trkpt lat="45.60995" lon="5.96279">
        <ele>1290.7070313</ele>
        <time>2011-02-06T11:07:21Z</time>
      </trkpt>
      <trkpt lat="45.60988" lon="5.96271">
        <ele>1289.2651367</ele>
        <time>2011-02-06T11:07:24Z</time>
      </trkpt>
      <trkpt lat="45.60984" lon="5.96265">
        <ele>1288.3039551</ele>
        <time>2011-02-06T11:07:26Z</time>
      </trkpt>
      <trkpt lat="45.6098" lon="5.9626">
        <ele>1288.3039551</ele>
        <time>2011-02-06T11:07:28Z</time>
      </trkpt>
      <trkpt lat="45.60975" lon="5.96257">
        <ele>1287.8232422</ele>
        <time>2011-02-06T11:07:30Z</time>
      </trkpt>
      <trkpt lat="45.60973" lon="5.96255">
        <ele>1287.8232422</ele>
        <time>2011-02-06T11:07:31Z</time>
      </trkpt>
      <trkpt lat="45.60973" lon="5.96255">
        <ele>1287.8232422</ele>
        <time>2011-02-06T11:07:31Z</time>
      </trkpt>
      <trkpt lat="45.60967" lon="5.96252">
        <ele>1288.784668</ele>
        <time>2011-02-06T11:07:33Z</time>
      </trkpt>
      <trkpt lat="45.60963" lon="5.96248">
        <ele>1287.3425293</ele>
        <time>2011-02-06T11:07:35Z</time>
      </trkpt>
      <trkpt lat="45.60959" lon="5.96246">
        <ele>1285.9006348</ele>
        <time>2011-02-06T11:07:37Z</time>
      </trkpt>
      <trkpt lat="45.60955" lon="5.96244">
        <ele>1284.4587402</ele>
        <time>2011-02-06T11:07:39Z</time>
      </trkpt>
      <trkpt lat="45.60951" lon="5.96241">
        <ele>1282.5361328</ele>
        <time>2011-02-06T11:07:41Z</time>
      </trkpt>
      <trkpt lat="45.60945" lon="5.96234">
        <ele>1280.1328125</ele>
        <time>2011-02-06T11:07:44Z</time>
      </trkpt>
      <trkpt lat="45.60942" lon="5.96225">
        <ele>1276.7683105</ele>
        <time>2011-02-06T11:07:47Z</time>
      </trkpt>
      <trkpt lat="45.60938" lon="5.96221">
        <ele>1274.845459</ele>
        <time>2011-02-06T11:07:49Z</time>
      </trkpt>
      <trkpt lat="45.60935" lon="5.96218">
        <ele>1273.4035645</ele>
        <time>2011-02-06T11:07:51Z</time>
      </trkpt>
      <trkpt lat="45.60928" lon="5.96216">
        <ele>1271.0002441</ele>
        <time>2011-02-06T11:07:54Z</time>
      </trkpt>
      <trkpt lat="45.60921" lon="5.96213">
        <ele>1270.5195313</ele>
        <time>2011-02-06T11:07:57Z</time>
      </trkpt>
      <trkpt lat="45.60914" lon="5.96211">
        <ele>1269.0776367</ele>
        <time>2011-02-06T11:08:00Z</time>
      </trkpt>
      <trkpt lat="45.60908" lon="5.96209">
        <ele>1268.5969238</ele>
        <time>2011-02-06T11:08:02Z</time>
      </trkpt>
      <trkpt lat="45.60902" lon="5.9621">
        <ele>1265.7131348</ele>
        <time>2011-02-06T11:08:05Z</time>
      </trkpt>
      <trkpt lat="45.60896" lon="5.96212">
        <ele>1264.2709961</ele>
        <time>2011-02-06T11:08:08Z</time>
      </trkpt>
      <trkpt lat="45.60894" lon="5.96213">
        <ele>1263.3098145</ele>
        <time>2011-02-06T11:08:09Z</time>
      </trkpt>
      <trkpt lat="45.60886" lon="5.96221">
        <ele>1261.8679199</ele>
        <time>2011-02-06T11:08:13Z</time>
      </trkpt>
      <trkpt lat="45.60878" lon="5.96227">
        <ele>1259.4643555</ele>
        <time>2011-02-06T11:08:18Z</time>
      </trkpt>
      <trkpt lat="45.60873" lon="5.96233">
        <ele>1259.9448242</ele>
        <time>2011-02-06T11:08:21Z</time>
      </trkpt>
      <trkpt lat="45.60867" lon="5.96237">
        <ele>1257.0610352</ele>
        <time>2011-02-06T11:08:24Z</time>
      </trkpt>
      <trkpt lat="45.60862" lon="5.96242">
        <ele>1255.6191406</ele>
        <time>2011-02-06T11:08:27Z</time>
      </trkpt>
      <trkpt lat="45.60861" lon="5.96245">
        <ele>1255.1384277</ele>
        <time>2011-02-06T11:08:31Z</time>
      </trkpt>
      <trkpt lat="45.60858" lon="5.96249">
        <ele>1254.1772461</ele>
        <time>2011-02-06T11:08:36Z</time>
      </trkpt>
      <trkpt lat="45.60854" lon="5.96258">
        <ele>1252.7351074</ele>
        <time>2011-02-06T11:08:40Z</time>
      </trkpt>
      <trkpt lat="45.6085" lon="5.96261">
        <ele>1250.8125</ele>
        <time>2011-02-06T11:08:43Z</time>
      </trkpt>
      <trkpt lat="45.60846" lon="5.96264">
        <ele>1248.4091797</ele>
        <time>2011-02-06T11:08:46Z</time>
      </trkpt>
      <trkpt lat="45.60846" lon="5.96272">
        <ele>1242.6413574</ele>
        <time>2011-02-06T11:08:50Z</time>
      </trkpt>
      <trkpt lat="45.60845" lon="5.96281">
        <ele>1240.2380371</ele>
        <time>2011-02-06T11:08:53Z</time>
      </trkpt>
      <trkpt lat="45.60846" lon="5.96285">
        <ele>1236.3928223</ele>
        <time>2011-02-06T11:08:56Z</time>
      </trkpt>
      <trkpt lat="45.60847" lon="5.96291">
        <ele>1231.5861816</ele>
        <time>2011-02-06T11:08:59Z</time>
      </trkpt>
      <trkpt lat="45.60848" lon="5.963">
        <ele>1227.2602539</ele>
        <time>2011-02-06T11:09:03Z</time>
      </trkpt>
      <trkpt lat="45.60851" lon="5.96306">
        <ele>1224.3762207</ele>
        <time>2011-02-06T11:09:07Z</time>
      </trkpt>
      <trkpt lat="45.60856" lon="5.96312">
        <ele>1222.4536133</ele>
        <time>2011-02-06T11:09:11Z</time>
      </trkpt>
      <trkpt lat="45.60858" lon="5.96315">
        <ele>1221.4921875</ele>
        <time>2011-02-06T11:09:13Z</time>
      </trkpt>
      <trkpt lat="45.60857" lon="5.96326">
        <ele>1220.050293</ele>
        <time>2011-02-06T11:09:18Z</time>
      </trkpt>
      <trkpt lat="45.60853" lon="5.96332">
        <ele>1218.1276855</ele>
        <time>2011-02-06T11:09:21Z</time>
      </trkpt>
      <trkpt lat="45.60843" lon="5.9634">
        <ele>1217.6469727</ele>
        <time>2011-02-06T11:09:25Z</time>
      </trkpt>
      <trkpt lat="45.60837" lon="5.96344">
        <ele>1214.2824707</ele>
        <time>2011-02-06T11:09:28Z</time>
      </trkpt>
      <trkpt lat="45.6083" lon="5.96348">
        <ele>1212.3598633</ele>
        <time>2011-02-06T11:09:32Z</time>
      </trkpt>
      <trkpt lat="45.60825" lon="5.96349">
        <ele>1209.4758301</ele>
        <time>2011-02-06T11:09:35Z</time>
      </trkpt>
      <trkpt lat="45.60823" lon="5.9635">
        <ele>1208.9951172</ele>
        <time>2011-02-06T11:09:36Z</time>
      </trkpt>
      <trkpt lat="45.60817" lon="5.96356">
        <ele>1210.4370117</ele>
        <time>2011-02-06T11:09:41Z</time>
      </trkpt>
      <trkpt lat="45.60818" lon="5.96358">
        <ele>1209.9562988</ele>
        <time>2011-02-06T11:09:45Z</time>
      </trkpt>
      <trkpt lat="45.60816" lon="5.96369">
        <ele>1209.9562988</ele>
        <time>2011-02-06T11:09:49Z</time>
      </trkpt>
      <trkpt lat="45.60814" lon="5.96376">
        <ele>1210.4370117</ele>
        <time>2011-02-06T11:09:52Z</time>
      </trkpt>
      <trkpt lat="45.60814" lon="5.96385">
        <ele>1206.5917969</ele>
        <time>2011-02-06T11:09:58Z</time>
      </trkpt>
      <trkpt lat="45.60817" lon="5.96392">
        <ele>1203.2272949</ele>
        <time>2011-02-06T11:10:02Z</time>
      </trkpt>
      <trkpt lat="45.60817" lon="5.96403">
        <ele>1199.3820801</ele>
        <time>2011-02-06T11:10:06Z</time>
      </trkpt>
      <trkpt lat="45.60819" lon="5.96407">
        <ele>1195.5366211</ele>
        <time>2011-02-06T11:10:09Z</time>
      </trkpt>
      <trkpt lat="45.6082" lon="5.96416">
        <ele>1191.6914063</ele>
        <time>2011-02-06T11:10:13Z</time>
      </trkpt>
      <trkpt lat="45.6082" lon="5.96426">
        <ele>1190.7299805</ele>
        <time>2011-02-06T11:10:16Z</time>
      </trkpt>
      <trkpt lat="45.6082" lon="5.96428">
        <ele>1189.7687988</ele>
        <time>2011-02-06T11:10:17Z</time>
      </trkpt>
      <trkpt lat="45.60822" lon="5.96434">
        <ele>1185.4428711</ele>
        <time>2011-02-06T11:10:21Z</time>
      </trkpt>
      <trkpt lat="45.60822" lon="5.96446">
        <ele>1184.9624023</ele>
        <time>2011-02-06T11:10:25Z</time>
      </trkpt>
      <trkpt lat="45.60818" lon="5.96458">
        <ele>1185.923584</ele>
        <time>2011-02-06T11:10:28Z</time>
      </trkpt>
      <trkpt lat="45.60813" lon="5.96464">
        <ele>1182.559082</ele>
        <time>2011-02-06T11:10:31Z</time>
      </trkpt>
      <trkpt lat="45.60809" lon="5.96466">
        <ele>1178.2329102</ele>
        <time>2011-02-06T11:10:35Z</time>
      </trkpt>
      <trkpt lat="45.60806" lon="5.9647">
        <ele>1176.7910156</ele>
        <time>2011-02-06T11:10:37Z</time>
      </trkpt>
      <trkpt lat="45.60803" lon="5.96473">
        <ele>1174.8684082</ele>
        <time>2011-02-06T11:10:39Z</time>
      </trkpt>
      <trkpt lat="45.60798" lon="5.96482">
        <ele>1172.9458008</ele>
        <time>2011-02-06T11:10:44Z</time>
      </trkpt>
      <trkpt lat="45.60795" lon="5.96488">
        <ele>1169.1005859</ele>
        <time>2011-02-06T11:10:48Z</time>
      </trkpt>
      <trkpt lat="45.60792" lon="5.96497">
        <ele>1164.2939453</ele>
        <time>2011-02-06T11:10:52Z</time>
      </trkpt>
      <trkpt lat="45.6079" lon="5.96504">
        <ele>1157.5646973</ele>
        <time>2011-02-06T11:10:56Z</time>
      </trkpt>
      <trkpt lat="45.60786" lon="5.9651">
        <ele>1155.161377</ele>
        <time>2011-02-06T11:11:00Z</time>
      </trkpt>
      <trkpt lat="45.60783" lon="5.96519">
        <ele>1156.1225586</ele>
        <time>2011-02-06T11:11:03Z</time>
      </trkpt>
      <trkpt lat="45.6078" lon="5.96527">
        <ele>1152.2773438</ele>
        <time>2011-02-06T11:11:07Z</time>
      </trkpt>
      <trkpt lat="45.60777" lon="5.96534">
        <ele>1148.9128418</ele>
        <time>2011-02-06T11:11:11Z</time>
      </trkpt>
      <trkpt lat="45.60773" lon="5.96545">
        <ele>1146.5095215</ele>
        <time>2011-02-06T11:11:15Z</time>
      </trkpt>
      <trkpt lat="45.60771" lon="5.96555">
        <ele>1143.6254883</ele>
        <time>2011-02-06T11:11:19Z</time>
      </trkpt>
      <trkpt lat="45.60771" lon="5.96566">
        <ele>1137.3769531</ele>
        <time>2011-02-06T11:11:23Z</time>
      </trkpt>
      <trkpt lat="45.6077" lon="5.9657">
        <ele>1130.6477051</ele>
        <time>2011-02-06T11:11:27Z</time>
      </trkpt>
      <trkpt lat="45.60768" lon="5.96585">
        <ele>1128.2443848</ele>
        <time>2011-02-06T11:11:31Z</time>
      </trkpt>
      <trkpt lat="45.60766" lon="5.96597">
        <ele>1124.3991699</ele>
        <time>2011-02-06T11:11:35Z</time>
      </trkpt>
      <trkpt lat="45.60764" lon="5.96605">
        <ele>1118.1506348</ele>
        <time>2011-02-06T11:11:41Z</time>
      </trkpt>
      <trkpt lat="45.60763" lon="5.96613">
        <ele>1114.3051758</ele>
        <time>2011-02-06T11:11:47Z</time>
      </trkpt>
      <trkpt lat="45.6076" lon="5.9662">
        <ele>1107.095459</ele>
        <time>2011-02-06T11:11:53Z</time>
      </trkpt>
      <trkpt lat="45.60758" lon="5.96627">
        <ele>1102.2888184</ele>
        <time>2011-02-06T11:11:58Z</time>
      </trkpt>
      <trkpt lat="45.60759" lon="5.96632">
        <ele>1098.9240723</ele>
        <time>2011-02-06T11:12:01Z</time>
      </trkpt>
      <trkpt lat="45.60757" lon="5.96643">
        <ele>1094.1176758</ele>
        <time>2011-02-06T11:12:05Z</time>
      </trkpt>
      <trkpt lat="45.60755" lon="5.96655">
        <ele>1091.2336426</ele>
        <time>2011-02-06T11:12:08Z</time>
      </trkpt>
      <trkpt lat="45.60752" lon="5.9667">
        <ele>1088.8305664</ele>
        <time>2011-02-06T11:12:11Z</time>
      </trkpt>
      <trkpt lat="45.60747" lon="5.96681">
        <ele>1085.9465332</ele>
        <time>2011-02-06T11:12:14Z</time>
      </trkpt>
      <trkpt lat="45.60744" lon="5.96689">
        <ele>1084.5046387</ele>
        <time>2011-02-06T11:12:16Z</time>
      </trkpt>
      <trkpt lat="45.60741" lon="5.96696">
        <ele>1082.5817871</ele>
        <time>2011-02-06T11:12:18Z</time>
      </trkpt>
      <trkpt lat="45.60738" lon="5.96704">
        <ele>1081.6203613</ele>
        <time>2011-02-06T11:12:20Z</time>
      </trkpt>
      <trkpt lat="45.60734" lon="5.96712">
        <ele>1082.1010742</ele>
        <time>2011-02-06T11:12:22Z</time>
      </trkpt>
      <trkpt lat="45.60731" lon="5.96717">
        <ele>1079.6977539</ele>
        <time>2011-02-06T11:12:24Z</time>
      </trkpt>
      <trkpt lat="45.60729" lon="5.9672">
        <ele>1079.217041</ele>
        <time>2011-02-06T11:12:25Z</time>
      </trkpt>
      <trkpt lat="45.60721" lon="5.96726">
        <ele>1075.3718262</ele>
        <time>2011-02-06T11:12:29Z</time>
      </trkpt>
      <trkpt lat="45.60714" lon="5.9673">
        <ele>1072.4880371</ele>
        <time>2011-02-06T11:12:32Z</time>
      </trkpt>
      <trkpt lat="45.60706" lon="5.96736">
        <ele>1071.5266113</ele>
        <time>2011-02-06T11:12:35Z</time>
      </trkpt>
      <trkpt lat="45.60699" lon="5.96742">
        <ele>1071.5266113</ele>
        <time>2011-02-06T11:12:38Z</time>
      </trkpt>
      <trkpt lat="45.60691" lon="5.96745">
        <ele>1071.0461426</ele>
        <time>2011-02-06T11:12:41Z</time>
      </trkpt>
      <trkpt lat="45.60685" lon="5.96747">
        <ele>1071.0461426</ele>
        <time>2011-02-06T11:12:43Z</time>
      </trkpt>
      <trkpt lat="45.6068" lon="5.96751">
        <ele>1070.0847168</ele>
        <time>2011-02-06T11:12:45Z</time>
      </trkpt>
      <trkpt lat="45.60674" lon="5.96756">
        <ele>1068.6428223</ele>
        <time>2011-02-06T11:12:48Z</time>
      </trkpt>
      <trkpt lat="45.60673" lon="5.96757">
        <ele>1068.1621094</ele>
        <time>2011-02-06T11:12:49Z</time>
      </trkpt>
      <trkpt lat="45.60673" lon="5.96773">
        <ele>1070.5654297</ele>
        <time>2011-02-06T11:12:53Z</time>
      </trkpt>
      <trkpt lat="45.60673" lon="5.96789">
        <ele>1072.4880371</ele>
        <time>2011-02-06T11:12:56Z</time>
      </trkpt>
      <trkpt lat="45.60673" lon="5.96803">
        <ele>1072.4880371</ele>
        <time>2011-02-06T11:12:59Z</time>
      </trkpt>
      <trkpt lat="45.60675" lon="5.96816">
        <ele>1072.0073242</ele>
        <time>2011-02-06T11:13:02Z</time>
      </trkpt>
      <trkpt lat="45.60672" lon="5.96829">
        <ele>1071.0461426</ele>
        <time>2011-02-06T11:13:05Z</time>
      </trkpt>
      <trkpt lat="45.60668" lon="5.96838">
        <ele>1070.5654297</ele>
        <time>2011-02-06T11:13:07Z</time>
      </trkpt>
      <trkpt lat="45.60665" lon="5.96846">
        <ele>1070.0847168</ele>
        <time>2011-02-06T11:13:09Z</time>
      </trkpt>
      <trkpt lat="45.60664" lon="5.96855">
        <ele>1069.1235352</ele>
        <time>2011-02-06T11:13:11Z</time>
      </trkpt>
      <trkpt lat="45.60664" lon="5.96864">
        <ele>1068.1621094</ele>
        <time>2011-02-06T11:13:13Z</time>
      </trkpt>
      <trkpt lat="45.60664" lon="5.96872">
        <ele>1067.2006836</ele>
        <time>2011-02-06T11:13:15Z</time>
      </trkpt>
      <trkpt lat="45.60665" lon="5.96877">
        <ele>1064.3166504</ele>
        <time>2011-02-06T11:13:18Z</time>
      </trkpt>
      <trkpt lat="45.60666" lon="5.96884">
        <ele>1059.9907227</ele>
        <time>2011-02-06T11:13:22Z</time>
      </trkpt>
      <trkpt lat="45.60665" lon="5.96895">
        <ele>1059.5102539</ele>
        <time>2011-02-06T11:13:25Z</time>
      </trkpt>
      <trkpt lat="45.60667" lon="5.96906">
        <ele>1057.1069336</ele>
        <time>2011-02-06T11:13:28Z</time>
      </trkpt>
      <trkpt lat="45.60671" lon="5.96917">
        <ele>1054.7036133</ele>
        <time>2011-02-06T11:13:31Z</time>
      </trkpt>
      <trkpt lat="45.60674" lon="5.96923">
        <ele>1053.7424316</ele>
        <time>2011-02-06T11:13:33Z</time>
      </trkpt>
      <trkpt lat="45.60679" lon="5.96932">
        <ele>1053.2617188</ele>
        <time>2011-02-06T11:13:36Z</time>
      </trkpt>
      <trkpt lat="45.60683" lon="5.96938">
        <ele>1053.2617188</ele>
        <time>2011-02-06T11:13:38Z</time>
      </trkpt>
      <trkpt lat="45.60686" lon="5.96943">
        <ele>1052.7810059</ele>
        <time>2011-02-06T11:13:40Z</time>
      </trkpt>
      <trkpt lat="45.60688" lon="5.96944">
        <ele>1052.7810059</ele>
        <time>2011-02-06T11:13:41Z</time>
      </trkpt>
      <trkpt lat="45.60695" lon="5.96952">
        <ele>1052.7810059</ele>
        <time>2011-02-06T11:13:45Z</time>
      </trkpt>
      <trkpt lat="45.60702" lon="5.96955">
        <ele>1051.8195801</ele>
        <time>2011-02-06T11:13:48Z</time>
      </trkpt>
      <trkpt lat="45.60706" lon="5.96956">
        <ele>1052.300293</ele>
        <time>2011-02-06T11:13:50Z</time>
      </trkpt>
      <trkpt lat="45.60718" lon="5.96957">
        <ele>1053.7424316</ele>
        <time>2011-02-06T11:13:55Z</time>
      </trkpt>
      <trkpt lat="45.6072" lon="5.9696">
        <ele>1055.6650391</ele>
        <time>2011-02-06T11:13:57Z</time>
      </trkpt>
      <trkpt lat="45.60723" lon="5.96961">
        <ele>1057.5876465</ele>
        <time>2011-02-06T11:13:59Z</time>
      </trkpt>
      <trkpt lat="45.60729" lon="5.96972">
        <ele>1061.4328613</ele>
        <time>2011-02-06T11:14:03Z</time>
      </trkpt>
      <trkpt lat="45.6073" lon="5.96976">
        <ele>1063.8359375</ele>
        <time>2011-02-06T11:14:05Z</time>
      </trkpt>
      <trkpt lat="45.60733" lon="5.96984">
        <ele>1067.2006836</ele>
        <time>2011-02-06T11:14:09Z</time>
      </trkpt>
      <trkpt lat="45.60737" lon="5.96985">
        <ele>1067.2006836</ele>
        <time>2011-02-06T11:14:12Z</time>
      </trkpt>
      <trkpt lat="45.60742" lon="5.96986">
        <ele>1066.7199707</ele>
        <time>2011-02-06T11:14:15Z</time>
      </trkpt>
      <trkpt lat="45.60743" lon="5.96987">
        <ele>1064.7973633</ele>
        <time>2011-02-06T11:14:16Z</time>
      </trkpt>
      <trkpt lat="45.60749" lon="5.96991">
        <ele>1062.394043</ele>
        <time>2011-02-06T11:14:20Z</time>
      </trkpt>
      <trkpt lat="45.60748" lon="5.96997">
        <ele>1065.7587891</ele>
        <time>2011-02-06T11:14:24Z</time>
      </trkpt>
      <trkpt lat="45.60747" lon="5.97006">
        <ele>1064.7973633</ele>
        <time>2011-02-06T11:14:28Z</time>
      </trkpt>
      <trkpt lat="45.60751" lon="5.9701">
        <ele>1058.0683594</ele>
        <time>2011-02-06T11:14:32Z</time>
      </trkpt>
      <trkpt lat="45.60755" lon="5.97013">
        <ele>1058.5488281</ele>
        <time>2011-02-06T11:14:37Z</time>
      </trkpt>
      <trkpt lat="45.60761" lon="5.97016">
        <ele>1060.9521484</ele>
        <time>2011-02-06T11:14:46Z</time>
      </trkpt>
      <trkpt lat="45.60762" lon="5.97023">
        <ele>1065.7587891</ele>
        <time>2011-02-06T11:14:51Z</time>
      </trkpt>
      <trkpt lat="45.60765" lon="5.97028">
        <ele>1067.2006836</ele>
        <time>2011-02-06T11:14:55Z</time>
      </trkpt>
      <trkpt lat="45.60766" lon="5.97027">
        <ele>1067.2006836</ele>
        <time>2011-02-06T11:14:56Z</time>
      </trkpt>
      <trkpt lat="45.60768" lon="5.97035">
        <ele>1069.604248</ele>
        <time>2011-02-06T11:15:01Z</time>
      </trkpt>
      <trkpt lat="45.60773" lon="5.97037">
        <ele>1070.5654297</ele>
        <time>2011-02-06T11:15:05Z</time>
      </trkpt>
      <trkpt lat="45.60774" lon="5.97044">
        <ele>1072.0073242</ele>
        <time>2011-02-06T11:15:09Z</time>
      </trkpt>
      <trkpt lat="45.60775" lon="5.97045">
        <ele>1071.5266113</ele>
        <time>2011-02-06T11:15:10Z</time>
      </trkpt>
      <trkpt lat="45.60776" lon="5.97052">
        <ele>1074.4106445</ele>
        <time>2011-02-06T11:15:13Z</time>
      </trkpt>
      <trkpt lat="45.60776" lon="5.97064">
        <ele>1077.7751465</ele>
        <time>2011-02-06T11:15:17Z</time>
      </trkpt>
      <trkpt lat="45.60776" lon="5.97068">
        <ele>1077.7751465</ele>
        <time>2011-02-06T11:15:19Z</time>
      </trkpt>
      <trkpt lat="45.60784" lon="5.97085">
        <ele>1067.6811523</ele>
        <time>2011-02-06T11:15:23Z</time>
      </trkpt>
      <trkpt lat="45.60785" lon="5.971">
        <ele>1061.9135742</ele>
        <time>2011-02-06T11:15:26Z</time>
      </trkpt>
      <trkpt lat="45.60786" lon="5.97114">
        <ele>1057.5876465</ele>
        <time>2011-02-06T11:15:29Z</time>
      </trkpt>
      <trkpt lat="45.60785" lon="5.97121">
        <ele>1057.5876465</ele>
        <time>2011-02-06T11:15:31Z</time>
      </trkpt>
      <trkpt lat="45.60784" lon="5.9713">
        <ele>1058.0683594</ele>
        <time>2011-02-06T11:15:33Z</time>
      </trkpt>
      <trkpt lat="45.60784" lon="5.97136">
        <ele>1058.5488281</ele>
        <time>2011-02-06T11:15:35Z</time>
      </trkpt>
      <trkpt lat="45.60784" lon="5.97136">
        <ele>1058.5488281</ele>
        <time>2011-02-06T11:15:35Z</time>
      </trkpt>
      <trkpt lat="45.60784" lon="5.97141">
        <ele>1058.5488281</ele>
        <time>2011-02-06T11:15:36Z</time>
      </trkpt>
      <trkpt lat="45.60785" lon="5.9715">
        <ele>1059.9907227</ele>
        <time>2011-02-06T11:15:38Z</time>
      </trkpt>
      <trkpt lat="45.60786" lon="5.97158">
        <ele>1059.5102539</ele>
        <time>2011-02-06T11:15:40Z</time>
      </trkpt>
      <trkpt lat="45.60787" lon="5.97166">
        <ele>1061.4328613</ele>
        <time>2011-02-06T11:15:42Z</time>
      </trkpt>
      <trkpt lat="45.60788" lon="5.97171">
        <ele>1062.394043</ele>
        <time>2011-02-06T11:15:44Z</time>
      </trkpt>
      <trkpt lat="45.60789" lon="5.97172">
        <ele>1062.8747559</ele>
        <time>2011-02-06T11:15:45Z</time>
      </trkpt>
      <trkpt lat="45.60789" lon="5.97186">
        <ele>1066.2392578</ele>
        <time>2011-02-06T11:15:49Z</time>
      </trkpt>
      <trkpt lat="45.60791" lon="5.97196">
        <ele>1070.0847168</ele>
        <time>2011-02-06T11:15:52Z</time>
      </trkpt>
      <trkpt lat="45.60795" lon="5.97213">
        <ele>1072.4880371</ele>
        <time>2011-02-06T11:15:56Z</time>
      </trkpt>
      <trkpt lat="45.60797" lon="5.97227">
        <ele>1074.4106445</ele>
        <time>2011-02-06T11:15:59Z</time>
      </trkpt>
      <trkpt lat="45.60801" lon="5.97238">
        <ele>1075.8525391</ele>
        <time>2011-02-06T11:16:02Z</time>
      </trkpt>
      <trkpt lat="45.60802" lon="5.97244">
        <ele>1077.7751465</ele>
        <time>2011-02-06T11:16:04Z</time>
      </trkpt>
      <trkpt lat="45.60803" lon="5.97252">
        <ele>1077.7751465</ele>
        <time>2011-02-06T11:16:06Z</time>
      </trkpt>
      <trkpt lat="45.60806" lon="5.97261">
        <ele>1078.7365723</ele>
        <time>2011-02-06T11:16:08Z</time>
      </trkpt>
      <trkpt lat="45.60806" lon="5.97272">
        <ele>1084.5046387</ele>
        <time>2011-02-06T11:16:12Z</time>
      </trkpt>
      <trkpt lat="45.60807" lon="5.97279">
        <ele>1086.4272461</ele>
        <time>2011-02-06T11:16:15Z</time>
      </trkpt>
      <trkpt lat="45.60806" lon="5.97283">
        <ele>1088.3498535</ele>
        <time>2011-02-06T11:16:16Z</time>
      </trkpt>
      <trkpt lat="45.60801" lon="5.973">
        <ele>1089.3110352</ele>
        <time>2011-02-06T11:16:20Z</time>
      </trkpt>
      <trkpt lat="45.60799" lon="5.97315">
        <ele>1086.4272461</ele>
        <time>2011-02-06T11:16:23Z</time>
      </trkpt>
      <trkpt lat="45.60801" lon="5.97324">
        <ele>1084.5046387</ele>
        <time>2011-02-06T11:16:25Z</time>
      </trkpt>
      <trkpt lat="45.60803" lon="5.97335">
        <ele>1081.1398926</ele>
        <time>2011-02-06T11:16:27Z</time>
      </trkpt>
      <trkpt lat="45.60805" lon="5.97346">
        <ele>1078.2558594</ele>
        <time>2011-02-06T11:16:29Z</time>
      </trkpt>
      <trkpt lat="45.60807" lon="5.97356">
        <ele>1074.8913574</ele>
        <time>2011-02-06T11:16:31Z</time>
      </trkpt>
      <trkpt lat="45.60808" lon="5.97367">
        <ele>1072.4880371</ele>
        <time>2011-02-06T11:16:33Z</time>
      </trkpt>
      <trkpt lat="45.60812" lon="5.97376">
        <ele>1066.2392578</ele>
        <time>2011-02-06T11:16:35Z</time>
      </trkpt>
      <trkpt lat="45.60814" lon="5.97385">
        <ele>1061.9135742</ele>
        <time>2011-02-06T11:16:37Z</time>
      </trkpt>
      <trkpt lat="45.60816" lon="5.97394">
        <ele>1058.0683594</ele>
        <time>2011-02-06T11:16:39Z</time>
      </trkpt>
      <trkpt lat="45.60817" lon="5.97404">
        <ele>1056.6262207</ele>
        <time>2011-02-06T11:16:41Z</time>
      </trkpt>
      <trkpt lat="45.60817" lon="5.97413">
        <ele>1051.8195801</ele>
        <time>2011-02-06T11:16:43Z</time>
      </trkpt>
      <trkpt lat="45.60816" lon="5.97424">
        <ele>1048.454834</ele>
        <time>2011-02-06T11:16:45Z</time>
      </trkpt>
      <trkpt lat="45.60817" lon="5.97432">
        <ele>1043.1677246</ele>
        <time>2011-02-06T11:16:47Z</time>
      </trkpt>
      <trkpt lat="45.60814" lon="5.9744">
        <ele>1043.1677246</ele>
        <time>2011-02-06T11:16:49Z</time>
      </trkpt>
      <trkpt lat="45.60814" lon="5.97449">
        <ele>1039.3225098</ele>
        <time>2011-02-06T11:16:51Z</time>
      </trkpt>
      <trkpt lat="45.60813" lon="5.97454">
        <ele>1036.4387207</ele>
        <time>2011-02-06T11:16:53Z</time>
      </trkpt>
      <trkpt lat="45.60808" lon="5.97471">
        <ele>1034.5158691</ele>
        <time>2011-02-06T11:16:57Z</time>
      </trkpt>
      <trkpt lat="45.60808" lon="5.97479">
        <ele>1029.2285156</ele>
        <time>2011-02-06T11:17:00Z</time>
      </trkpt>
      <trkpt lat="45.60807" lon="5.97496">
        <ele>1025.3833008</ele>
        <time>2011-02-06T11:17:04Z</time>
      </trkpt>
      <trkpt lat="45.6081" lon="5.97509">
        <ele>1015.2895508</ele>
        <time>2011-02-06T11:17:07Z</time>
      </trkpt>
      <trkpt lat="45.60812" lon="5.97522">
        <ele>1008.5603027</ele>
        <time>2011-02-06T11:17:10Z</time>
      </trkpt>
      <trkpt lat="45.60811" lon="5.97532">
        <ele>1004.7150879</ele>
        <time>2011-02-06T11:17:13Z</time>
      </trkpt>
      <trkpt lat="45.60811" lon="5.97543">
        <ele>999.4277344</ele>
        <time>2011-02-06T11:17:16Z</time>
      </trkpt>
      <trkpt lat="45.60813" lon="5.97553">
        <ele>993.1791992</ele>
        <time>2011-02-06T11:17:19Z</time>
      </trkpt>
      <trkpt lat="45.60809" lon="5.97561">
        <ele>995.5825195</ele>
        <time>2011-02-06T11:17:21Z</time>
      </trkpt>
      <trkpt lat="45.60811" lon="5.97577">
        <ele>988.3728027</ele>
        <time>2011-02-06T11:17:25Z</time>
      </trkpt>
      <trkpt lat="45.60812" lon="5.97579">
        <ele>987.4111328</ele>
        <time>2011-02-06T11:17:26Z</time>
      </trkpt>
      <trkpt lat="45.60818" lon="5.97595">
        <ele>980.6821289</ele>
        <time>2011-02-06T11:17:30Z</time>
      </trkpt>
      <trkpt lat="45.6082" lon="5.97613">
        <ele>979.2399902</ele>
        <time>2011-02-06T11:17:33Z</time>
      </trkpt>
      <trkpt lat="45.60821" lon="5.97637">
        <ele>979.2399902</ele>
        <time>2011-02-06T11:17:36Z</time>
      </trkpt>
      <trkpt lat="45.6082" lon="5.97644">
        <ele>980.201416</ele>
        <time>2011-02-06T11:17:38Z</time>
      </trkpt>
      <trkpt lat="45.60818" lon="5.97653">
        <ele>981.6433105</ele>
        <time>2011-02-06T11:17:40Z</time>
      </trkpt>
      <trkpt lat="45.60818" lon="5.97658">
        <ele>980.201416</ele>
        <time>2011-02-06T11:17:42Z</time>
      </trkpt>
      <trkpt lat="45.60816" lon="5.97663">
        <ele>979.7207031</ele>
        <time>2011-02-06T11:17:44Z</time>
      </trkpt>
      <trkpt lat="45.60813" lon="5.97674">
        <ele>982.1240234</ele>
        <time>2011-02-06T11:17:47Z</time>
      </trkpt>
      <trkpt lat="45.6081" lon="5.97684">
        <ele>985.0080566</ele>
        <time>2011-02-06T11:17:49Z</time>
      </trkpt>
      <trkpt lat="45.60806" lon="5.97704">
        <ele>985.9692383</ele>
        <time>2011-02-06T11:17:53Z</time>
      </trkpt>
      <trkpt lat="45.60802" lon="5.97707">
        <ele>987.4111328</ele>
        <time>2011-02-06T11:17:55Z</time>
      </trkpt>
      <trkpt lat="45.60798" lon="5.97712">
        <ele>988.3728027</ele>
        <time>2011-02-06T11:17:57Z</time>
      </trkpt>
      <trkpt lat="45.60792" lon="5.97717">
        <ele>992.6987305</ele>
        <time>2011-02-06T11:17:59Z</time>
      </trkpt>
      <trkpt lat="45.60792" lon="5.97718">
        <ele>992.6987305</ele>
        <time>2011-02-06T11:18:00Z</time>
      </trkpt>
      <trkpt lat="45.60791" lon="5.97733">
        <ele>993.1791992</ele>
        <time>2011-02-06T11:18:04Z</time>
      </trkpt>
      <trkpt lat="45.60791" lon="5.97743">
        <ele>993.1791992</ele>
        <time>2011-02-06T11:18:07Z</time>
      </trkpt>
      <trkpt lat="45.60792" lon="5.97758">
        <ele>990.7758789</ele>
        <time>2011-02-06T11:18:10Z</time>
      </trkpt>
      <trkpt lat="45.60795" lon="5.97772">
        <ele>988.8535156</ele>
        <time>2011-02-06T11:18:13Z</time>
      </trkpt>
      <trkpt lat="45.60797" lon="5.97786">
        <ele>988.8535156</ele>
        <time>2011-02-06T11:18:16Z</time>
      </trkpt>
      <trkpt lat="45.608" lon="5.97794">
        <ele>987.4111328</ele>
        <time>2011-02-06T11:18:18Z</time>
      </trkpt>
      <trkpt lat="45.60799" lon="5.97803">
        <ele>987.8918457</ele>
        <time>2011-02-06T11:18:20Z</time>
      </trkpt>
      <trkpt lat="45.60799" lon="5.97811">
        <ele>986.4499512</ele>
        <time>2011-02-06T11:18:22Z</time>
      </trkpt>
      <trkpt lat="45.60799" lon="5.97819">
        <ele>987.8918457</ele>
        <time>2011-02-06T11:18:24Z</time>
      </trkpt>
      <trkpt lat="45.60801" lon="5.97823">
        <ele>987.4111328</ele>
        <time>2011-02-06T11:18:25Z</time>
      </trkpt>
      <trkpt lat="45.60807" lon="5.9784">
        <ele>986.4499512</ele>
        <time>2011-02-06T11:18:30Z</time>
      </trkpt>
      <trkpt lat="45.60806" lon="5.97848">
        <ele>988.8535156</ele>
        <time>2011-02-06T11:18:33Z</time>
      </trkpt>
      <trkpt lat="45.60807" lon="5.97863">
        <ele>988.3728027</ele>
        <time>2011-02-06T11:18:37Z</time>
      </trkpt>
      <trkpt lat="45.6081" lon="5.97873">
        <ele>985.9692383</ele>
        <time>2011-02-06T11:18:40Z</time>
      </trkpt>
      <trkpt lat="45.60811" lon="5.97885">
        <ele>984.0466309</ele>
        <time>2011-02-06T11:18:43Z</time>
      </trkpt>
      <trkpt lat="45.60812" lon="5.979">
        <ele>980.6821289</ele>
        <time>2011-02-06T11:18:46Z</time>
      </trkpt>
      <trkpt lat="45.60813" lon="5.97913">
        <ele>978.2788086</ele>
        <time>2011-02-06T11:18:49Z</time>
      </trkpt>
      <trkpt lat="45.60814" lon="5.97929">
        <ele>979.7207031</ele>
        <time>2011-02-06T11:18:53Z</time>
      </trkpt>
      <trkpt lat="45.60815" lon="5.97939">
        <ele>977.7980957</ele>
        <time>2011-02-06T11:18:56Z</time>
      </trkpt>
      <trkpt lat="45.60814" lon="5.97947">
        <ele>983.565918</ele>
        <time>2011-02-06T11:18:59Z</time>
      </trkpt>
      <trkpt lat="45.60816" lon="5.9796">
        <ele>984.0466309</ele>
        <time>2011-02-06T11:19:02Z</time>
      </trkpt>
      <trkpt lat="45.6082" lon="5.97976">
        <ele>985.0080566</ele>
        <time>2011-02-06T11:19:06Z</time>
      </trkpt>
      <trkpt lat="45.60822" lon="5.97983">
        <ele>987.8918457</ele>
        <time>2011-02-06T11:19:09Z</time>
      </trkpt>
      <trkpt lat="45.60827" lon="5.97994">
        <ele>985.9692383</ele>
        <time>2011-02-06T11:19:12Z</time>
      </trkpt>
      <trkpt lat="45.60831" lon="5.98005">
        <ele>985.0080566</ele>
        <time>2011-02-06T11:19:15Z</time>
      </trkpt>
      <trkpt lat="45.60833" lon="5.98012">
        <ele>989.8146973</ele>
        <time>2011-02-06T11:19:18Z</time>
      </trkpt>
      <trkpt lat="45.60834" lon="5.98015">
        <ele>990.2954102</ele>
        <time>2011-02-06T11:19:20Z</time>
      </trkpt>
      <trkpt lat="45.60834" lon="5.98026">
        <ele>996.5439453</ele>
        <time>2011-02-06T11:19:24Z</time>
      </trkpt>
      <trkpt lat="45.60853" lon="5.98058">
        <ele>965.7817383</ele>
        <time>2011-02-06T11:19:34Z</time>
      </trkpt>
      <trkpt lat="45.60854" lon="5.98063">
        <ele>964.8203125</ele>
        <time>2011-02-06T11:19:36Z</time>
      </trkpt>
      <trkpt lat="45.60851" lon="5.98085">
        <ele>962.4169922</ele>
        <time>2011-02-06T11:19:40Z</time>
      </trkpt>
      <trkpt lat="45.6085" lon="5.98087">
        <ele>961.9365234</ele>
        <time>2011-02-06T11:19:41Z</time>
      </trkpt>
      <trkpt lat="45.60847" lon="5.98087">
        <ele>961.9365234</ele>
        <time>2011-02-06T11:19:46Z</time>
      </trkpt>
      <trkpt lat="45.60843" lon="5.98087">
        <ele>960.0136719</ele>
        <time>2011-02-06T11:19:51Z</time>
      </trkpt>
      <trkpt lat="45.60837" lon="5.98088">
        <ele>958.5717773</ele>
        <time>2011-02-06T11:19:55Z</time>
      </trkpt>
      <trkpt lat="45.60834" lon="5.98086">
        <ele>953.7651367</ele>
        <time>2011-02-06T11:19:59Z</time>
      </trkpt>
      <trkpt lat="45.60829" lon="5.98084">
        <ele>951.3618164</ele>
        <time>2011-02-06T11:20:02Z</time>
      </trkpt>
      <trkpt lat="45.60823" lon="5.98084">
        <ele>948.4777832</ele>
        <time>2011-02-06T11:20:06Z</time>
      </trkpt>
      <trkpt lat="45.60817" lon="5.98088">
        <ele>947.0358887</ele>
        <time>2011-02-06T11:20:09Z</time>
      </trkpt>
      <trkpt lat="45.60815" lon="5.98092">
        <ele>940.3068848</ele>
        <time>2011-02-06T11:20:12Z</time>
      </trkpt>
      <trkpt lat="45.60811" lon="5.98093">
        <ele>940.3068848</ele>
        <time>2011-02-06T11:20:14Z</time>
      </trkpt>
      <trkpt lat="45.60808" lon="5.98094">
        <ele>938.8647461</ele>
        <time>2011-02-06T11:20:16Z</time>
      </trkpt>
      <trkpt lat="45.60799" lon="5.98093">
        <ele>937.9033203</ele>
        <time>2011-02-06T11:20:20Z</time>
      </trkpt>
      <trkpt lat="45.60797" lon="5.98094">
        <ele>936.4614258</ele>
        <time>2011-02-06T11:20:21Z</time>
      </trkpt>
      <trkpt lat="45.60793" lon="5.98093">
        <ele>936.9418945</ele>
        <time>2011-02-06T11:20:23Z</time>
      </trkpt>
      <trkpt lat="45.60786" lon="5.98094">
        <ele>933.5773926</ele>
        <time>2011-02-06T11:20:27Z</time>
      </trkpt>
      <trkpt lat="45.6078" lon="5.98097">
        <ele>932.6162109</ele>
        <time>2011-02-06T11:20:30Z</time>
      </trkpt>
      <trkpt lat="45.60775" lon="5.98099">
        <ele>928.7709961</ele>
        <time>2011-02-06T11:20:33Z</time>
      </trkpt>
      <trkpt lat="45.60772" lon="5.98099">
        <ele>925.8869629</ele>
        <time>2011-02-06T11:20:35Z</time>
      </trkpt>
      <trkpt lat="45.60766" lon="5.98104">
        <ele>925.40625</ele>
        <time>2011-02-06T11:20:39Z</time>
      </trkpt>
      <trkpt lat="45.60765" lon="5.98104">
        <ele>925.40625</ele>
        <time>2011-02-06T11:20:40Z</time>
      </trkpt>
      <trkpt lat="45.60761" lon="5.98101">
        <ele>925.40625</ele>
        <time>2011-02-06T11:20:44Z</time>
      </trkpt>
      <trkpt lat="45.60755" lon="5.98102">
        <ele>923.0029297</ele>
        <time>2011-02-06T11:20:48Z</time>
      </trkpt>
      <trkpt lat="45.60752" lon="5.98101">
        <ele>918.1962891</ele>
        <time>2011-02-06T11:20:51Z</time>
      </trkpt>
      <trkpt lat="45.60748" lon="5.98098">
        <ele>918.677002</ele>
        <time>2011-02-06T11:20:56Z</time>
      </trkpt>
      <trkpt lat="45.60741" lon="5.98101">
        <ele>916.2736816</ele>
        <time>2011-02-06T11:21:00Z</time>
      </trkpt>
      <trkpt lat="45.60735" lon="5.981">
        <ele>914.8317871</ele>
        <time>2011-02-06T11:21:03Z</time>
      </trkpt>
      <trkpt lat="45.60731" lon="5.98103">
        <ele>911.947998</ele>
        <time>2011-02-06T11:21:06Z</time>
      </trkpt>
      <trkpt lat="45.6073" lon="5.98103">
        <ele>911.4672852</ele>
        <time>2011-02-06T11:21:07Z</time>
      </trkpt>
      <trkpt lat="45.60722" lon="5.98105">
        <ele>918.1962891</ele>
        <time>2011-02-06T11:21:10Z</time>
      </trkpt>
      <trkpt lat="45.60715" lon="5.9811">
        <ele>923.0029297</ele>
        <time>2011-02-06T11:21:13Z</time>
      </trkpt>
      <trkpt lat="45.60704" lon="5.98117">
        <ele>929.7321777</ele>
        <time>2011-02-06T11:21:17Z</time>
      </trkpt>
      <trkpt lat="45.60697" lon="5.98119">
        <ele>930.6936035</ele>
        <time>2011-02-06T11:21:20Z</time>
      </trkpt>
      <trkpt lat="45.60696" lon="5.98119">
        <ele>930.2128906</ele>
        <time>2011-02-06T11:21:21Z</time>
      </trkpt>
      <trkpt lat="45.60693" lon="5.98119">
        <ele>930.2128906</ele>
        <time>2011-02-06T11:21:23Z</time>
      </trkpt>
      <trkpt lat="45.60687" lon="5.9812">
        <ele>924.9257813</ele>
        <time>2011-02-06T11:21:27Z</time>
      </trkpt>
      <trkpt lat="45.6068" lon="5.98123">
        <ele>922.5222168</ele>
        <time>2011-02-06T11:21:30Z</time>
      </trkpt>
      <trkpt lat="45.60678" lon="5.98124">
        <ele>921.0803223</ele>
        <time>2011-02-06T11:21:31Z</time>
      </trkpt>
      <trkpt lat="45.60673" lon="5.98126">
        <ele>915.7932129</ele>
        <time>2011-02-06T11:21:35Z</time>
      </trkpt>
      <trkpt lat="45.60672" lon="5.98125">
        <ele>910.5058594</ele>
        <time>2011-02-06T11:21:38Z</time>
      </trkpt>
      <trkpt lat="45.60674" lon="5.98123">
        <ele>907.1411133</ele>
        <time>2011-02-06T11:21:40Z</time>
      </trkpt>
      <trkpt lat="45.60676" lon="5.98115">
        <ele>902.8151855</ele>
        <time>2011-02-06T11:21:44Z</time>
      </trkpt>
      <trkpt lat="45.60677" lon="5.98113">
        <ele>901.8540039</ele>
        <time>2011-02-06T11:21:45Z</time>
      </trkpt>
      <trkpt lat="45.60681" lon="5.98107">
        <ele>894.644043</ele>
        <time>2011-02-06T11:21:50Z</time>
      </trkpt>
      <trkpt lat="45.60681" lon="5.981">
        <ele>891.2792969</ele>
        <time>2011-02-06T11:21:54Z</time>
      </trkpt>
      <trkpt lat="45.60676" lon="5.9809">
        <ele>890.3181152</ele>
        <time>2011-02-06T11:21:58Z</time>
      </trkpt>
      <trkpt lat="45.60674" lon="5.98079">
        <ele>887.434082</ele>
        <time>2011-02-06T11:22:02Z</time>
      </trkpt>
      <trkpt lat="45.60673" lon="5.98074">
        <ele>884.0695801</ele>
        <time>2011-02-06T11:22:06Z</time>
      </trkpt>
      <trkpt lat="45.60671" lon="5.98074">
        <ele>877.3405762</ele>
        <time>2011-02-06T11:22:12Z</time>
      </trkpt>
      <trkpt lat="45.60673" lon="5.98065">
        <ele>876.8598633</ele>
        <time>2011-02-06T11:22:16Z</time>
      </trkpt>
      <trkpt lat="45.60676" lon="5.98061">
        <ele>874.4562988</ele>
        <time>2011-02-06T11:22:20Z</time>
      </trkpt>
      <trkpt lat="45.6068" lon="5.98058">
        <ele>874.4562988</ele>
        <time>2011-02-06T11:22:24Z</time>
      </trkpt>
      <trkpt lat="45.60681" lon="5.98054">
        <ele>876.3791504</ele>
        <time>2011-02-06T11:22:29Z</time>
      </trkpt>
      <trkpt lat="45.60679" lon="5.98052">
        <ele>878.3017578</ele>
        <time>2011-02-06T11:22:31Z</time>
      </trkpt>
      <trkpt lat="45.60671" lon="5.98046">
        <ele>883.5888672</ele>
        <time>2011-02-06T11:22:35Z</time>
      </trkpt>
      <trkpt lat="45.60662" lon="5.98043">
        <ele>885.5114746</ele>
        <time>2011-02-06T11:22:38Z</time>
      </trkpt>
      <trkpt lat="45.60657" lon="5.98042">
        <ele>888.8762207</ele>
        <time>2011-02-06T11:22:40Z</time>
      </trkpt>
      <trkpt lat="45.60652" lon="5.98041">
        <ele>890.798584</ele>
        <time>2011-02-06T11:22:42Z</time>
      </trkpt>
      <trkpt lat="45.60643" lon="5.98042">
        <ele>890.798584</ele>
        <time>2011-02-06T11:22:46Z</time>
      </trkpt>
      <trkpt lat="45.6064" lon="5.98044">
        <ele>890.798584</ele>
        <time>2011-02-06T11:22:48Z</time>
      </trkpt>
      <trkpt lat="45.60634" lon="5.98042">
        <ele>889.3566895</ele>
        <time>2011-02-06T11:22:53Z</time>
      </trkpt>
      <trkpt lat="45.60635" lon="5.98036">
        <ele>889.3566895</ele>
        <time>2011-02-06T11:22:58Z</time>
      </trkpt>
      <trkpt lat="45.60635" lon="5.98035">
        <ele>889.8374023</ele>
        <time>2011-02-06T11:23:02Z</time>
      </trkpt>
      <trkpt lat="45.60627" lon="5.9803">
        <ele>895.6054688</ele>
        <time>2011-02-06T11:23:06Z</time>
      </trkpt>
      <trkpt lat="45.60621" lon="5.98024">
        <ele>899.9313965</ele>
        <time>2011-02-06T11:23:09Z</time>
      </trkpt>
      <trkpt lat="45.60615" lon="5.9802">
        <ele>905.2185059</ele>
        <time>2011-02-06T11:23:11Z</time>
      </trkpt>
      <trkpt lat="45.60612" lon="5.98018">
        <ele>906.6604004</ele>
        <time>2011-02-06T11:23:13Z</time>
      </trkpt>
      <trkpt lat="45.60608" lon="5.98013">
        <ele>905.2185059</ele>
        <time>2011-02-06T11:23:17Z</time>
      </trkpt>
      <trkpt lat="45.60603" lon="5.98013">
        <ele>905.6992188</ele>
        <time>2011-02-06T11:23:21Z</time>
      </trkpt>
      <trkpt lat="45.60602" lon="5.98012">
        <ele>902.8151855</ele>
        <time>2011-02-06T11:23:24Z</time>
      </trkpt>
      <trkpt lat="45.60598" lon="5.98013">
        <ele>899.4506836</ele>
        <time>2011-02-06T11:23:27Z</time>
      </trkpt>
      <trkpt lat="45.60597" lon="5.98014">
        <ele>897.5280762</ele>
        <time>2011-02-06T11:23:28Z</time>
      </trkpt>
      <trkpt lat="45.60593" lon="5.98014">
        <ele>896.0861816</ele>
        <time>2011-02-06T11:23:30Z</time>
      </trkpt>
      <trkpt lat="45.60586" lon="5.98013">
        <ele>890.798584</ele>
        <time>2011-02-06T11:23:34Z</time>
      </trkpt>
      <trkpt lat="45.60578" lon="5.98011">
        <ele>887.9147949</ele>
        <time>2011-02-06T11:23:38Z</time>
      </trkpt>
      <trkpt lat="45.60573" lon="5.98009">
        <ele>886.9533691</ele>
        <time>2011-02-06T11:23:41Z</time>
      </trkpt>
      <trkpt lat="45.60572" lon="5.9801">
        <ele>885.0310059</ele>
        <time>2011-02-06T11:23:42Z</time>
      </trkpt>
      <trkpt lat="45.60569" lon="5.98016">
        <ele>876.3791504</ele>
        <time>2011-02-06T11:23:46Z</time>
      </trkpt>
      <trkpt lat="45.60564" lon="5.98013">
        <ele>872.0529785</ele>
        <time>2011-02-06T11:23:50Z</time>
      </trkpt>
      <trkpt lat="45.60562" lon="5.98005">
        <ele>867.7270508</ele>
        <time>2011-02-06T11:23:54Z</time>
      </trkpt>
      <trkpt lat="45.60562" lon="5.98">
        <ele>866.2851563</ele>
        <time>2011-02-06T11:23:57Z</time>
      </trkpt>
      <trkpt lat="45.60567" lon="5.97995">
        <ele>859.0751953</ele>
        <time>2011-02-06T11:24:01Z</time>
      </trkpt>
      <trkpt lat="45.60565" lon="5.97999">
        <ele>852.3459473</ele>
        <time>2011-02-06T11:24:06Z</time>
      </trkpt>
      <trkpt lat="45.60562" lon="5.97997">
        <ele>845.1362305</ele>
        <time>2011-02-06T11:24:11Z</time>
      </trkpt>
      <trkpt lat="45.60553" lon="5.97992">
        <ele>843.2133789</ele>
        <time>2011-02-06T11:24:15Z</time>
      </trkpt>
      <trkpt lat="45.60548" lon="5.97993">
        <ele>841.7714844</ele>
        <time>2011-02-06T11:24:18Z</time>
      </trkpt>
      <trkpt lat="45.60547" lon="5.97993">
        <ele>840.8100586</ele>
        <time>2011-02-06T11:24:19Z</time>
      </trkpt>
      <trkpt lat="45.60544" lon="5.97993">
        <ele>836.9648438</ele>
        <time>2011-02-06T11:24:23Z</time>
      </trkpt>
      <trkpt lat="45.60543" lon="5.97994">
        <ele>829.755127</ele>
        <time>2011-02-06T11:24:26Z</time>
      </trkpt>
      <trkpt lat="45.60532" lon="5.97996">
        <ele>836.9648438</ele>
        <time>2011-02-06T11:24:30Z</time>
      </trkpt>
      <trkpt lat="45.60525" lon="5.97992">
        <ele>836.484375</ele>
        <time>2011-02-06T11:24:34Z</time>
      </trkpt>
      <trkpt lat="45.60515" lon="5.97991">
        <ele>836.9648438</ele>
        <time>2011-02-06T11:24:40Z</time>
      </trkpt>
      <trkpt lat="45.60514" lon="5.97993">
        <ele>834.5617676</ele>
        <time>2011-02-06T11:24:41Z</time>
      </trkpt>
      <trkpt lat="45.6051" lon="5.97994">
        <ele>823.5065918</ele>
        <time>2011-02-06T11:24:45Z</time>
      </trkpt>
      <trkpt lat="45.60515" lon="5.97993">
        <ele>814.8547363</ele>
        <time>2011-02-06T11:24:49Z</time>
      </trkpt>
      <trkpt lat="45.60521" lon="5.97995">
        <ele>811.4899902</ele>
        <time>2011-02-06T11:24:53Z</time>
      </trkpt>
      <trkpt lat="45.60525" lon="5.98">
        <ele>808.1254883</ele>
        <time>2011-02-06T11:24:57Z</time>
      </trkpt>
      <trkpt lat="45.6053" lon="5.98005">
        <ele>804.7607422</ele>
        <time>2011-02-06T11:25:01Z</time>
      </trkpt>
      <trkpt lat="45.60533" lon="5.98011">
        <ele>805.2414551</ele>
        <time>2011-02-06T11:25:05Z</time>
      </trkpt>
      <trkpt lat="45.60526" lon="5.98005">
        <ele>802.3574219</ele>
        <time>2011-02-06T11:25:09Z</time>
      </trkpt>
      <trkpt lat="45.60517" lon="5.97997">
        <ele>796.5898438</ele>
        <time>2011-02-06T11:25:13Z</time>
      </trkpt>
      <trkpt lat="45.60508" lon="5.97992">
        <ele>793.7055664</ele>
        <time>2011-02-06T11:25:17Z</time>
      </trkpt>
      <trkpt lat="45.60501" lon="5.97986">
        <ele>794.1862793</ele>
        <time>2011-02-06T11:25:20Z</time>
      </trkpt>
      <trkpt lat="45.60494" lon="5.97987">
        <ele>793.7055664</ele>
        <time>2011-02-06T11:25:23Z</time>
      </trkpt>
      <trkpt lat="45.60485" lon="5.97988">
        <ele>792.2636719</ele>
        <time>2011-02-06T11:25:27Z</time>
      </trkpt>
      <trkpt lat="45.60482" lon="5.97988">
        <ele>791.782959</ele>
        <time>2011-02-06T11:25:28Z</time>
      </trkpt>
      <trkpt lat="45.60476" lon="5.97982">
        <ele>785.5344238</ele>
        <time>2011-02-06T11:25:32Z</time>
      </trkpt>
      <trkpt lat="45.60473" lon="5.97982">
        <ele>781.2087402</ele>
        <time>2011-02-06T11:25:34Z</time>
      </trkpt>
      <trkpt lat="45.60467" lon="5.97975">
        <ele>778.3244629</ele>
        <time>2011-02-06T11:25:38Z</time>
      </trkpt>
      <trkpt lat="45.60462" lon="5.9797">
        <ele>778.3244629</ele>
        <time>2011-02-06T11:25:41Z</time>
      </trkpt>
      <trkpt lat="45.60457" lon="5.97967">
        <ele>779.2856445</ele>
        <time>2011-02-06T11:25:44Z</time>
      </trkpt>
      <trkpt lat="45.6045" lon="5.97959">
        <ele>778.3244629</ele>
        <time>2011-02-06T11:25:48Z</time>
      </trkpt>
      <trkpt lat="45.60444" lon="5.97956">
        <ele>781.689209</ele>
        <time>2011-02-06T11:25:50Z</time>
      </trkpt>
      <trkpt lat="45.60436" lon="5.97958">
        <ele>783.1311035</ele>
        <time>2011-02-06T11:25:54Z</time>
      </trkpt>
      <trkpt lat="45.60431" lon="5.97961">
        <ele>782.1699219</ele>
        <time>2011-02-06T11:25:57Z</time>
      </trkpt>
      <trkpt lat="45.60436" lon="5.97966">
        <ele>776.4018555</ele>
        <time>2011-02-06T11:26:07Z</time>
      </trkpt>
      <trkpt lat="45.60432" lon="5.97959">
        <ele>771.1147461</ele>
        <time>2011-02-06T11:26:15Z</time>
      </trkpt>
      <trkpt lat="45.60427" lon="5.97954">
        <ele>769.6728516</ele>
        <time>2011-02-06T11:26:19Z</time>
      </trkpt>
      <trkpt lat="45.60422" lon="5.9795">
        <ele>762.4626465</ele>
        <time>2011-02-06T11:26:23Z</time>
      </trkpt>
      <trkpt lat="45.60421" lon="5.9795">
        <ele>760.5400391</ele>
        <time>2011-02-06T11:26:24Z</time>
      </trkpt>
      <trkpt lat="45.60418" lon="5.97948">
        <ele>758.1369629</ele>
        <time>2011-02-06T11:26:27Z</time>
      </trkpt>
      <trkpt lat="45.60416" lon="5.97944">
        <ele>755.2529297</ele>
        <time>2011-02-06T11:26:30Z</time>
      </trkpt>
      <trkpt lat="45.60409" lon="5.97938">
        <ele>758.6174316</ele>
        <time>2011-02-06T11:26:34Z</time>
      </trkpt>
      <trkpt lat="45.60408" lon="5.97935">
        <ele>760.0593262</ele>
        <time>2011-02-06T11:26:38Z</time>
      </trkpt>
      <trkpt lat="45.60407" lon="5.97932">
        <ele>759.0981445</ele>
        <time>2011-02-06T11:26:40Z</time>
      </trkpt>
      <trkpt lat="45.60398" lon="5.97927">
        <ele>753.8110352</ele>
        <time>2011-02-06T11:26:44Z</time>
      </trkpt>
      <trkpt lat="45.60391" lon="5.97932">
        <ele>750.4465332</ele>
        <time>2011-02-06T11:26:47Z</time>
      </trkpt>
      <trkpt lat="45.60374" lon="5.9793">
        <ele>757.1755371</ele>
        <time>2011-02-06T11:26:52Z</time>
      </trkpt>
      <trkpt lat="45.6037" lon="5.97927">
        <ele>752.8496094</ele>
        <time>2011-02-06T11:26:55Z</time>
      </trkpt>
      <trkpt lat="45.60366" lon="5.97917">
        <ele>749.4851074</ele>
        <time>2011-02-06T11:26:59Z</time>
      </trkpt>
      <trkpt lat="45.60362" lon="5.97908">
        <ele>752.3688965</ele>
        <time>2011-02-06T11:27:02Z</time>
      </trkpt>
      <trkpt lat="45.60356" lon="5.97905">
        <ele>756.6948242</ele>
        <time>2011-02-06T11:27:05Z</time>
      </trkpt>
      <trkpt lat="45.60353" lon="5.97899">
        <ele>758.6174316</ele>
        <time>2011-02-06T11:27:08Z</time>
      </trkpt>
      <trkpt lat="45.60352" lon="5.97895">
        <ele>761.020752</ele>
        <time>2011-02-06T11:27:12Z</time>
      </trkpt>
      <trkpt lat="45.60348" lon="5.97891">
        <ele>760.5400391</ele>
        <time>2011-02-06T11:27:14Z</time>
      </trkpt>
      <trkpt lat="45.60342" lon="5.97882">
        <ele>758.6174316</ele>
        <time>2011-02-06T11:27:18Z</time>
      </trkpt>
      <trkpt lat="45.60338" lon="5.97878">
        <ele>759.5788574</ele>
        <time>2011-02-06T11:27:21Z</time>
      </trkpt>
      <trkpt lat="45.60335" lon="5.97872">
        <ele>759.0981445</ele>
        <time>2011-02-06T11:27:25Z</time>
      </trkpt>
      <trkpt lat="45.60331" lon="5.97869">
        <ele>756.2141113</ele>
        <time>2011-02-06T11:27:31Z</time>
      </trkpt>
      <trkpt lat="45.60324" lon="5.97863">
        <ele>751.4077148</ele>
        <time>2011-02-06T11:27:35Z</time>
      </trkpt>
      <trkpt lat="45.60313" lon="5.97854">
        <ele>744.6782227</ele>
        <time>2011-02-06T11:27:39Z</time>
      </trkpt>
      <trkpt lat="45.60305" lon="5.97848">
        <ele>741.7944336</ele>
        <time>2011-02-06T11:27:42Z</time>
      </trkpt>
      <trkpt lat="45.60297" lon="5.97844">
        <ele>739.8718262</ele>
        <time>2011-02-06T11:27:45Z</time>
      </trkpt>
      <trkpt lat="45.60291" lon="5.9783">
        <ele>740.3525391</ele>
        <time>2011-02-06T11:27:48Z</time>
      </trkpt>
      <trkpt lat="45.60284" lon="5.97823">
        <ele>738.4299316</ele>
        <time>2011-02-06T11:27:50Z</time>
      </trkpt>
      <trkpt lat="45.60278" lon="5.97818">
        <ele>735.5458984</ele>
        <time>2011-02-06T11:27:52Z</time>
      </trkpt>
      <trkpt lat="45.60273" lon="5.97814">
        <ele>736.0266113</ele>
        <time>2011-02-06T11:27:54Z</time>
      </trkpt>
      <trkpt lat="45.60266" lon="5.97811">
        <ele>732.6621094</ele>
        <time>2011-02-06T11:27:56Z</time>
      </trkpt>
      <trkpt lat="45.6026" lon="5.97811">
        <ele>730.7392578</ele>
        <time>2011-02-06T11:27:58Z</time>
      </trkpt>
      <trkpt lat="45.60252" lon="5.97809">
        <ele>732.6621094</ele>
        <time>2011-02-06T11:28:00Z</time>
      </trkpt>
      <trkpt lat="45.6025" lon="5.97809">
        <ele>733.1425781</ele>
        <time>2011-02-06T11:28:01Z</time>
      </trkpt>
      <trkpt lat="45.60243" lon="5.97812">
        <ele>739.3911133</ele>
        <time>2011-02-06T11:28:05Z</time>
      </trkpt>
      <trkpt lat="45.60242" lon="5.9781">
        <ele>741.7944336</ele>
        <time>2011-02-06T11:28:06Z</time>
      </trkpt>
      <trkpt lat="45.60243" lon="5.97802">
        <ele>738.9106445</ele>
        <time>2011-02-06T11:28:10Z</time>
      </trkpt>
      <trkpt lat="45.60244" lon="5.97791">
        <ele>738.9106445</ele>
        <time>2011-02-06T11:28:13Z</time>
      </trkpt>
      <trkpt lat="45.6024" lon="5.97785">
        <ele>734.5847168</ele>
        <time>2011-02-06T11:28:16Z</time>
      </trkpt>
      <trkpt lat="45.60239" lon="5.97783">
        <ele>733.1425781</ele>
        <time>2011-02-06T11:28:17Z</time>
      </trkpt>
      <trkpt lat="45.60233" lon="5.97769">
        <ele>730.7392578</ele>
        <time>2011-02-06T11:28:22Z</time>
      </trkpt>
      <trkpt lat="45.6023" lon="5.97764">
        <ele>730.2585449</ele>
        <time>2011-02-06T11:28:25Z</time>
      </trkpt>
      <trkpt lat="45.60227" lon="5.97765">
        <ele>728.8166504</ele>
        <time>2011-02-06T11:28:27Z</time>
      </trkpt>
      <trkpt lat="45.60224" lon="5.97764">
        <ele>728.8166504</ele>
        <time>2011-02-06T11:28:29Z</time>
      </trkpt>
      <trkpt lat="45.60215" lon="5.97754">
        <ele>729.2971191</ele>
        <time>2011-02-06T11:28:33Z</time>
      </trkpt>
      <trkpt lat="45.60205" lon="5.97746">
        <ele>730.2585449</ele>
        <time>2011-02-06T11:28:37Z</time>
      </trkpt>
      <trkpt lat="45.60197" lon="5.97742">
        <ele>732.1813965</ele>
        <time>2011-02-06T11:28:40Z</time>
      </trkpt>
      <trkpt lat="45.60193" lon="5.9774">
        <ele>735.0654297</ele>
        <time>2011-02-06T11:28:41Z</time>
      </trkpt>
      <trkpt lat="45.60186" lon="5.97739">
        <ele>738.9106445</ele>
        <time>2011-02-06T11:28:43Z</time>
      </trkpt>
      <trkpt lat="45.60173" lon="5.97736">
        <ele>739.3911133</ele>
        <time>2011-02-06T11:28:47Z</time>
      </trkpt>
      <trkpt lat="45.60165" lon="5.97735">
        <ele>741.3137207</ele>
        <time>2011-02-06T11:28:50Z</time>
      </trkpt>
      <trkpt lat="45.6016" lon="5.97734">
        <ele>741.3137207</ele>
        <time>2011-02-06T11:28:52Z</time>
      </trkpt>
      <trkpt lat="45.60156" lon="5.97731">
        <ele>741.3137207</ele>
        <time>2011-02-06T11:28:55Z</time>
      </trkpt>
      <trkpt lat="45.6015" lon="5.97727">
        <ele>740.3525391</ele>
        <time>2011-02-06T11:28:58Z</time>
      </trkpt>
      <trkpt lat="45.60143" lon="5.97724">
        <ele>737.4685059</ele>
        <time>2011-02-06T11:29:01Z</time>
      </trkpt>
      <trkpt lat="45.60136" lon="5.97724">
        <ele>736.987793</ele>
        <time>2011-02-06T11:29:04Z</time>
      </trkpt>
      <trkpt lat="45.60129" lon="5.97725">
        <ele>732.1813965</ele>
        <time>2011-02-06T11:29:08Z</time>
      </trkpt>
      <trkpt lat="45.60127" lon="5.97727">
        <ele>731.2199707</ele>
        <time>2011-02-06T11:29:09Z</time>
      </trkpt>
      <trkpt lat="45.60123" lon="5.97736">
        <ele>729.2971191</ele>
        <time>2011-02-06T11:29:13Z</time>
      </trkpt>
      <trkpt lat="45.60119" lon="5.97744">
        <ele>728.3359375</ele>
        <time>2011-02-06T11:29:16Z</time>
      </trkpt>
      <trkpt lat="45.60117" lon="5.97755">
        <ele>729.2971191</ele>
        <time>2011-02-06T11:29:19Z</time>
      </trkpt>
      <trkpt lat="45.60116" lon="5.97762">
        <ele>727.3747559</ele>
        <time>2011-02-06T11:29:21Z</time>
      </trkpt>
      <trkpt lat="45.60114" lon="5.97769">
        <ele>722.5681152</ele>
        <time>2011-02-06T11:29:25Z</time>
      </trkpt>
      <trkpt lat="45.60112" lon="5.97774">
        <ele>720.1647949</ele>
        <time>2011-02-06T11:29:29Z</time>
      </trkpt>
      <trkpt lat="45.6011" lon="5.9778">
        <ele>719.2036133</ele>
        <time>2011-02-06T11:29:31Z</time>
      </trkpt>
      <trkpt lat="45.60097" lon="5.9779">
        <ele>721.1262207</ele>
        <time>2011-02-06T11:29:35Z</time>
      </trkpt>
      <trkpt lat="45.60094" lon="5.97791">
        <ele>721.1262207</ele>
        <time>2011-02-06T11:29:36Z</time>
      </trkpt>
      <trkpt lat="45.60077" lon="5.97789">
        <ele>729.777832</ele>
        <time>2011-02-06T11:29:40Z</time>
      </trkpt>
      <trkpt lat="45.60069" lon="5.97789">
        <ele>733.1425781</ele>
        <time>2011-02-06T11:29:42Z</time>
      </trkpt>
      <trkpt lat="45.60063" lon="5.97789">
        <ele>734.5847168</ele>
        <time>2011-02-06T11:29:44Z</time>
      </trkpt>
      <trkpt lat="45.60056" lon="5.97789">
        <ele>736.0266113</ele>
        <time>2011-02-06T11:29:46Z</time>
      </trkpt>
      <trkpt lat="45.60049" lon="5.97787">
        <ele>738.4299316</ele>
        <time>2011-02-06T11:29:48Z</time>
      </trkpt>
      <trkpt lat="45.60044" lon="5.97784">
        <ele>738.9106445</ele>
        <time>2011-02-06T11:29:50Z</time>
      </trkpt>
      <trkpt lat="45.6004" lon="5.97781">
        <ele>739.3911133</ele>
        <time>2011-02-06T11:29:52Z</time>
      </trkpt>
      <trkpt lat="45.60036" lon="5.97778">
        <ele>739.3911133</ele>
        <time>2011-02-06T11:29:54Z</time>
      </trkpt>
      <trkpt lat="45.60031" lon="5.97777">
        <ele>737.9492188</ele>
        <time>2011-02-06T11:29:56Z</time>
      </trkpt>
      <trkpt lat="45.60027" lon="5.97778">
        <ele>736.0266113</ele>
        <time>2011-02-06T11:29:58Z</time>
      </trkpt>
      <trkpt lat="45.60023" lon="5.97781">
        <ele>734.1040039</ele>
        <time>2011-02-06T11:30:00Z</time>
      </trkpt>
      <trkpt lat="45.60022" lon="5.97782">
        <ele>733.1425781</ele>
        <time>2011-02-06T11:30:01Z</time>
      </trkpt>
      <trkpt lat="45.60017" lon="5.97792">
        <ele>729.2971191</ele>
        <time>2011-02-06T11:30:05Z</time>
      </trkpt>
      <trkpt lat="45.60011" lon="5.97799">
        <ele>727.3747559</ele>
        <time>2011-02-06T11:30:08Z</time>
      </trkpt>
      <trkpt lat="45.60007" lon="5.97805">
        <ele>726.4133301</ele>
        <time>2011-02-06T11:30:11Z</time>
      </trkpt>
      <trkpt lat="45.60002" lon="5.97808">
        <ele>730.2585449</ele>
        <time>2011-02-06T11:30:13Z</time>
      </trkpt>
      <trkpt lat="45.59992" lon="5.97816">
        <ele>734.1040039</ele>
        <time>2011-02-06T11:30:17Z</time>
      </trkpt>
      <trkpt lat="45.59987" lon="5.97822">
        <ele>731.7004395</ele>
        <time>2011-02-06T11:30:20Z</time>
      </trkpt>
      <trkpt lat="45.5998" lon="5.97822">
        <ele>734.1040039</ele>
        <time>2011-02-06T11:30:23Z</time>
      </trkpt>
      <trkpt lat="45.59972" lon="5.9782">
        <ele>735.5458984</ele>
        <time>2011-02-06T11:30:26Z</time>
      </trkpt>
      <trkpt lat="45.59961" lon="5.97817">
        <ele>738.9106445</ele>
        <time>2011-02-06T11:30:29Z</time>
      </trkpt>
      <trkpt lat="45.59952" lon="5.97816">
        <ele>738.9106445</ele>
        <time>2011-02-06T11:30:32Z</time>
      </trkpt>
      <trkpt lat="45.5995" lon="5.97818">
        <ele>737.4685059</ele>
        <time>2011-02-06T11:30:33Z</time>
      </trkpt>
      <trkpt lat="45.5995" lon="5.97818">
        <ele>737.4685059</ele>
        <time>2011-02-06T11:30:33Z</time>
      </trkpt>
      <trkpt lat="45.59945" lon="5.97824">
        <ele>735.5458984</ele>
        <time>2011-02-06T11:30:36Z</time>
      </trkpt>
      <trkpt lat="45.5994" lon="5.97829">
        <ele>733.623291</ele>
        <time>2011-02-06T11:30:39Z</time>
      </trkpt>
      <trkpt lat="45.59936" lon="5.97832">
        <ele>731.2199707</ele>
        <time>2011-02-06T11:30:42Z</time>
      </trkpt>
      <trkpt lat="45.59933" lon="5.97833">
        <ele>734.1040039</ele>
        <time>2011-02-06T11:30:43Z</time>
      </trkpt>
      <trkpt lat="45.59924" lon="5.97839">
        <ele>736.5073242</ele>
        <time>2011-02-06T11:30:47Z</time>
      </trkpt>
      <trkpt lat="45.59915" lon="5.97842">
        <ele>741.3137207</ele>
        <time>2011-02-06T11:30:51Z</time>
      </trkpt>
      <trkpt lat="45.59906" lon="5.97843">
        <ele>748.0432129</ele>
        <time>2011-02-06T11:30:54Z</time>
      </trkpt>
      <trkpt lat="45.59899" lon="5.97843">
        <ele>752.8496094</ele>
        <time>2011-02-06T11:30:56Z</time>
      </trkpt>
      <trkpt lat="45.59894" lon="5.97848">
        <ele>752.8496094</ele>
        <time>2011-02-06T11:31:00Z</time>
      </trkpt>
      <trkpt lat="45.59889" lon="5.97851">
        <ele>754.291748</ele>
        <time>2011-02-06T11:31:02Z</time>
      </trkpt>
      <trkpt lat="45.59882" lon="5.97851">
        <ele>754.291748</ele>
        <time>2011-02-06T11:31:06Z</time>
      </trkpt>
      <trkpt lat="45.59876" lon="5.97852">
        <ele>753.3303223</ele>
        <time>2011-02-06T11:31:09Z</time>
      </trkpt>
      <trkpt lat="45.59866" lon="5.97853">
        <ele>757.65625</ele>
        <time>2011-02-06T11:31:12Z</time>
      </trkpt>
      <trkpt lat="45.59859" lon="5.97852">
        <ele>759.5788574</ele>
        <time>2011-02-06T11:31:15Z</time>
      </trkpt>
      <trkpt lat="45.59851" lon="5.97849">
        <ele>760.5400391</ele>
        <time>2011-02-06T11:31:18Z</time>
      </trkpt>
      <trkpt lat="45.59844" lon="5.97851">
        <ele>757.1755371</ele>
        <time>2011-02-06T11:31:21Z</time>
      </trkpt>
      <trkpt lat="45.59837" lon="5.9785">
        <ele>754.291748</ele>
        <time>2011-02-06T11:31:24Z</time>
      </trkpt>
      <trkpt lat="45.59831" lon="5.97848">
        <ele>751.8884277</ele>
        <time>2011-02-06T11:31:27Z</time>
      </trkpt>
      <trkpt lat="45.59825" lon="5.97847">
        <ele>749.9658203</ele>
        <time>2011-02-06T11:31:30Z</time>
      </trkpt>
      <trkpt lat="45.59815" lon="5.97845">
        <ele>749.0043945</ele>
        <time>2011-02-06T11:31:33Z</time>
      </trkpt>
      <trkpt lat="45.59806" lon="5.97843">
        <ele>746.1203613</ele>
        <time>2011-02-06T11:31:36Z</time>
      </trkpt>
      <trkpt lat="45.59796" lon="5.97839">
        <ele>744.6782227</ele>
        <time>2011-02-06T11:31:39Z</time>
      </trkpt>
      <trkpt lat="45.59793" lon="5.97835">
        <ele>742.7558594</ele>
        <time>2011-02-06T11:31:41Z</time>
      </trkpt>
      <trkpt lat="45.59787" lon="5.97832">
        <ele>742.7558594</ele>
        <time>2011-02-06T11:31:43Z</time>
      </trkpt>
      <trkpt lat="45.59781" lon="5.9783">
        <ele>742.2751465</ele>
        <time>2011-02-06T11:31:45Z</time>
      </trkpt>
      <trkpt lat="45.59775" lon="5.97826">
        <ele>741.3137207</ele>
        <time>2011-02-06T11:31:47Z</time>
      </trkpt>
      <trkpt lat="45.59769" lon="5.97824">
        <ele>740.3525391</ele>
        <time>2011-02-06T11:31:49Z</time>
      </trkpt>
      <trkpt lat="45.59763" lon="5.97823">
        <ele>738.4299316</ele>
        <time>2011-02-06T11:31:51Z</time>
      </trkpt>
      <trkpt lat="45.59757" lon="5.97822">
        <ele>737.4685059</ele>
        <time>2011-02-06T11:31:53Z</time>
      </trkpt>
      <trkpt lat="45.59751" lon="5.97821">
        <ele>735.5458984</ele>
        <time>2011-02-06T11:31:55Z</time>
      </trkpt>
      <trkpt lat="45.59746" lon="5.97823">
        <ele>731.7004395</ele>
        <time>2011-02-06T11:31:57Z</time>
      </trkpt>
      <trkpt lat="45.59739" lon="5.97823">
        <ele>729.2971191</ele>
        <time>2011-02-06T11:31:59Z</time>
      </trkpt>
      <trkpt lat="45.59731" lon="5.9782">
        <ele>731.7004395</ele>
        <time>2011-02-06T11:32:01Z</time>
      </trkpt>
      <trkpt lat="45.59723" lon="5.97816">
        <ele>731.2199707</ele>
        <time>2011-02-06T11:32:03Z</time>
      </trkpt>
      <trkpt lat="45.59716" lon="5.97813">
        <ele>728.8166504</ele>
        <time>2011-02-06T11:32:05Z</time>
      </trkpt>
      <trkpt lat="45.59707" lon="5.9781">
        <ele>727.8552246</ele>
        <time>2011-02-06T11:32:07Z</time>
      </trkpt>
      <trkpt lat="45.59699" lon="5.97808">
        <ele>725.9326172</ele>
        <time>2011-02-06T11:32:09Z</time>
      </trkpt>
      <trkpt lat="45.59691" lon="5.97808">
        <ele>724.4907227</ele>
        <time>2011-02-06T11:32:11Z</time>
      </trkpt>
      <trkpt lat="45.59685" lon="5.97809">
        <ele>721.1262207</ele>
        <time>2011-02-06T11:32:13Z</time>
      </trkpt>
      <trkpt lat="45.59677" lon="5.97807">
        <ele>719.6843262</ele>
        <time>2011-02-06T11:32:15Z</time>
      </trkpt>
      <trkpt lat="45.59669" lon="5.97805">
        <ele>719.2036133</ele>
        <time>2011-02-06T11:32:17Z</time>
      </trkpt>
      <trkpt lat="45.59662" lon="5.97804">
        <ele>716.3195801</ele>
        <time>2011-02-06T11:32:19Z</time>
      </trkpt>
      <trkpt lat="45.59653" lon="5.978">
        <ele>717.7614746</ele>
        <time>2011-02-06T11:32:21Z</time>
      </trkpt>
      <trkpt lat="45.59644" lon="5.97797">
        <ele>715.8388672</ele>
        <time>2011-02-06T11:32:23Z</time>
      </trkpt>
      <trkpt lat="45.59636" lon="5.97793">
        <ele>714.8774414</ele>
        <time>2011-02-06T11:32:25Z</time>
      </trkpt>
      <trkpt lat="45.59628" lon="5.97791">
        <ele>712.954834</ele>
        <time>2011-02-06T11:32:27Z</time>
      </trkpt>
      <trkpt lat="45.59621" lon="5.97789">
        <ele>710.0708008</ele>
        <time>2011-02-06T11:32:29Z</time>
      </trkpt>
      <trkpt lat="45.59613" lon="5.97788">
        <ele>708.1484375</ele>
        <time>2011-02-06T11:32:31Z</time>
      </trkpt>
      <trkpt lat="45.59603" lon="5.97786">
        <ele>709.590332</ele>
        <time>2011-02-06T11:32:33Z</time>
      </trkpt>
      <trkpt lat="45.59596" lon="5.97785">
        <ele>709.590332</ele>
        <time>2011-02-06T11:32:35Z</time>
      </trkpt>
      <trkpt lat="45.59587" lon="5.97785">
        <ele>709.590332</ele>
        <time>2011-02-06T11:32:37Z</time>
      </trkpt>
      <trkpt lat="45.59579" lon="5.97786">
        <ele>705.7451172</ele>
        <time>2011-02-06T11:32:39Z</time>
      </trkpt>
      <trkpt lat="45.59572" lon="5.97788">
        <ele>703.3417969</ele>
        <time>2011-02-06T11:32:41Z</time>
      </trkpt>
      <trkpt lat="45.59565" lon="5.97793">
        <ele>698.5349121</ele>
        <time>2011-02-06T11:32:43Z</time>
      </trkpt>
      <trkpt lat="45.59557" lon="5.97792">
        <ele>696.1318359</ele>
        <time>2011-02-06T11:32:45Z</time>
      </trkpt>
      <trkpt lat="45.5955" lon="5.97793">
        <ele>693.7285156</ele>
        <time>2011-02-06T11:32:47Z</time>
      </trkpt>
      <trkpt lat="45.59543" lon="5.97793">
        <ele>691.3251953</ele>
        <time>2011-02-06T11:32:49Z</time>
      </trkpt>
      <trkpt lat="45.59537" lon="5.97792">
        <ele>687.9606934</ele>
        <time>2011-02-06T11:32:51Z</time>
      </trkpt>
      <trkpt lat="45.59532" lon="5.9779">
        <ele>684.5961914</ele>
        <time>2011-02-06T11:32:53Z</time>
      </trkpt>
      <trkpt lat="45.59526" lon="5.97788">
        <ele>683.1538086</ele>
        <time>2011-02-06T11:32:55Z</time>
      </trkpt>
      <trkpt lat="45.5952" lon="5.97786">
        <ele>682.192627</ele>
        <time>2011-02-06T11:32:57Z</time>
      </trkpt>
      <trkpt lat="45.59517" lon="5.97786">
        <ele>680.7507324</ele>
        <time>2011-02-06T11:32:58Z</time>
      </trkpt>
      <trkpt lat="45.59504" lon="5.97789">
        <ele>686.0380859</ele>
        <time>2011-02-06T11:33:01Z</time>
      </trkpt>
      <trkpt lat="45.59499" lon="5.97793">
        <ele>683.1538086</ele>
        <time>2011-02-06T11:33:03Z</time>
      </trkpt>
      <trkpt lat="45.59495" lon="5.97799">
        <ele>678.828125</ele>
        <time>2011-02-06T11:33:05Z</time>
      </trkpt>
      <trkpt lat="45.59492" lon="5.97806">
        <ele>675.9440918</ele>
        <time>2011-02-06T11:33:07Z</time>
      </trkpt>
      <trkpt lat="45.59485" lon="5.97813">
        <ele>670.6569824</ele>
        <time>2011-02-06T11:33:10Z</time>
      </trkpt>
      <trkpt lat="45.59482" lon="5.9782">
        <ele>666.8115234</ele>
        <time>2011-02-06T11:33:12Z</time>
      </trkpt>
      <trkpt lat="45.59472" lon="5.9783">
        <ele>661.0437012</ele>
        <time>2011-02-06T11:33:16Z</time>
      </trkpt>
      <trkpt lat="45.59466" lon="5.9784">
        <ele>654.3146973</ele>
        <time>2011-02-06T11:33:19Z</time>
      </trkpt>
      <trkpt lat="45.59464" lon="5.97844">
        <ele>651.4304199</ele>
        <time>2011-02-06T11:33:20Z</time>
      </trkpt>
      <trkpt lat="45.59453" lon="5.97857">
        <ele>643.7399902</ele>
        <time>2011-02-06T11:33:24Z</time>
      </trkpt>
      <trkpt lat="45.59442" lon="5.97872">
        <ele>637.0107422</ele>
        <time>2011-02-06T11:33:28Z</time>
      </trkpt>
      <trkpt lat="45.59436" lon="5.9788">
        <ele>633.1652832</ele>
        <time>2011-02-06T11:33:31Z</time>
      </trkpt>
      <trkpt lat="45.59434" lon="5.97882">
        <ele>631.7233887</ele>
        <time>2011-02-06T11:33:32Z</time>
      </trkpt>
      <trkpt lat="45.59426" lon="5.9789">
        <ele>628.3588867</ele>
        <time>2011-02-06T11:33:36Z</time>
      </trkpt>
      <trkpt lat="45.59417" lon="5.97901">
        <ele>625.4748535</ele>
        <time>2011-02-06T11:33:39Z</time>
      </trkpt>
      <trkpt lat="45.59413" lon="5.97909">
        <ele>620.1877441</ele>
        <time>2011-02-06T11:33:41Z</time>
      </trkpt>
      <trkpt lat="45.594" lon="5.97914">
        <ele>618.7456055</ele>
        <time>2011-02-06T11:33:45Z</time>
      </trkpt>
      <trkpt lat="45.59392" lon="5.97918">
        <ele>619.7070313</ele>
        <time>2011-02-06T11:33:47Z</time>
      </trkpt>
      <trkpt lat="45.59377" lon="5.9794">
        <ele>613.9389648</ele>
        <time>2011-02-06T11:33:51Z</time>
      </trkpt>
      <trkpt lat="45.59368" lon="5.9795">
        <ele>615.8618164</ele>
        <time>2011-02-06T11:33:53Z</time>
      </trkpt>
      <trkpt lat="45.5936" lon="5.97965">
        <ele>612.4970703</ele>
        <time>2011-02-06T11:33:55Z</time>
      </trkpt>
      <trkpt lat="45.59354" lon="5.97977">
        <ele>612.4970703</ele>
        <time>2011-02-06T11:33:57Z</time>
      </trkpt>
      <trkpt lat="45.59349" lon="5.97986">
        <ele>611.0551758</ele>
        <time>2011-02-06T11:33:59Z</time>
      </trkpt>
      <trkpt lat="45.59344" lon="5.97998">
        <ele>610.5744629</ele>
        <time>2011-02-06T11:34:01Z</time>
      </trkpt>
      <trkpt lat="45.59342" lon="5.98002">
        <ele>610.5744629</ele>
        <time>2011-02-06T11:34:02Z</time>
      </trkpt>
      <trkpt lat="45.59336" lon="5.98016">
        <ele>606.2485352</ele>
        <time>2011-02-06T11:34:05Z</time>
      </trkpt>
      <trkpt lat="45.59329" lon="5.98017">
        <ele>608.6518555</ele>
        <time>2011-02-06T11:34:07Z</time>
      </trkpt>
      <trkpt lat="45.59316" lon="5.98016">
        <ele>613.4584961</ele>
        <time>2011-02-06T11:34:10Z</time>
      </trkpt>
      <trkpt lat="45.59301" lon="5.98029">
        <ele>613.4584961</ele>
        <time>2011-02-06T11:34:14Z</time>
      </trkpt>
      <trkpt lat="45.59293" lon="5.98048">
        <ele>609.1325684</ele>
        <time>2011-02-06T11:34:17Z</time>
      </trkpt>
      <trkpt lat="45.59288" lon="5.98059">
        <ele>607.2099609</ele>
        <time>2011-02-06T11:34:19Z</time>
      </trkpt>
      <trkpt lat="45.59284" lon="5.98064">
        <ele>608.6518555</ele>
        <time>2011-02-06T11:34:20Z</time>
      </trkpt>
      <trkpt lat="45.59277" lon="5.98083">
        <ele>609.1325684</ele>
        <time>2011-02-06T11:34:23Z</time>
      </trkpt>
      <trkpt lat="45.59272" lon="5.98096">
        <ele>609.6132813</ele>
        <time>2011-02-06T11:34:25Z</time>
      </trkpt>
      <trkpt lat="45.59268" lon="5.98109">
        <ele>610.09375</ele>
        <time>2011-02-06T11:34:27Z</time>
      </trkpt>
      <trkpt lat="45.59265" lon="5.98123">
        <ele>610.09375</ele>
        <time>2011-02-06T11:34:29Z</time>
      </trkpt>
      <trkpt lat="45.59258" lon="5.98136">
        <ele>612.4970703</ele>
        <time>2011-02-06T11:34:32Z</time>
      </trkpt>
      <trkpt lat="45.59255" lon="5.9814">
        <ele>613.4584961</ele>
        <time>2011-02-06T11:34:33Z</time>
      </trkpt>
      <trkpt lat="45.59247" lon="5.98148">
        <ele>615.3811035</ele>
        <time>2011-02-06T11:34:36Z</time>
      </trkpt>
      <trkpt lat="45.59237" lon="5.98158">
        <ele>616.822998</ele>
        <time>2011-02-06T11:34:40Z</time>
      </trkpt>
      <trkpt lat="45.5923" lon="5.98166">
        <ele>616.822998</ele>
        <time>2011-02-06T11:34:43Z</time>
      </trkpt>
      <trkpt lat="45.59216" lon="5.9817">
        <ele>634.126709</ele>
        <time>2011-02-06T11:34:45Z</time>
      </trkpt>
      <trkpt lat="45.59213" lon="5.98182">
        <ele>629.8007813</ele>
        <time>2011-02-06T11:34:49Z</time>
      </trkpt>
      <trkpt lat="45.59207" lon="5.9819">
        <ele>628.3588867</ele>
        <time>2011-02-06T11:34:52Z</time>
      </trkpt>
      <trkpt lat="45.59198" lon="5.98187">
        <ele>627.3977051</ele>
        <time>2011-02-06T11:34:56Z</time>
      </trkpt>
      <trkpt lat="45.59195" lon="5.98177">
        <ele>627.8781738</ele>
        <time>2011-02-06T11:34:59Z</time>
      </trkpt>
      <trkpt lat="45.59195" lon="5.98167">
        <ele>625.9555664</ele>
        <time>2011-02-06T11:35:02Z</time>
      </trkpt>
      <trkpt lat="45.59195" lon="5.98164">
        <ele>625.9555664</ele>
        <time>2011-02-06T11:35:03Z</time>
      </trkpt>
      <trkpt lat="45.59195" lon="5.98164">
        <ele>625.9555664</ele>
        <time>2011-02-06T11:35:03Z</time>
      </trkpt>
      <trkpt lat="45.59196" lon="5.98155">
        <ele>624.9943848</ele>
        <time>2011-02-06T11:35:06Z</time>
      </trkpt>
      <trkpt lat="45.59194" lon="5.9815">
        <ele>624.5136719</ele>
        <time>2011-02-06T11:35:08Z</time>
      </trkpt>
      <trkpt lat="45.59192" lon="5.98146">
        <ele>622.5910645</ele>
        <time>2011-02-06T11:35:10Z</time>
      </trkpt>
      <trkpt lat="45.59189" lon="5.98148">
        <ele>618.2648926</ele>
        <time>2011-02-06T11:35:14Z</time>
      </trkpt>
      <trkpt lat="45.59185" lon="5.98149">
        <ele>614.9003906</ele>
        <time>2011-02-06T11:35:18Z</time>
      </trkpt>
      <trkpt lat="45.59181" lon="5.98149">
        <ele>613.9389648</ele>
        <time>2011-02-06T11:35:20Z</time>
      </trkpt>
      <trkpt lat="45.59178" lon="5.98141">
        <ele>612.0166016</ele>
        <time>2011-02-06T11:35:24Z</time>
      </trkpt>
      <trkpt lat="45.59179" lon="5.98129">
        <ele>610.09375</ele>
        <time>2011-02-06T11:35:27Z</time>
      </trkpt>
      <trkpt lat="45.59183" lon="5.98115">
        <ele>609.1325684</ele>
        <time>2011-02-06T11:35:30Z</time>
      </trkpt>
      <trkpt lat="45.59184" lon="5.98104">
        <ele>608.6518555</ele>
        <time>2011-02-06T11:35:32Z</time>
      </trkpt>
      <trkpt lat="45.59184" lon="5.98092">
        <ele>608.6518555</ele>
        <time>2011-02-06T11:35:34Z</time>
      </trkpt>
      <trkpt lat="45.59184" lon="5.98078">
        <ele>608.1713867</ele>
        <time>2011-02-06T11:35:36Z</time>
      </trkpt>
      <trkpt lat="45.59183" lon="5.98071">
        <ele>608.1713867</ele>
        <time>2011-02-06T11:35:37Z</time>
      </trkpt>
      <trkpt lat="45.59182" lon="5.98046">
        <ele>606.2485352</ele>
        <time>2011-02-06T11:35:40Z</time>
      </trkpt>
      <trkpt lat="45.5918" lon="5.98024">
        <ele>603.8452148</ele>
        <time>2011-02-06T11:35:43Z</time>
      </trkpt>
      <trkpt lat="45.59177" lon="5.98009">
        <ele>602.8837891</ele>
        <time>2011-02-06T11:35:46Z</time>
      </trkpt>
      <trkpt lat="45.59175" lon="5.98">
        <ele>602.4030762</ele>
        <time>2011-02-06T11:35:48Z</time>
      </trkpt>
      <trkpt lat="45.59176" lon="5.97987">
        <ele>600.9611816</ele>
        <time>2011-02-06T11:35:51Z</time>
      </trkpt>
      <trkpt lat="45.59177" lon="5.97981">
        <ele>601.4418945</ele>
        <time>2011-02-06T11:35:53Z</time>
      </trkpt>
      <trkpt lat="45.59178" lon="5.97979">
        <ele>600.4807129</ele>
        <time>2011-02-06T11:35:54Z</time>
      </trkpt>
      <trkpt lat="45.59179" lon="5.97972">
        <ele>598.5578613</ele>
        <time>2011-02-06T11:35:57Z</time>
      </trkpt>
      <trkpt lat="45.59182" lon="5.97963">
        <ele>595.6740723</ele>
        <time>2011-02-06T11:36:00Z</time>
      </trkpt>
      <trkpt lat="45.59187" lon="5.97953">
        <ele>591.3481445</ele>
        <time>2011-02-06T11:36:03Z</time>
      </trkpt>
      <trkpt lat="45.59188" lon="5.97943">
        <ele>589.90625</ele>
        <time>2011-02-06T11:36:06Z</time>
      </trkpt>
      <trkpt lat="45.59188" lon="5.97937">
        <ele>588.4643555</ele>
        <time>2011-02-06T11:36:08Z</time>
      </trkpt>
      <trkpt lat="45.59185" lon="5.97927">
        <ele>587.0219727</ele>
        <time>2011-02-06T11:36:12Z</time>
      </trkpt>
      <trkpt lat="45.59183" lon="5.9792">
        <ele>587.5026855</ele>
        <time>2011-02-06T11:36:14Z</time>
      </trkpt>
      <trkpt lat="45.59177" lon="5.97916">
        <ele>587.0219727</ele>
        <time>2011-02-06T11:36:18Z</time>
      </trkpt>
      <trkpt lat="45.5917" lon="5.97922">
        <ele>584.1381836</ele>
        <time>2011-02-06T11:36:23Z</time>
      </trkpt>
      <trkpt lat="45.59166" lon="5.97926">
        <ele>579.8122559</ele>
        <time>2011-02-06T11:36:26Z</time>
      </trkpt>
      <trkpt lat="45.59161" lon="5.97927">
        <ele>575.0058594</ele>
        <time>2011-02-06T11:36:29Z</time>
      </trkpt>
      <trkpt lat="45.59153" lon="5.97928">
        <ele>570.1989746</ele>
        <time>2011-02-06T11:36:32Z</time>
      </trkpt>
      <trkpt lat="45.59144" lon="5.97928">
        <ele>566.8344727</ele>
        <time>2011-02-06T11:36:36Z</time>
      </trkpt>
      <trkpt lat="45.59141" lon="5.97919">
        <ele>565.873291</ele>
        <time>2011-02-06T11:36:40Z</time>
      </trkpt>
      <trkpt lat="45.59139" lon="5.97906">
        <ele>564.9118652</ele>
        <time>2011-02-06T11:36:43Z</time>
      </trkpt>
      <trkpt lat="45.59134" lon="5.97896">
        <ele>561.5473633</ele>
        <time>2011-02-06T11:36:46Z</time>
      </trkpt>
      <trkpt lat="45.59129" lon="5.97895">
        <ele>559.6247559</ele>
        <time>2011-02-06T11:36:49Z</time>
      </trkpt>
      <trkpt lat="45.59125" lon="5.97897">
        <ele>558.1828613</ele>
        <time>2011-02-06T11:36:51Z</time>
      </trkpt>
      <trkpt lat="45.59116" lon="5.97904">
        <ele>555.298584</ele>
        <time>2011-02-06T11:36:55Z</time>
      </trkpt>
      <trkpt lat="45.59108" lon="5.97909">
        <ele>556.7407227</ele>
        <time>2011-02-06T11:36:58Z</time>
      </trkpt>
      <trkpt lat="45.59099" lon="5.97912">
        <ele>556.7407227</ele>
        <time>2011-02-06T11:37:01Z</time>
      </trkpt>
      <trkpt lat="45.5909" lon="5.97912">
        <ele>555.7792969</ele>
        <time>2011-02-06T11:37:03Z</time>
      </trkpt>
      <trkpt lat="45.5908" lon="5.97913">
        <ele>554.3374023</ele>
        <time>2011-02-06T11:37:05Z</time>
      </trkpt>
      <trkpt lat="45.59068" lon="5.97914">
        <ele>552.4145508</ele>
        <time>2011-02-06T11:37:07Z</time>
      </trkpt>
      <trkpt lat="45.59056" lon="5.97913">
        <ele>551.4533691</ele>
        <time>2011-02-06T11:37:09Z</time>
      </trkpt>
      <trkpt lat="45.5905" lon="5.97912">
        <ele>550.9726563</ele>
        <time>2011-02-06T11:37:10Z</time>
      </trkpt>
      <trkpt lat="45.5903" lon="5.97913">
        <ele>550.0114746</ele>
        <time>2011-02-06T11:37:13Z</time>
      </trkpt>
      <trkpt lat="45.59019" lon="5.97915">
        <ele>548.5693359</ele>
        <time>2011-02-06T11:37:15Z</time>
      </trkpt>
      <trkpt lat="45.59007" lon="5.97915">
        <ele>547.1274414</ele>
        <time>2011-02-06T11:37:17Z</time>
      </trkpt>
      <trkpt lat="45.58994" lon="5.97914">
        <ele>546.1662598</ele>
        <time>2011-02-06T11:37:19Z</time>
      </trkpt>
      <trkpt lat="45.58987" lon="5.97915">
        <ele>546.6468506</ele>
        <time>2011-02-06T11:37:20Z</time>
      </trkpt>
      <trkpt lat="45.58971" lon="5.9792">
        <ele>545.204834</ele>
        <time>2011-02-06T11:37:23Z</time>
      </trkpt>
      <trkpt lat="45.58962" lon="5.97923">
        <ele>544.2436523</ele>
        <time>2011-02-06T11:37:25Z</time>
      </trkpt>
      <trkpt lat="45.58951" lon="5.97928">
        <ele>542.3209229</ele>
        <time>2011-02-06T11:37:28Z</time>
      </trkpt>
      <trkpt lat="45.58948" lon="5.9793">
        <ele>540.8789063</ele>
        <time>2011-02-06T11:37:29Z</time>
      </trkpt>
      <trkpt lat="45.5894" lon="5.97934">
        <ele>538.9562988</ele>
        <time>2011-02-06T11:37:32Z</time>
      </trkpt>
      <trkpt lat="45.58935" lon="5.97935">
        <ele>537.0336914</ele>
        <time>2011-02-06T11:37:34Z</time>
      </trkpt>
      <trkpt lat="45.58931" lon="5.97939">
        <ele>536.0723877</ele>
        <time>2011-02-06T11:37:36Z</time>
      </trkpt>
      <trkpt lat="45.5893" lon="5.9794">
        <ele>535.1109619</ele>
        <time>2011-02-06T11:37:38Z</time>
      </trkpt>
      <trkpt lat="45.58927" lon="5.97942">
        <ele>534.1496582</ele>
        <time>2011-02-06T11:37:40Z</time>
      </trkpt>
      <trkpt lat="45.58924" lon="5.97944">
        <ele>532.7077637</ele>
        <time>2011-02-06T11:37:42Z</time>
      </trkpt>
      <trkpt lat="45.58915" lon="5.9795">
        <ele>532.2270508</ele>
        <time>2011-02-06T11:37:46Z</time>
      </trkpt>
      <trkpt lat="45.58909" lon="5.97959">
        <ele>530.7851563</ele>
        <time>2011-02-06T11:37:50Z</time>
      </trkpt>
      <trkpt lat="45.58906" lon="5.97967">
        <ele>532.2270508</ele>
        <time>2011-02-06T11:37:53Z</time>
      </trkpt>
      <trkpt lat="45.58905" lon="5.97977">
        <ele>529.8237305</ele>
        <time>2011-02-06T11:37:57Z</time>
      </trkpt>
      <trkpt lat="45.58903" lon="5.97986">
        <ele>525.4978027</ele>
        <time>2011-02-06T11:38:01Z</time>
      </trkpt>
      <trkpt lat="45.58901" lon="5.97998">
        <ele>524.0557861</ele>
        <time>2011-02-06T11:38:04Z</time>
      </trkpt>
      <trkpt lat="45.58899" lon="5.98008">
        <ele>521.1719971</ele>
        <time>2011-02-06T11:38:07Z</time>
      </trkpt>
      <trkpt lat="45.58896" lon="5.98021">
        <ele>518.7685547</ele>
        <time>2011-02-06T11:38:10Z</time>
      </trkpt>
      <trkpt lat="45.58891" lon="5.98032">
        <ele>517.807251</ele>
        <time>2011-02-06T11:38:13Z</time>
      </trkpt>
      <trkpt lat="45.58885" lon="5.9804">
        <ele>518.2878418</ele>
        <time>2011-02-06T11:38:16Z</time>
      </trkpt>
      <trkpt lat="45.5888" lon="5.98049">
        <ele>518.7685547</ele>
        <time>2011-02-06T11:38:19Z</time>
      </trkpt>
      <trkpt lat="45.58869" lon="5.98059">
        <ele>528.8625488</ele>
        <time>2011-02-06T11:38:22Z</time>
      </trkpt>
      <trkpt lat="45.58865" lon="5.98067">
        <ele>528.8625488</ele>
        <time>2011-02-06T11:38:25Z</time>
      </trkpt>
      <trkpt lat="45.58861" lon="5.98076">
        <ele>528.8625488</ele>
        <time>2011-02-06T11:38:28Z</time>
      </trkpt>
      <trkpt lat="45.58857" lon="5.98084">
        <ele>528.8625488</ele>
        <time>2011-02-06T11:38:31Z</time>
      </trkpt>
      <trkpt lat="45.58854" lon="5.98094">
        <ele>529.3431396</ele>
        <time>2011-02-06T11:38:34Z</time>
      </trkpt>
      <trkpt lat="45.5885" lon="5.98103">
        <ele>529.3431396</ele>
        <time>2011-02-06T11:38:37Z</time>
      </trkpt>
      <trkpt lat="45.58846" lon="5.98113">
        <ele>529.3431396</ele>
        <time>2011-02-06T11:38:40Z</time>
      </trkpt>
      <trkpt lat="45.58845" lon="5.98119">
        <ele>528.3818359</ele>
        <time>2011-02-06T11:38:42Z</time>
      </trkpt>
      <trkpt lat="45.58842" lon="5.9813">
        <ele>525.4978027</ele>
        <time>2011-02-06T11:38:46Z</time>
      </trkpt>
      <trkpt lat="45.58839" lon="5.98137">
        <ele>525.0172119</ele>
        <time>2011-02-06T11:38:49Z</time>
      </trkpt>
      <trkpt lat="45.58834" lon="5.98148">
        <ele>527.901001</ele>
        <time>2011-02-06T11:38:52Z</time>
      </trkpt>
      <trkpt lat="45.58832" lon="5.98156">
        <ele>526.4591064</ele>
        <time>2011-02-06T11:38:55Z</time>
      </trkpt>
      <trkpt lat="45.58829" lon="5.98167">
        <ele>525.0172119</ele>
        <time>2011-02-06T11:38:58Z</time>
      </trkpt>
      <trkpt lat="45.58827" lon="5.98178">
        <ele>525.4978027</ele>
        <time>2011-02-06T11:39:01Z</time>
      </trkpt>
      <trkpt lat="45.58827" lon="5.98181">
        <ele>525.9783936</ele>
        <time>2011-02-06T11:39:02Z</time>
      </trkpt>
      <trkpt lat="45.58833" lon="5.98185">
        <ele>529.8237305</ele>
        <time>2011-02-06T11:39:06Z</time>
      </trkpt>
      <trkpt lat="45.58836" lon="5.98185">
        <ele>530.7851563</ele>
        <time>2011-02-06T11:39:08Z</time>
      </trkpt>
      <trkpt lat="45.58843" lon="5.98188">
        <ele>531.7463379</ele>
        <time>2011-02-06T11:39:12Z</time>
      </trkpt>
      <trkpt lat="45.58848" lon="5.98193">
        <ele>533.6689453</ele>
        <time>2011-02-06T11:39:14Z</time>
      </trkpt>
      <trkpt lat="45.58851" lon="5.98205">
        <ele>535.1109619</ele>
        <time>2011-02-06T11:39:18Z</time>
      </trkpt>
      <trkpt lat="45.58851" lon="5.98208">
        <ele>535.1109619</ele>
        <time>2011-02-06T11:39:19Z</time>
      </trkpt>
      <trkpt lat="45.5885" lon="5.98218">
        <ele>533.1883545</ele>
        <time>2011-02-06T11:39:23Z</time>
      </trkpt>
    </trkseg>
  </trk>
</gpx>